[[{"header":{"parameterUnit":"m.s-1","parameterCategory":1,"la1":30.6,"la2":29.2853,"lo1":-89.7004,"lo2":-87.6739,"dy":0.0162,"dx":0.0183,"nx":112,"ny":82,"refTime":"2023-11-21T06:00:00:Z","depth":0,"parameterNumber":2,"parameterNumberName":"U-component_of_WINDS"},"data":[0.0,0.0,0.0,0.0,0.0,0.0,0.0,0.0,0.0,0.0,0.0,0.0,0.0,0.0,0.0,0.0,0.0,0.0,0.0,0.0,0.0,0.0,0.0,0.0,0.0,0.0,0.0,0.0,0.0,0.0,0.0,0.0,0.0,0.0,0.0,0.0,0.0,0.0,0.0,0.0,0.0,0.0,0.0,0.0,0.0,0.0,0.0,0.0,0.0,0.0,0.0,0.0,0.0,0.0,0.0,0.0,0.0,0.0,0.0,0.0,0.0,0.0,0.0,0.0,0.0,0.0,0.0,0.0,0.0,0.0,0.0,0.0,0.0,0.0,0.0,0.0,0.0,0.0,0.0,0.0,0.0,0.0,0.0,0.0,0.0,0.0,0.0,0.0,0.0,0.0,-4.4362,-4.2587,-4.3839,-4.5094,-4.5974,-4.6413,-4.7665,-5.0101,0.0,0.0,0.0,0.0,0.0,0.0,0.0,0.0,0.0,0.0,0.0,0.0,0.0,0.0,0.0,0.0,0.0,0.0,0.0,0.0,0.0,0.0,0.0,0.0,0.0,0.0,0.0,0.0,0.0,0.0,0.0,0.0,0.0,0.0,0.0,0.0,0.0,0.0,0.0,0.0,0.0,0.0,0.0,0.0,0.0,0.0,0.0,0.0,0.0,0.0,0.0,0.0,0.0,0.0,0.0,0.0,0.0,0.0,0.0,0.0,0.0,0.0,0.0,0.0,0.0,0.0,0.0,0.0,0.0,0.0,0.0,0.0,0.0,0.0,0.0,0.0,0.0,0.0,0.0,0.0,0.0,0.0,0.0,0.0,0.0,0.0,0.0,0.0,0.0,0.0,0.0,0.0,0.0,0.0,0.0,0.0,0.0,0.0,0.0,0.0,0.0,0.0,0.0,0.0,-4.3459,-4.4131,-4.5014,-4.6075,-4.7462,-4.6515,-4.7361,-5.0811,0.0,0.0,0.0,0.0,0.0,0.0,0.0,0.0,0.0,0.0,0.0,0.0,0.0,0.0,0.0,0.0,0.0,0.0,0.0,0.0,0.0,0.0,0.0,0.0,0.0,0.0,0.0,0.0,0.0,0.0,0.0,0.0,0.0,0.0,0.0,0.0,0.0,0.0,0.0,0.0,0.0,0.0,0.0,0.0,0.0,0.0,0.0,0.0,0.0,0.0,0.0,0.0,0.0,0.0,0.0,0.0,0.0,0.0,0.0,0.0,0.0,0.0,0.0,0.0,0.0,0.0,0.0,0.0,0.0,0.0,0.0,0.0,0.0,0.0,0.0,0.0,0.0,0.0,0.0,0.0,0.0,0.0,0.0,0.0,0.0,0.0,0.0,0.0,0.0,0.0,0.0,0.0,0.0,0.0,0.0,0.0,0.0,0.0,0.0,0.0,0.0,0.0,0.0,-4.2974,-4.3232,-4.5529,-4.5365,-4.5872,-4.7767,-4.6177,-4.6853,-5.0947,-5.0473,0.0,0.0,0.0,0.0,0.0,0.0,0.0,0.0,0.0,0.0,0.0,0.0,0.0,0.0,0.0,0.0,0.0,0.0,0.0,0.0,0.0,0.0,0.0,0.0,0.0,0.0,0.0,0.0,0.0,0.0,0.0,0.0,0.0,0.0,0.0,0.0,0.0,0.0,0.0,0.0,0.0,0.0,0.0,0.0,0.0,0.0,0.0,0.0,0.0,0.0,0.0,0.0,0.0,0.0,0.0,0.0,0.0,0.0,0.0,0.0,0.0,0.0,0.0,0.0,0.0,0.0,0.0,0.0,0.0,0.0,0.0,0.0,0.0,0.0,0.0,0.0,0.0,0.0,0.0,0.0,0.0,0.0,0.0,0.0,0.0,0.0,0.0,0.0,0.0,0.0,0.0,0.0,0.0,0.0,0.0,0.0,0.0,0.0,0.0,0.0,0.0,0.0,-4.3197,-4.3195,-4.6203,-4.5534,-4.5602,-4.7496,-4.594,-4.6583,-5.0676,-4.9729,0.0,0.0,0.0,0.0,0.0,0.0,0.0,0.0,0.0,0.0,0.0,0.0,0.0,0.0,0.0,0.0,0.0,0.0,0.0,0.0,0.0,0.0,0.0,0.0,0.0,0.0,0.0,0.0,0.0,0.0,0.0,0.0,0.0,0.0,0.0,0.0,0.0,0.0,0.0,0.0,0.0,0.0,0.0,0.0,0.0,0.0,0.0,0.0,0.0,0.0,0.0,0.0,0.0,0.0,0.0,0.0,0.0,0.0,0.0,0.0,0.0,0.0,0.0,0.0,0.0,0.0,0.0,0.0,0.0,0.0,0.0,0.0,0.0,0.0,0.0,0.0,0.0,0.0,0.0,0.0,0.0,0.0,0.0,0.0,0.0,0.0,0.0,0.0,0.0,0.0,0.0,0.0,0.0,0.0,0.0,0.0,0.0,0.0,0.0,0.0,0.0,0.0,-4.2877,-4.3,-4.5496,-4.5703,-4.5974,-4.6819,-4.6109,-4.6921,-4.9965,-4.9424,0.0,0.0,0.0,0.0,0.0,0.0,0.0,0.0,0.0,0.0,0.0,0.0,0.0,0.0,0.0,0.0,0.0,0.0,0.0,0.0,0.0,0.0,0.0,0.0,0.0,0.0,0.0,0.0,0.0,0.0,0.0,0.0,0.0,0.0,0.0,0.0,0.0,0.0,0.0,0.0,0.0,0.0,0.0,0.0,0.0,0.0,0.0,0.0,0.0,0.0,0.0,0.0,0.0,0.0,0.0,0.0,0.0,0.0,0.0,0.0,0.0,0.0,0.0,0.0,0.0,0.0,0.0,0.0,0.0,0.0,0.0,0.0,0.0,0.0,0.0,0.0,0.0,0.0,0.0,0.0,0.0,0.0,0.0,0.0,0.0,0.0,0.0,0.0,0.0,0.0,0.0,0.0,0.0,0.0,0.0,0.0,0.0,0.0,0.0,0.0,0.0,0.0,-4.3451,-4.3749,-4.6743,-4.5838,-4.5669,-4.7361,-4.5974,-4.6447,-4.9864,0.0,0.0,0.0,0.0,0.0,0.0,0.0,0.0,0.0,0.0,0.0,0.0,0.0,0.0,0.0,0.0,0.0,0.0,0.0,0.0,0.0,0.0,0.0,0.0,0.0,0.0,0.0,0.0,0.0,0.0,0.0,0.0,0.0,0.0,0.0,0.0,0.0,0.0,0.0,0.0,0.0,0.0,0.0,0.0,0.0,0.0,0.0,0.0,0.0,0.0,0.0,0.0,0.0,0.0,0.0,0.0,0.0,0.0,0.0,0.0,0.0,0.0,0.0,0.0,0.0,0.0,0.0,0.0,0.0,0.0,0.0,0.0,0.0,0.0,0.0,0.0,0.0,0.0,0.0,0.0,0.0,0.0,0.0,0.0,0.0,0.0,0.0,0.0,0.0,0.0,0.0,0.0,0.0,0.0,0.0,0.0,0.0,0.0,0.0,0.0,0.0,0.0,-4.484,-4.3674,-4.3814,-4.6877,-4.5635,-4.5196,-4.6718,-4.5229,-4.5805,-4.9526,0.0,0.0,0.0,0.0,0.0,0.0,0.0,0.0,0.0,0.0,0.0,0.0,0.0,0.0,0.0,0.0,0.0,0.0,0.0,0.0,0.0,0.0,0.0,0.0,0.0,0.0,0.0,0.0,0.0,0.0,0.0,0.0,0.0,0.0,0.0,0.0,0.0,0.0,0.0,0.0,0.0,0.0,0.0,0.0,0.0,0.0,0.0,0.0,0.0,0.0,0.0,0.0,0.0,0.0,0.0,0.0,0.0,0.0,0.0,0.0,0.0,0.0,0.0,0.0,0.0,0.0,0.0,0.0,0.0,0.0,0.0,0.0,0.0,0.0,0.0,0.0,0.0,0.0,0.0,0.0,0.0,0.0,0.0,0.0,0.0,0.0,0.0,0.0,0.0,0.0,0.0,0.0,0.0,0.0,0.0,0.0,0.0,0.0,0.0,0.0,0.0,0.0,-4.4808,-4.3259,-4.2938,-4.5462,-4.506,-4.4587,-4.4587,-4.3876,-4.497,0.0,0.0,0.0,0.0,0.0,0.0,0.0,0.0,0.0,0.0,0.0,0.0,0.0,0.0,0.0,0.0,0.0,0.0,0.0,0.0,0.0,0.0,0.0,0.0,0.0,0.0,0.0,0.0,0.0,0.0,0.0,0.0,0.0,0.0,0.0,0.0,0.0,0.0,0.0,0.0,0.0,0.0,0.0,0.0,0.0,0.0,0.0,0.0,0.0,0.0,0.0,0.0,0.0,0.0,0.0,0.0,0.0,0.0,0.0,0.0,0.0,0.0,0.0,0.0,0.0,0.0,0.0,0.0,0.0,0.0,0.0,0.0,0.0,0.0,0.0,0.0,0.0,0.0,0.0,0.0,0.0,0.0,0.0,0.0,0.0,0.0,0.0,0.0,0.0,0.0,0.0,0.0,0.0,0.0,0.0,0.0,0.0,0.0,0.0,0.0,0.0,0.0,0.0,-4.4433,-4.3028,-4.2932,-4.5983,-4.4584,-4.4183,-4.6017,-4.3866,-4.403,-4.7703,0.0,0.0,0.0,0.0,0.0,0.0,0.0,0.0,0.0,0.0,0.0,0.0,0.0,0.0,0.0,0.0,0.0,0.0,0.0,0.0,0.0,0.0,0.0,0.0,0.0,0.0,0.0,0.0,0.0,0.0,0.0,0.0,0.0,0.0,0.0,0.0,0.0,0.0,0.0,0.0,0.0,0.0,0.0,0.0,0.0,0.0,0.0,0.0,0.0,0.0,0.0,0.0,0.0,0.0,0.0,0.0,0.0,0.0,0.0,0.0,0.0,0.0,0.0,0.0,0.0,0.0,0.0,0.0,0.0,0.0,0.0,0.0,0.0,0.0,0.0,0.0,0.0,0.0,0.0,0.0,0.0,0.0,0.0,0.0,0.0,0.0,0.0,0.0,0.0,0.0,0.0,0.0,0.0,0.0,0.0,0.0,0.0,0.0,0.0,0.0,0.0,0.0,-4.474,-4.3314,-4.2987,-4.5341,-4.3975,-4.3493,-4.4759,-4.281,-4.2848,-4.596,0.0,0.0,0.0,0.0,0.0,0.0,0.0,0.0,0.0,0.0,0.0,0.0,0.0,0.0,0.0,0.0,0.0,0.0,0.0,0.0,0.0,0.0,0.0,0.0,0.0,0.0,0.0,0.0,0.0,0.0,0.0,0.0,0.0,0.0,0.0,0.0,0.0,0.0,0.0,0.0,0.0,0.0,0.0,0.0,0.0,0.0,0.0,0.0,0.0,0.0,0.0,0.0,0.0,0.0,0.0,0.0,0.0,0.0,0.0,0.0,0.0,0.0,0.0,0.0,0.0,0.0,0.0,0.0,0.0,0.0,0.0,0.0,0.0,0.0,0.0,0.0,0.0,0.0,0.0,0.0,0.0,0.0,0.0,0.0,0.0,0.0,0.0,0.0,0.0,0.0,0.0,0.0,0.0,0.0,0.0,0.0,0.0,0.0,0.0,0.0,0.0,0.0,-4.5311,-4.3846,-4.3074,-4.4013,-4.3409,-4.2776,-4.2333,-4.1406,-4.1787,-4.3994,0.0,0.0,0.0,0.0,0.0,0.0,0.0,0.0,0.0,0.0,0.0,0.0,0.0,0.0,0.0,0.0,0.0,0.0,0.0,0.0,0.0,0.0,0.0,0.0,0.0,0.0,0.0,0.0,0.0,0.0,0.0,0.0,0.0,0.0,0.0,0.0,0.0,0.0,0.0,0.0,0.0,0.0,0.0,0.0,0.0,0.0,0.0,0.0,0.0,0.0,0.0,0.0,0.0,0.0,0.0,0.0,0.0,0.0,0.0,0.0,0.0602,0.0,0.0,0.0,0.0,0.0,0.0,0.0,0.0,0.0,0.0,0.0,0.0,0.0,0.0,0.0,0.0,0.0,0.0,0.0,0.0,0.0,0.0,0.0,0.0,0.0,0.0,0.0,0.0,0.0,0.0,0.0,0.0,0.0,0.0,0.0,0.0,0.0,0.0,0.0,0.0,0.0,-4.4429,-4.3344,-4.3076,-4.4538,-4.3389,-4.3075,-4.4373,-4.1992,-4.1464,-4.3666,-4.4028,0.0,0.0,0.0,0.0,0.0,0.0,0.0,0.0,0.0,0.0,0.0,0.0,0.0,0.0,0.0,0.0,0.0,0.0,0.0,0.0,0.0,0.0,0.0,0.0,0.0,0.0,0.0,0.0,0.0,0.0,0.0,0.0,0.0,0.0,0.0,0.0,0.0,0.0,0.0,0.0,0.0,0.0,0.0,0.0,0.0,0.0,0.0,0.0,0.0,0.0,0.0,0.0,0.0,0.0,0.0,0.0,0.0,0.0,0.0,0.0,-0.2928,0.0,0.0,0.0,0.0,0.0,0.0,0.0,0.0,0.0,0.0,0.0,0.0,0.0,0.0,0.0,0.0,0.0,0.0,0.0,0.0,0.0,0.0,0.0,0.0,0.0,0.0,0.0,0.0,0.0,0.0,0.0,0.0,0.0,0.0,0.0,0.0,0.0,0.0,0.0,0.0,-4.4616,-4.3359,-4.2604,-4.3107,-4.2455,-4.2168,-4.2829,-4.162,-4.137,-4.2558,-4.3243,0.0,0.0,0.0,0.0,0.0,0.0,0.0,0.0,0.0,0.0,0.0,0.0,0.0,0.0,0.0,0.0,0.0,0.0,0.0,0.0,0.0,0.0,0.0,0.0,0.0,0.0,0.0,0.0,0.0,0.0,0.0,0.0,0.0,0.0,0.0,0.0,0.0,0.0,0.0,0.0,0.0,0.0,0.0,0.0,0.0,0.0,0.0,0.0,0.0,0.0,0.0,0.0,0.0,-0.3579,-0.5588,-0.7712,-0.7604,-0.7636,-0.7717,-0.5736,-0.5957,-0.7893,-0.9192,0.0,0.0,0.0,0.0,0.0,0.0,0.0,0.0,0.0,0.0,0.0,0.0,0.0,0.0,0.0,0.0,0.0,0.0,0.0,0.0,0.0,0.0,0.0,0.0,-3.607,-3.6989,-3.7643,0.0,0.0,0.0,0.0,0.0,0.0,0.0,0.0,0.0,0.0,0.0,-4.4676,-4.3359,-4.2162,-4.1624,-4.1564,-4.1384,-4.0935,-4.1294,-4.1564,-4.1564,-4.2581,-4.3819,0.0,0.0,0.0,0.0,0.0,0.0,0.0,0.0,0.0,0.0,0.0,0.0,0.0,0.0,0.0,0.0,0.0,0.0,0.0,0.0,0.0,0.0,0.0,0.0,0.0,0.0,0.0,0.0,0.0,0.0,0.0,0.0,2.3519,2.2232,0.0,0.0,0.0,0.0,0.0,0.0,0.0,0.0,0.0,0.0,0.0,0.0,0.0,0.6268,0.3233,-0.2995,-0.6305,-0.6714,-0.6995,-0.7289,-0.7604,-0.7597,-0.8313,-0.9457,-0.9155,0.0,-0.9351,-1.041,0.0,0.0,0.0,0.0,0.0,0.0,0.0,0.0,0.0,0.0,0.0,0.0,0.0,0.0,0.0,0.0,0.0,0.0,0.0,0.0,0.0,0.0,-3.3244,-3.3947,-3.6159,-3.8345,0.0,-4.1247,-4.3171,-4.4679,-4.443,0.0,0.0,0.0,0.0,0.0,0.0,0.0,-4.288,-4.2521,-4.2419,-4.2252,-4.2299,-4.2432,-4.291,-4.2521,-4.2299,-4.2299,-4.2402,-4.3516,-4.5694,-4.7352,0.0,0.0,0.0,0.0,0.0,0.0,0.0,0.0,0.0,0.0,0.0,0.0,0.0,0.0,0.0,0.0,0.0,0.0,0.0,0.0,0.0,0.0,0.0,0.0,0.0,0.0,0.0,0.0,0.0,2.4881,2.3384,2.1696,2.2113,2.1896,0.0,0.0,0.0,0.0,0.0,0.0,0.0,0.0,0.0,0.9579,0.5116,0.0911,-0.3012,-0.706,-0.8995,-0.8863,-0.8855,-0.8901,-0.9003,-0.9096,-0.9567,-1.0233,-1.1905,-1.2594,-1.2467,-1.2592,-1.2736,-1.3009,0.0,0.0,0.0,0.0,-1.7702,-1.8975,-2.0099,-2.171,0.0,-2.3892,0.0,0.0,0.0,0.0,0.0,0.0,0.0,0.0,0.0,0.0,-3.4148,-3.47,-3.7075,-3.9502,-4.0272,-4.2281,-4.4216,0.0,-4.5065,-4.4945,-4.5244,0.0,0.0,0.0,0.0,-4.2731,-4.288,-4.2252,-4.1803,-4.1803,-4.2132,-4.2491,-4.2761,-4.2851,-4.291,-4.291,-4.3425,-4.4434,-4.5818,-4.8047,-5.0347,0.0,0.0,0.0,0.0,0.0,0.0,0.0,0.0,0.0,0.0,0.0,0.0,0.0,0.0,0.0,0.0,0.0,0.0,0.0,0.0,0.0,0.0,0.0,0.0,0.0,0.0,0.0,0.0,2.4438,2.2793,2.1131,2.1086,2.0404,0.0,0.0,0.0,0.0,0.0,0.0,1.4462,1.0829,0.7407,0.4516,0.0093,-0.4054,-0.7702,-0.9401,-0.9923,-0.9308,-0.9736,-0.9926,-1.0069,-1.0356,-1.0839,-1.1659,-1.3847,-1.4951,-1.523,-1.4753,-1.4496,-1.4589,-1.5967,-1.7013,-1.8033,-1.8676,-2.0054,-2.1699,-2.24,-2.3712,-2.5316,-2.5892,0.0,-2.977,-2.977,0.0,0.0,0.0,0.0,-3.3997,-3.4399,-3.4625,-3.4876,-3.5403,-3.7727,-3.9864,-4.0302,-4.231,-4.4317,0.0,-4.4766,-4.4646,-4.4975,0.0,0.0,-4.4855,-4.324,-4.2162,-4.297,-4.2073,-4.1444,-4.1624,-4.2073,-4.2432,-4.2611,-4.306,-4.3389,-4.3569,-4.4557,-4.5583,-4.6729,-4.8907,-5.0913,-5.2615,0.0,0.0,0.0,0.0,0.0,0.0,0.0,0.0,0.0,0.0,0.0,0.0,0.0,0.0,0.0,0.0,0.0,0.0,0.0,0.0,0.0,0.0,0.0,0.0,0.0,0.0,0.0,0.0,0.0,2.0264,1.8431,0.0,0.0,0.0,0.0,1.479,1.3062,1.1465,0.994,0.3728,-0.0,-0.0551,-0.4971,-0.7583,-0.8021,-0.9244,-0.922,-0.8124,-0.9562,-1.0239,-1.0365,-1.0544,-1.2064,-1.4624,-1.4737,-1.5469,-1.6573,-1.6268,-1.6308,-1.6706,-1.7785,-1.8327,-1.8987,-2.1397,-2.2456,-2.2907,-2.5189,-2.6109,-2.6622,-2.8819,-3.0639,-3.2031,-3.2031,-3.2832,0.0,0.0,-3.3897,-3.3897,-3.3922,-3.4324,-3.4876,-3.5403,-3.7428,-3.9111,-3.9137,-4.1508,-4.3745,0.0,-4.3359,-4.291,-4.4137,0.0,-4.3569,-4.4257,-4.3718,-4.303,-4.2491,-4.1803,-4.1624,-4.2252,-4.2419,-4.2611,-4.324,-4.3299,-4.3599,-4.4227,-4.5231,-4.6837,-4.9149,-5.0275,-5.1988,-5.443,-5.4566,0.0,0.0,0.0,0.0,0.0,0.0,0.0,0.0,0.0,0.0,0.0,0.0,0.0,0.0,0.0,0.0,0.0,0.0,0.0,0.0,0.0,0.0,0.0,0.0,0.0,0.0,0.0,0.0,1.9488,1.8627,0.0,1.5768,1.5315,1.4602,1.3259,1.1651,0.8524,0.3426,0.1068,-0.1762,-0.5363,-0.7082,-0.7929,-0.797,-0.9327,-0.9805,-0.9377,-1.0051,-1.0852,-1.1773,-1.2086,-1.3226,-1.5124,-1.6135,-1.7338,-1.857,-1.8455,-1.8239,-1.805,-1.8424,-1.9605,-2.1353,-2.2227,-2.3074,-2.4025,-2.5723,-2.6797,-2.7743,-3.0097,-3.1183,-3.1763,-3.2114,-3.2491,-3.2893,-3.3269,-3.3621,-3.3972,-3.4349,-3.4826,-3.5378,-3.5931,-3.7619,-3.9321,-4.0051,-4.1643,-4.3251,-4.4102,-4.3928,-4.3778,-4.4227,-4.3419,-4.306,-4.4137,-4.303,-4.2132,-4.2342,-4.2162,-4.2102,-4.2342,-4.2731,-4.309,-4.3299,-4.3718,-4.4368,-4.5262,-4.6635,-4.8317,-5.0308,-5.1323,-5.2438,-5.3856,-5.389,-5.4499,0.0,0.0,0.0,0.0,0.0,0.0,0.0,0.0,0.0,0.0,0.0,0.0,0.0,0.0,0.0,0.0,0.0,0.0,0.0,0.0,0.0,0.0,0.0,0.0,0.0,2.232,2.0443,1.9162,1.8261,1.6978,1.4786,1.4093,1.3182,1.189,0.9485,0.5596,-0.0,-0.1793,-0.4314,-0.7872,-0.8019,-0.8133,-0.8119,-0.9564,-1.0051,-0.965,-1.024,-1.1263,-1.2708,-1.3036,-1.4206,-1.6143,-1.758,-1.8812,-1.9627,-2.0128,-2.0373,-2.0359,-2.0359,-2.1438,-2.3003,-2.35,-2.4544,-2.5999,-2.7861,-2.9171,-3.0154,-3.1487,-3.2089,-3.2265,-3.2441,-3.2767,-3.3144,-3.352,-3.3897,-3.4299,-3.4851,-3.5278,-3.568,-3.6232,-3.7339,-3.8411,-3.912,-4.0553,-4.1881,-4.2669,-4.3113,-4.3523,-4.3907,-4.2921,-4.2634,-4.4056,-4.2821,-4.2043,-4.291,-4.2641,-4.2462,-4.2671,-4.306,-4.3419,-4.3658,-4.4368,-4.5318,-4.6454,-4.8233,-4.9838,-5.1201,-5.2402,-5.3315,-5.3856,-5.3856,-5.4363,-5.5344,0.0,0.0,0.0,0.0,0.0,0.0,0.0,0.0,0.0,0.0,0.0,0.0,0.0,0.0,0.0,0.0,0.0,0.0,0.0,0.0,0.0,0.0,0.0,2.3619,2.0734,1.8645,1.9167,1.7174,1.5261,1.3992,1.263,1.1482,1.0663,0.6625,0.2907,-0.0,-0.5127,-0.7985,-0.7979,-0.8208,-0.8275,-0.8275,-0.9649,-0.9727,-0.8492,-0.9906,-1.1469,-1.3046,-1.3163,-1.4877,-1.7687,-1.902,-1.9627,-1.9834,-2.1253,-2.2567,-2.3782,-2.3683,-2.3683,-2.3899,-2.5235,-2.6952,-2.8914,-3.1855,-3.3332,-3.3847,-3.3294,-3.3495,-3.3822,-3.3294,-3.3872,-3.4726,-3.4726,-3.4726,-3.4876,-3.5429,-3.5579,-3.573,-3.6351,-3.6477,-3.6477,-3.6572,-3.8342,-4.0027,-4.0027,-4.0859,-4.1976,-4.309,-4.2386,-4.2233,-4.4005,-4.321,0.0,-4.4107,-4.318,-4.2641,-4.3299,-4.3359,-4.3629,-4.4287,-4.537,-4.6547,-4.7805,-4.9757,-5.1201,-5.1888,-5.3609,-5.4566,-5.4566,-5.46,-5.4634,-5.4703,0.0,0.0,0.0,0.0,0.0,0.0,0.0,0.0,0.0,0.0,0.0,0.0,0.0,0.0,0.0,0.0,0.0,0.0,0.0,0.0,0.0,2.248,2.1405,2.154,1.9803,1.8237,1.7469,1.583,1.4545,1.4252,1.2268,1.1157,1.1519,0.8692,0.4024,-0.2506,-0.6147,-0.8032,-0.8024,-0.8153,-0.833,-0.8556,-0.8998,-0.8962,-0.8648,-0.9124,-1.0707,-1.3173,-1.3234,-1.5388,-1.9124,-1.942,-2.0743,-2.2567,-2.2968,-2.3899,-2.502,-2.4097,-2.4295,-2.5314,-2.6552,-2.8798,-3.1252,-3.244,-3.3576,-3.4474,-3.4324,-3.4374,-3.4474,-3.4324,-3.4474,-3.4726,-3.4726,-3.5002,-3.5454,-3.5981,-3.6433,-3.695,-3.7997,-3.821,-3.8741,-4.0493,-4.1395,-4.2252,-4.3591,-4.3047,-4.2553,-4.315,-4.3061,-4.296,-4.3489,-4.3299,0.0,-4.3569,-4.3299,-4.3329,-4.3988,-4.4704,-4.5418,-4.6094,-4.7056,-4.8307,-4.9913,-5.0517,-5.1516,-5.3008,-5.3551,-5.3788,-5.3788,-5.4871,-5.569,0.0,0.0,0.0,0.0,0.0,0.0,0.0,0.0,0.0,0.0,0.0,0.0,0.0,0.0,0.0,0.0,0.0,0.0,0.0,0.0,0.0,0.0,2.1356,2.0079,2.0227,1.8746,1.7285,1.5985,1.492,1.3913,1.2809,1.1539,1.0155,0.8657,0.8194,0.4384,-0.3758,-0.6732,-0.8146,-0.8176,-0.8327,-0.8506,-0.8615,-0.8743,-0.9124,-0.966,-0.9764,-1.1319,-1.4126,-1.4126,-1.6131,0.0,-2.0231,-2.1659,-2.3782,-2.4313,-2.502,0.0,0.0,0.0,0.0,0.0,-3.062,-3.2954,-3.3974,-3.4675,-3.5077,-3.5077,-3.5077,-3.5077,-3.5077,-3.5228,-3.5403,-3.5403,-3.5655,-3.6006,-3.6558,-3.6935,-3.7597,-3.9013,-3.9348,-3.988,-4.184,-4.2219,-4.2681,-4.4232,-4.3714,0.0,-4.4035,-4.3256,-4.2917,-4.3967,-4.3688,-4.3539,-4.4077,-4.3898,-4.3898,-4.4287,-4.5537,-4.6563,-4.7246,-4.8552,0.0,0.0,0.0,-5.2535,-5.3923,-5.3957,0.0,0.0,0.0,-5.6133,-5.6923,0.0,0.0,0.0,-6.3119,-6.5222,0.0,0.0,0.0,0.0,0.0,0.0,0.0,0.0,0.0,0.0,0.0,0.0,0.0,0.0,0.0,0.0,2.0438,1.9008,1.902,1.7606,1.6164,1.4891,1.4344,1.3183,1.0793,1.0602,0.8953,0.4771,0.6147,0.3739,-0.404,0.0,0.0,0.0,0.0,-0.873,-0.8655,-0.9003,-0.9831,-1.1135,-1.1371,-1.29,-1.5505,-1.5708,-1.7279,-1.9998,-2.1404,-2.2702,-2.3998,-2.5273,-2.584,-2.5879,-2.5918,-2.6093,-2.6657,-3.0031,-3.2413,-3.4149,-3.5779,0.0,0.0,-3.5629,-3.5629,-3.5629,-3.5629,-3.5981,-3.6358,-3.6358,-3.6408,-3.6584,-3.7136,-3.7409,-3.8044,-3.9823,-4.0213,-4.0562,-4.1854,-4.1973,-4.2182,-4.3543,-4.3661,-4.395,-4.5227,-4.3495,-4.2806,-4.4929,-4.4317,-4.3988,-4.5155,-4.4796,-4.4436,-4.4659,0.0,0.0,-4.8168,-4.9936,-5.1343,-5.2032,-5.2939,-5.3788,-5.4431,-5.4465,-5.4499,-5.46,-5.5412,-5.6338,-5.7422,-5.9761,-6.2117,-6.4597,-6.7414,-6.8898,0.0,0.0,0.0,0.0,0.0,0.0,0.0,0.0,0.0,0.0,0.0,0.0,0.0,0.0,0.0,2.0577,1.9797,1.8603,1.6667,1.6272,1.6041,1.5719,1.3352,1.1594,1.1372,0.9867,0.8526,0.734,0.3713,-0.0212,-0.4327,-0.7211,-0.8786,-0.8588,-0.8595,-0.8777,-0.8816,-1.0262,-1.1106,-1.1441,0.0,0.0,-1.6145,-1.7321,-1.9249,-2.169,-2.3134,-2.439,-2.5352,-2.6014,-2.6465,-2.682,-2.7631,-2.8508,-2.9642,-3.2274,-3.398,-3.5233,-3.6063,-3.6282,-3.6207,-3.6207,-3.6207,-3.6207,-3.6207,-3.6282,0.0,-3.6358,-3.6684,-3.7161,-3.7713,-3.8928,-4.043,-4.1746,-4.1961,-4.2334,-4.3612,-4.3069,-4.2842,-4.4657,-4.4611,-4.4647,-4.5858,-4.5257,-4.4727,-4.5244,-4.5065,-4.5005,-4.5274,-4.5185,-4.5604,-4.6985,-4.8215,-4.948,-5.0969,-5.1655,-5.2337,-5.3145,-5.3348,-5.3551,-5.3721,-5.3721,-5.3991,-5.4566,-5.5919,-5.7706,-5.9849,-6.2132,-6.4506,-6.7012,-6.7633,-6.8972,0.0,0.0,0.0,0.0,0.0,0.0,0.0,0.0,0.0,0.0,0.0,2.3734,2.2959,0.0,2.0487,1.9915,1.8702,1.7316,1.6275,1.482,1.3898,1.3668,1.2459,1.1234,1.0414,0.9361,0.862,0.8487,0.0431,-0.4428,-0.4518,-0.7338,-0.8858,-0.885,-0.8872,-0.8947,-0.9191,-1.0731,-1.1827,-1.2497,-1.4382,-1.5893,-1.7237,-1.8605,-2.0422,-2.2468,-2.3736,-2.5107,-2.6387,-2.6621,-2.6836,-2.7114,-2.8466,-2.9829,-3.1134,-3.231,-3.3647,-3.4917,-3.4461,-3.4338,-3.4435,-3.5162,-3.5379,-3.5571,-3.6168,-3.6558,-3.6784,-3.6784,-3.7161,-3.7713,-3.8291,-3.9117,-4.0265,-4.1673,-4.2016,-4.2399,-4.3714,-4.2968,-4.2671,-4.4967,-4.4584,-4.4567,-4.6426,-4.6531,-4.6202,-4.5873,-4.5514,-4.5424,-4.5753,-4.6252,-4.6915,-4.7707,-4.9477,-5.0986,-5.1816,-5.2501,-5.3078,-5.3484,-5.3518,-5.3687,-5.4025,-5.4059,-5.4397,-5.5141,-5.702,-5.9004,-6.1122,-6.3805,-6.6247,-6.8311,-6.9119,-7.0367,0.0,0.0,0.0,0.0,0.0,0.0,0.0,2.7288,2.6216,2.4719,2.3575,2.2648,2.1848,2.0253,1.9022,1.9163,1.7533,1.6,1.5621,1.3479,1.1703,1.1205,1.1421,1.0902,0.9252,0.9017,0.8458,0.7227,-0.2859,-0.7847,-0.5617,-0.7719,-0.9064,-0.9218,-0.9069,-0.9216,-0.9824,-1.1247,-1.2618,-1.4113,-1.5916,-1.7328,-1.8303,-1.9773,-2.1263,-2.2831,-2.4239,-2.5665,-2.7148,-2.7148,-2.7187,-2.7388,-2.9147,-3.0471,-3.1451,-3.1748,-3.2712,-3.3871,-3.2632,-3.2331,-3.2532,-3.397,-3.4457,-3.4822,-3.6127,-3.691,-3.7337,-3.7337,-3.7739,-3.8291,-3.8743,-3.9146,-3.9801,-4.1214,-4.1591,-4.1887,-4.293,-4.235,-4.2252,-4.4535,-4.4349,-4.4684,-4.708,-4.7399,-4.713,-4.6591,-4.6052,-4.5873,-4.6441,-4.7333,-4.8084,-4.8324,-5.0499,-5.1993,-5.217,-5.3008,-5.3551,-5.3687,-5.3721,-5.4025,-5.4769,-5.4803,-5.5243,-5.6122,-5.829,-6.0373,-6.2364,-6.5238,-6.76,-6.9412,-7.0697,-7.1835,2.9989,2.8687,2.8133,2.9972,2.9167,2.8408,0.0,2.9059,2.7427,2.6053,2.474,2.3129,2.0674,2.0001,1.907,1.6882,1.6476,1.5506,1.275,1.2201,1.1583,1.013,0.9912,0.9564,0.8981,0.8858,0.6675,0.1372,-0.5193,-0.8937,-0.8817,-0.903,-0.9205,-0.9354,-0.9211,-0.9814,-1.1077,-1.2608,-1.4357,-1.6039,-1.7804,-1.8871,-1.9327,-2.0757,-2.2054,-2.3319,-2.5626,-2.7085,-2.7598,-2.7598,-2.7812,-2.8251,-2.9724,-3.0348,-3.0636,-3.1737,-3.2387,-3.2532,-3.2331,-3.2331,-3.2532,-3.397,-3.4671,-3.5349,-3.6674,-3.7487,-3.7914,-3.7914,-3.8341,-3.8793,-3.8843,-4.0079,-4.134,-4.1591,-4.1591,-4.1591,-4.1789,-4.169,-4.1985,-4.3409,-4.4535,-4.5863,-4.7881,-4.7698,-4.7279,-4.7219,-4.713,-4.71,-4.7189,-4.8118,-4.901,-4.9992,-5.1197,-5.2312,-5.328,-5.3416,-5.3788,-5.4431,-5.4465,-5.4803,-5.5547,-5.5581,-5.6224,-5.7611,-5.9357,-6.1736,-6.4741,-6.6603,-6.8668,-7.1064,-7.1248,-7.2129,3.1424,3.0191,2.945,2.9598,2.9076,2.8494,2.8847,2.8125,2.6981,2.5488,2.4526,2.3319,2.1339,2.0387,1.9233,1.7291,1.6339,1.4962,1.2664,1.1547,1.0689,0.9841,0.9727,0.8859,0.6812,0.4861,0.2706,0.0233,-0.405,-0.741,-0.9354,-0.932,-0.9367,-0.951,-0.9279,-1.0023,-1.1586,-1.2936,-1.4489,-1.6198,-1.8081,-1.8985,-1.9105,-2.0528,-2.2435,-2.4593,-2.5861,-2.7093,-2.8027,-2.8027,-2.8125,-2.8388,-2.89,-2.9092,-2.9303,-3.0618,-3.1133,-3.103,-3.0224,-3.0016,-3.037,-3.2893,-3.3853,-3.4466,-3.6949,-3.8065,-3.8517,-3.8517,-3.8919,-3.9346,-3.9346,-3.9905,-4.0465,-4.0465,-4.0465,-4.0743,-4.1419,-4.1591,-4.2528,-4.5556,-4.6577,-4.7524,-4.9474,-4.9555,-4.923,-4.8535,-4.7788,-4.7538,-4.8072,-4.9054,-5.0397,-5.2026,-5.2557,-5.3008,-5.3416,-5.3518,-5.3822,-5.4532,-5.46,-5.5108,-5.6292,-5.6765,-5.7729,-5.9286,-6.1392,-6.3583,-6.5868,-6.8028,-6.9864,-7.1321,-7.1798,-7.2863,3.1451,3.0308,2.9441,2.9173,2.8921,2.8592,2.7979,2.7762,2.717,2.5076,2.4421,2.352,2.1701,2.0607,1.924,1.7334,1.6,1.449,1.2324,1.0856,0.9915,0.9764,0.9787,0.8824,0.6422,0.2408,-0.0,-0.0,-0.3061,-0.6237,-0.9392,-0.9469,-0.9496,-0.9605,-0.9852,-1.0708,-1.2249,-1.3648,-1.5121,-1.666,-1.8091,-1.8851,-1.8918,-2.0427,-2.2545,-2.4966,-2.5811,-2.6933,-2.8301,-2.8301,-2.8301,-2.8301,-2.8301,-2.8301,-2.8388,-2.9408,-2.9702,-2.9618,-2.8601,-2.868,-2.9546,-3.2257,-3.3685,-3.4704,-3.7392,-3.8642,-3.9094,-3.9094,-3.9396,-3.9697,-3.9697,-3.9697,-3.9697,-3.9697,-3.9697,-4.0083,-4.1319,-4.2235,-4.3887,-4.7318,-4.8723,-4.9634,-5.0979,-5.1033,-5.0574,-4.9674,-4.8802,-4.8536,-4.9316,-5.0581,-5.2081,-5.3652,-5.3991,-5.4025,-5.3822,-5.3991,-5.4431,-5.5141,-5.5209,-5.5852,-5.734,-5.8171,-5.9352,-6.0982,-6.3382,-6.5386,-6.7078,-6.9331,-7.0844,-7.1651,-7.2239,-7.3377,2.8746,2.7243,2.6309,2.8198,2.8511,2.8466,2.873,2.916,2.8671,2.5524,2.4845,2.3943,2.0805,2.0214,1.9094,1.5866,1.537,1.406,1.0564,1.0053,0.9992,0.9849,0.9822,0.9721,0.9645,0.3762,-0.0,-0.0,-0.3078,-0.6386,-0.9666,-0.9632,-0.9605,-0.9612,-1.1114,-1.2436,-1.3406,-1.5043,-1.6587,-1.7955,-1.8357,-1.8651,-1.8931,-2.0771,-2.2461,-2.3917,-2.548,-2.6933,-2.8301,-2.8301,-2.8301,-2.8301,-2.8301,-2.8301,-2.8301,-2.8408,-2.8388,-2.8388,-2.8281,-2.948,-3.1296,-3.2679,-3.4762,-3.6956,-3.8413,-3.922,-3.9672,-3.9672,-3.9672,-3.9697,-3.9697,-3.9697,-3.9697,-3.9697,-3.9697,-4.0083,-4.1319,-4.3943,-4.6392,-4.776,-5.0424,-5.2345,-5.1895,-5.1375,-5.0728,-5.0275,-5.0506,-5.0762,-5.0847,-5.2699,-5.4137,-5.4565,-5.5209,-5.5344,-5.4634,-5.5243,-5.5953,-5.6697,-5.6731,-5.7408,-5.8896,-5.9803,-6.1051,-6.2543,-6.5027,-6.715,-6.8739,-7.0464,-7.1688,-7.2459,-7.2496,-7.3377,3.009,2.9168,2.8532,2.874,2.9016,2.8939,2.794,2.8048,2.7517,2.4205,2.3557,2.2825,2.0591,2.0227,1.9107,1.5628,1.5499,1.4473,1.087,1.0344,1.0249,1.0005,0.9971,0.9958,0.9787,0.6485,0.5,0.6381,0.0121,-0.4349,-0.5471,-0.8153,-0.9747,-0.9747,-1.095,-1.2259,-1.3585,-1.4942,-1.6501,-1.8343,-1.8838,-1.9118,-1.9225,-1.9883,-2.1487,-2.3822,-2.4378,-2.5936,-2.8301,-2.8301,-2.8301,-2.8301,-2.8301,-2.8457,-2.8672,-2.8398,-2.8652,-2.9101,-2.8809,-2.9742,-3.1423,-3.3409,-3.534,-3.718,-3.886,-3.9546,-3.9697,-3.9697,-3.9697,-3.9697,-3.9697,-3.9697,-3.9697,-3.9697,-4.0645,-4.197,-4.3237,-4.5909,-4.8715,-5.1256,-5.2549,-5.3323,-5.3608,-5.3513,-5.3533,-5.4058,-5.2886,-5.2203,-5.2921,-5.4245,-5.5194,-5.5274,-5.5581,-5.5818,-5.6055,-5.6292,-5.6968,-5.8186,-5.8254,-5.8693,-5.9708,-6.1074,-6.237,-6.3471,-6.5949,-6.8005,-6.9697,-7.0767,-7.1725,-7.2496,-7.3046,-7.3854,3.1113,3.0381,2.9561,2.9439,2.9707,2.9812,2.8744,2.8217,2.7169,2.4411,2.3291,2.22,2.0334,2.0,1.8816,1.539,1.5132,1.4295,1.0842,1.029,1.0202,1.0066,0.9998,0.9951,0.9787,0.8581,0.8332,0.9698,0.1714,-0.4032,-0.5517,-0.8216,-0.9774,-0.9666,-1.0918,-1.2373,-1.3688,-1.4954,-1.655,-1.8504,-1.8985,-1.9265,-1.9372,-1.9372,-2.1045,-2.3822,-2.3822,-2.5498,-2.8301,-2.8301,-2.8301,-2.8301,-2.8301,-2.8457,-2.8672,-2.8555,-2.8867,-2.9407,-2.9639,-3.0909,-3.2661,-3.4751,-3.6496,-3.8118,-3.9365,-3.9697,-3.9697,-3.9697,-3.9697,-3.9697,-3.9697,-3.9697,-3.9825,-4.0619,-4.1719,-4.3264,-4.5638,-4.8115,-5.0845,-5.3648,-5.4724,-5.5096,-5.515,-5.5031,-5.5454,-5.6803,-5.5618,-5.4868,-5.5406,-5.6303,-5.6799,-5.6528,-5.6968,-5.7374,-5.7577,-5.7848,-5.8389,-5.9336,-5.9404,-5.9742,-6.0486,-6.2156,-6.3618,-6.468,-6.7245,-6.918,-7.055,-7.1358,-7.2165,-7.2936,-7.345,-7.4294,3.1772,3.0642,2.9219,3.0019,3.0566,3.0898,3.0762,2.953,2.7688,2.5727,2.3826,2.1979,2.0142,1.9519,1.8273,1.5074,1.4629,1.3528,1.0418,0.9951,0.991,1.0032,0.993,0.9863,0.9781,0.9754,0.9499,0.8823,0.0,-0.5018,-0.9271,-0.9727,-0.9693,-0.9415,-1.1036,-1.2569,-1.3739,-1.5285,-1.6869,-1.849,-1.8798,-1.9092,-1.9372,-1.9372,-2.1045,-2.3822,-2.3822,-2.5498,-2.8301,-2.8301,-2.8301,-2.8301,-2.8301,-2.8301,-2.8379,-2.8769,-2.8945,-2.9293,-3.0764,-3.2705,-3.4871,-3.6378,-3.8167,-3.9747,-3.9747,-3.9747,-3.9747,-3.9747,-3.9722,-3.9697,-3.9722,-3.9825,-4.0363,-4.218,-4.2717,-4.3993,-4.8265,-5.0559,-5.2629,-5.4972,-5.6813,-5.7581,-5.6426,-5.6059,-5.644,-5.8312,-5.8573,-5.8428,-5.8079,-5.8626,-5.8795,-5.8084,-5.9268,-5.9844,-5.9201,-5.9776,-6.0182,-6.0216,-6.0216,-6.0554,-6.1375,-6.3032,-6.4711,-6.6199,-6.8777,-7.0513,-7.1358,-7.2165,-7.2973,-7.3744,-7.378,-7.4625,3.3049,3.1835,3.043,3.0664,3.0801,3.0528,2.9275,2.7811,2.6044,2.3888,2.1685,2.0007,1.9031,1.8945,1.8045,1.4816,1.4891,1.4103,1.0877,1.0446,1.0378,1.0086,1.012,1.0093,0.9801,0.9842,0.5746,0.0,-0.2303,-0.2051,-0.477,-0.8088,-0.9788,-0.9713,-1.1051,-1.2579,-1.3969,-1.6726,-1.8276,-1.8504,-1.9011,-1.9292,-1.9372,-1.9372,-2.1045,-2.3822,-2.3822,-2.5498,-2.8301,-2.8301,-2.8301,-2.8301,-2.8301,-2.8476,-2.8769,-2.8887,-2.9959,-3.1698,-3.3203,-3.4111,-3.4916,-3.6697,-3.8624,-4.03,-4.03,-4.03,-4.03,-4.03,-4.0023,-3.9798,-4.0199,-4.108,-4.2105,-4.2963,-4.5111,-4.7549,-4.9998,-5.2683,-5.5281,-5.7296,-5.8071,-5.8117,-5.7239,-5.7493,-5.8214,-5.9477,-5.9665,-5.9641,-5.9573,-5.9708,-5.9742,-5.9573,-5.9877,-6.0283,-6.0689,-6.0892,-6.1231,-6.1772,-6.1806,-6.2225,-6.3039,-6.4146,-6.5504,-6.7177,-6.9143,-7.077,-7.2202,-7.301,-7.3817,-7.4625,-7.5212,-7.5726,3.316,3.2138,3.0898,3.0898,3.0898,3.0548,2.9179,2.7651,2.5965,2.4269,2.2189,2.0477,1.9439,1.9276,1.8236,1.4613,1.4451,1.3871,1.0877,1.0412,1.0358,1.0175,1.0168,1.0107,0.9801,0.8945,0.3282,-0.8922,-0.377,-0.1815,-0.5876,-0.8459,-0.9795,-0.9727,-1.0472,-1.1896,-1.3989,-1.7224,-1.8838,-1.8691,-1.9145,-1.9372,-1.9372,-1.9372,-2.1045,-2.3822,0.0,-2.5498,-2.8301,-2.8301,-2.8301,-2.832,-2.8496,-2.8711,-2.8965,-2.9336,-3.0752,-3.2627,-3.436,-3.5296,-3.6117,-3.7935,-3.9223,-4.0149,-4.0149,-4.0149,-4.0149,-4.0149,-4.0099,-4.0228,-4.1209,-4.2162,-4.3451,-4.5477,-4.7783,-5.0258,-5.3006,-5.5366,-5.7429,-5.894,-5.9164,-5.9164,-5.9097,-5.9698,-6.0437,-6.1018,-6.167,-6.1975,-6.1637,-6.1028,-6.0757,-6.1061,-6.14,-6.1772,-6.2245,-6.255,-6.2922,-6.3328,-6.3767,-6.4236,-6.4689,-6.5958,-6.7303,-6.8667,-6.9931,-7.1431,-7.3046,-7.3487,-7.4294,-7.5432,-7.5909,-7.6276,3.2591,3.2018,3.0898,3.0898,3.0898,3.0664,2.9766,2.8295,2.6762,2.5631,2.3819,2.198,2.0332,2.0091,1.8833,1.4745,1.4405,1.3599,1.1024,1.0559,1.0378,1.0263,1.0141,0.9888,0.9794,0.7906,0.2414,-0.7787,-0.3552,-0.3173,-0.9477,-0.9836,-0.9754,-0.9612,-0.9863,-1.1184,-1.3818,-1.7074,-1.8731,-1.8931,-1.9225,-1.9372,-1.9372,-1.9372,-2.1045,-2.3822,-2.3822,0.0,-2.8301,-2.8301,-2.832,-2.8418,-2.8769,-2.8945,-2.9101,-3.0108,-3.1401,-3.298,-3.489,-3.6642,-3.8128,-3.9283,-3.9747,-3.9798,-3.9798,-3.9798,-3.9823,-3.9898,-4.0304,-4.1154,-4.2548,-4.3557,-4.5146,-4.885,-5.0728,-5.2672,-5.6335,-5.8181,-5.9438,-6.0401,-6.0622,-6.0892,-6.1501,-6.2212,-6.2685,-6.2685,-6.3768,-6.441,-6.3869,-6.2584,-6.1975,-6.2618,-6.326,-6.3666,-6.3666,-6.4241,-6.4613,-6.4613,-6.5474,-6.6086,-6.616,-6.7843,-6.9307,-7.0335,-7.1048,-7.2312,-7.4001,-7.4001,-7.4771,-7.6276,-7.6276,-7.6644,3.3382,3.2261,3.0898,3.0898,3.0898,3.0664,2.9766,2.8295,2.6691,2.5394,2.3754,2.1916,2.003,1.9941,1.9203,1.6715,1.6283,1.5565,1.313,1.2426,1.1736,1.0404,1.0141,0.9888,0.9794,0.7856,0.4273,-0.1226,-0.2325,-0.4767,-0.9605,-0.9836,-0.9754,-0.9612,-1.1025,-1.2469,-1.3932,-1.6195,-1.7865,-1.8931,-1.9225,-1.9372,-1.9372,-1.9372,-2.1045,-2.3822,-2.3822,0.0,-2.8301,-2.8301,-2.8496,-2.8809,-2.8887,-2.9141,-2.9734,-3.142,-3.2916,-3.4508,-3.641,-3.8427,-3.996,-3.9744,-3.9998,-4.0375,-4.0375,-4.0375,-4.0475,-4.0927,-4.1567,-4.2601,-4.4335,-4.6503,-4.8977,-5.1609,-5.3307,-5.5184,-5.8437,-6.0984,-6.2683,-6.2843,-6.3396,-6.3666,-6.3226,-6.3734,-6.4208,-6.4208,-6.4444,-6.4783,-6.5256,-6.4546,-6.4072,-6.4208,-6.4343,-6.441,-6.441,-6.4546,-6.4613,-6.4613,-6.5474,-6.6345,-6.7024,-6.817,-6.9842,-7.2007,-7.2218,-7.3413,-7.5689,-7.5689,-7.6166,-7.7121,-7.7121,-7.7194,3.2241,3.16,3.0898,3.0898,3.0703,3.0234,2.916,2.8167,2.7037,2.5609,2.4684,2.3423,2.1113,2.0767,1.9894,1.6798,1.6229,1.5365,1.3164,1.2465,1.1697,1.051,1.0141,0.9888,0.9794,0.8873,0.6006,0.0368,-0.2078,-0.5255,-0.9585,-0.9754,-0.968,-0.9612,-1.1028,-1.2472,-1.4104,-1.5817,-1.7461,-1.9158,-1.9305,-1.9372,-1.9488,-2.0141,-2.1919,-2.4215,-2.4795,0.0,-2.8945,-2.8711,-2.8867,-2.9277,-2.9492,-2.9707,-3.0167,-3.2014,-3.3723,-3.5215,-3.7261,-3.9038,-4.0526,-4.0551,-4.0727,-4.0953,-4.0953,-4.0953,-4.1084,-4.216,-4.284,-4.401,-4.6688,-4.8594,-5.0534,-5.3789,-5.6524,-5.9046,-6.1201,-6.2939,-6.4072,-6.4072,-6.4377,-6.4478,-6.414,-6.4681,-6.5155,-6.5155,-6.5831,-6.644,-6.6779,-6.6914,-6.6474,-6.529,-6.5155,-6.5155,-6.5155,-6.5527,-6.5943,-6.6439,-6.7377,-6.8329,-6.922,-7.0625,-7.1925,-7.312,-7.356,-7.4515,-7.6093,-7.6093,-7.6533,-7.7304,-7.7304,-7.7304,3.1035,3.1035,3.0996,3.0918,3.0547,2.9863,2.8574,2.7969,2.7305,2.6016,2.5742,2.4922,2.2165,2.1677,2.0442,1.6993,1.6148,1.5142,1.319,1.2873,1.2172,1.044,1.0343,1.0341,0.9787,0.9117,0.6128,-0.0245,-0.3182,-0.6237,-0.9572,-0.9652,-0.9578,-0.9605,-1.0517,-1.2091,-1.4381,-1.5396,-1.7146,-1.9372,-1.9372,-1.9372,-1.9475,-2.0916,-2.2663,-2.4578,-2.5657,0.0,0.0,-2.9101,-2.9238,-2.9726,-3.0059,-3.0463,-3.1037,-3.2952,-3.458,-3.6173,-3.8119,-3.9643,-4.0927,-4.1379,-4.143,-4.1329,-4.1329,-4.1544,-4.2076,-4.3415,-4.4514,-4.5983,-4.9109,-5.0639,-5.2397,-5.6311,-5.9846,-6.2716,-6.3944,-6.4546,-6.4918,-6.5256,-6.5324,-6.5324,-6.5324,-6.5933,-6.6406,-6.6406,-6.7421,-6.8166,-6.8166,-6.8707,-6.8402,-6.6609,-6.6271,-6.617,-6.617,-6.6758,-6.7454,-6.8111,-6.9314,-7.0332,-7.1095,-7.2778,-7.378,-7.3964,-7.4771,-7.5542,-7.635,-7.635,-7.668,-7.7304,-7.7304,-7.7304,3.1465,3.1465,3.1367,3.0996,3.0547,2.9863,2.8574,2.7969,2.7305,2.6016,2.5742,2.4922,2.2165,2.1478,2.0601,1.855,1.778,1.6795,1.4791,1.5397,1.4565,1.0521,1.1149,1.1421,0.9903,0.7113,0.3052,-0.2583,-0.6884,-0.9348,-0.9822,-0.9557,-0.9462,-0.9605,-0.9696,-1.1208,-1.4381,-1.4682,-1.634,-1.9372,-1.9372,-1.9372,-1.9475,-2.0916,-2.2663,-2.4578,-2.5657,0.0,0.0,-2.9101,-2.9394,-3.0137,-3.0176,-3.1325,-3.3014,-3.4493,-3.6351,-3.8299,-3.9816,-4.1046,-4.2007,-4.2057,-4.1756,-4.1329,-4.1329,-4.2237,-4.344,-4.4679,-4.6881,-4.928,-5.1366,-5.3644,-5.6435,-6.0272,-6.2782,-6.4768,-6.6203,-6.6034,-6.6,-6.732,-6.759,-6.759,-6.759,-6.8267,-6.8808,-6.8808,-6.891,-6.8977,-6.8977,-6.9045,-6.9011,-6.8808,-6.8132,-6.7692,-6.7692,-6.7924,-6.8146,-6.8189,-6.9918,-7.0995,-7.1095,-7.2778,-7.4037,-7.4808,-7.5579,-7.6387,-7.7194,-7.7194,-7.7268,-7.7304,-7.7304,-7.7304,3.1604,3.1523,3.1484,3.1309,3.0332,2.9219,2.8457,2.7559,2.668,2.5898,2.5742,2.5118,2.3285,2.1872,2.0571,1.9386,1.7805,1.6456,1.5554,1.5648,1.46,1.1526,1.1831,1.1679,1.0012,0.5028,-0.0487,-0.6556,-0.8618,-0.9666,-0.9564,-0.953,-0.9503,-0.9469,-1.0398,-1.2061,-1.4381,-1.5395,-1.7053,-1.9372,-1.9372,-1.9809,-2.0816,-2.258,-2.435,-2.6303,-2.7642,0.0,0.0,-2.9883,-3.0059,-3.0605,-3.0605,-3.1606,-3.3304,-3.4736,-3.6593,-3.8479,-3.9947,-4.1229,-4.2158,-4.2158,-4.2233,-4.2418,-4.3239,-4.3964,-4.4943,-4.7529,-4.9036,-5.0498,-5.3288,-5.647,-5.9497,-6.1819,-6.4236,-6.6102,-6.6677,-6.732,-6.7929,-6.8504,-6.8605,-6.8605,-6.8605,-6.8876,-6.9248,-6.9688,-6.9755,-6.9925,-7.0364,-7.0432,-7.0432,-7.0432,-6.935,-6.8829,-6.9481,-6.9578,-7.012,-7.1339,-7.2135,-7.2798,-7.3373,-7.4519,-7.5285,-7.5616,-7.6423,-7.7011,-7.7304,-7.7304,-7.7304,-7.7341,-7.7855,-7.8075,3.1752,3.1663,3.1484,3.1367,3.0117,2.8809,2.8398,2.7305,2.6269,2.582,2.5742,2.5333,2.3998,2.2132,2.0639,1.9743,1.7879,1.6432,1.594,1.5557,1.4503,1.209,1.2216,1.1414,0.8569,0.1468,-0.476,-0.9287,-0.9666,-0.9598,-0.9401,-0.9571,-0.9605,-0.9456,-1.1009,-1.2703,-1.4483,-1.5986,-1.7724,-1.9372,-1.9809,-2.0644,-2.185,-2.4137,-2.6005,-2.7646,-2.9029,0.0,0.0,-3.0391,-3.0469,-3.0898,-3.0898,-3.2092,-3.3845,-3.4958,-3.6812,-3.9175,-4.0358,-4.1379,-4.2183,-4.2359,-4.2966,-4.3797,-4.5262,-4.5795,-4.6567,-4.9592,-5.1508,-5.3139,-5.5895,-5.9381,-6.2393,-6.3384,-6.5411,-6.7218,-6.7455,-6.8166,-6.8876,-6.935,-6.9417,-6.9417,-6.9417,-6.962,-6.9925,-7.0432,-7.0534,-7.0703,-7.1244,-7.1312,-7.1367,-7.1688,-7.0822,-7.0412,-7.0891,-7.1245,-7.2082,-7.3441,-7.374,-7.4196,-7.4859,-7.5689,-7.6093,-7.6093,-7.69,-7.7304,-7.7304,-7.7304,-7.7304,-7.7341,-7.8185,-7.8934,3.2163,3.1842,3.1406,3.0996,2.9902,2.8809,2.8398,2.7305,2.6269,2.582,2.5742,2.5333,2.3998,2.2356,2.0816,1.9774,1.8245,1.6821,1.5861,1.5811,1.4789,1.1862,1.2179,1.0616,0.5395,-0.3902,-0.9734,-0.9786,-0.9774,0.0,-0.9552,-0.9673,-0.9754,-0.9612,-1.1073,-1.265,-1.4599,-1.6138,-1.7806,-1.9372,-2.0916,-2.175,-2.2281,-2.5275,-2.7205,-2.8046,0.0,0.0,0.0,-3.0391,-3.0469,-3.0898,-3.0898,-3.2664,-3.5288,-3.5288,-3.7486,-4.0601,-4.1128,-4.1681,-4.2258,-4.2785,-4.3907,-4.5262,-4.6682,-4.7509,-4.8534,-5.0526,-5.4401,-5.8338,-5.9529,-6.2418,-6.5061,-6.5581,-6.6812,-6.8098,-6.891,-6.847,-6.8368,-6.9891,-7.0161,-7.0161,-7.0161,-7.0804,-7.1312,-7.1312,-7.1312,-7.1312,-7.1312,-7.1312,-7.1688,-7.2666,-7.2797,-7.2485,-7.1758,-7.2798,-7.3441,-7.3507,-7.4384,-7.4918,-7.4918,-7.5689,-7.6093,-7.6093,-7.69,-7.7304,-7.7304,-7.7304,-7.7304,-7.7341,-7.8185,-7.9792,3.309,3.2332,3.1482,3.0942,2.92,2.7578,2.7441,2.666,2.5898,2.5762,2.5742,2.545,2.4833,2.2654,2.085,2.0616,1.8513,1.6523,1.5577,1.5705,1.4679,1.1862,0.9085,0.5843,0.1919,0.0,-0.9813,-0.9745,-0.9827,-0.97,-0.9408,-0.9571,-0.9652,-0.9612,-1.2242,-1.3986,-1.4599,-1.7337,-1.8881,-1.9372,-2.1133,-2.2651,-2.3795,-2.6119,-2.7881,0.0,0.0,0.0,0.0,-3.0605,-3.0762,-3.0898,-3.0898,-3.2664,-3.5333,-3.5669,-3.8005,-4.1103,-4.1279,-4.1957,-4.2907,-4.3609,-4.4304,-4.5529,-4.8341,-4.9336,-5.0213,-5.3549,-5.6506,-5.9249,-6.1303,-6.335,-6.5194,-6.6221,-6.7184,-6.8132,-6.8944,-6.9282,-6.9755,-7.077,-7.0973,-7.0973,-7.0973,-7.1142,-7.1312,-7.1312,-7.1312,-7.1312,-7.1312,-7.1917,-7.2414,-7.2797,-7.4005,-7.4724,-7.4474,-7.4829,-7.537,-7.6026,-7.6411,-7.657,-7.657,-7.679,-7.6937,-7.6937,-7.7194,-7.7304,-7.7304,-7.7304,-7.7892,-7.9029,-7.9874,-8.1682,3.3752,3.2729,3.1551,3.1042,2.927,2.7602,2.7114,2.6348,2.5684,2.5527,2.5488,2.5352,2.4902,2.2559,2.0732,2.0867,1.8581,1.6688,1.6193,1.5371,1.38,1.1093,0.8213,0.4691,0.0,-0.4838,-0.848,-0.9717,-0.9854,-0.9741,-0.9557,-0.9639,-0.9926,-1.0517,-1.3149,-1.4518,-1.4599,-1.7818,-1.9707,-2.0256,-2.2024,-2.365,-2.5405,-2.7137,-2.8482,0.0,0.0,0.0,0.0,-3.0703,-3.0898,-3.1015,-3.1556,-3.3191,-3.5443,-3.6287,-3.8527,-4.1053,-4.1254,-4.2233,-4.3573,-4.4254,-4.5633,-4.7515,-5.0702,-5.1871,-5.2752,-5.5927,-5.84,-6.0646,-6.268,-6.4796,-6.6556,-6.6745,-6.7827,-6.8842,-6.9045,-6.9688,-7.0398,-7.1176,-7.1312,-7.1312,-7.1312,-7.1312,-7.1312,-7.1312,-7.1312,-7.1312,-7.1312,-7.2228,-7.2962,-7.3332,-7.483,-7.5959,-7.633,-7.633,-7.6628,-7.7243,-7.7304,-7.7304,-7.7304,-7.7304,-7.7304,-7.7304,-7.7304,-7.7488,-7.7818,-7.8112,-7.9103,-8.0718,-8.1232,-8.2904,0.0,3.307,3.1882,3.1187,2.9905,2.8462,2.732,2.6269,0.0,2.5156,2.5039,2.4902,2.4492,2.2268,2.0537,2.057,1.8681,1.7101,1.6935,1.4741,1.2158,0.9531,0.8872,0.627,0.024,-0.3158,-0.6259,-0.9592,-0.9829,-0.9822,-0.9822,-0.9943,-1.0664,-1.2097,-1.381,-1.4621,-1.4718,-1.7923,-2.0141,-2.1472,-2.3183,-2.4949,-2.6547,-2.8138,-2.9141,0.0,0.0,0.0,0.0,-3.0684,-3.0898,-3.0995,-3.253,-3.3957,-3.553,-3.7012,-3.8892,-4.0651,-4.1254,-4.2699,-4.4336,-4.513,-4.7723,-5.0946,-5.3466,-5.48,-5.5802,-5.7695,-6.0139,-6.2418,-6.3758,-6.651,-6.8673,-6.732,-6.8571,-6.9925,-6.9316,-6.9722,-7.0398,-7.1176,-7.1312,-7.1312,-7.1312,-7.1312,-7.1312,-7.1312,-7.1312,-7.1312,-7.1401,-7.2313,-7.3402,-7.4345,-7.5334,-7.6336,-7.7243,-7.7304,-7.7304,-7.7304,-7.7304,-7.7341,-7.7414,-7.7414,-7.7451,-7.7488,-7.7488,-7.7928,-7.8772,-7.958,-8.0755,-8.2296,-8.2333,-8.3556,3.3146,0.0,3.1926,3.1275,2.9532,2.7819,0.0,2.6355,2.5195,2.5098,2.4805,2.4531,2.4434,2.2146,2.0334,2.052,1.8311,1.5921,1.4041,1.1815,0.9435,0.7031,0.6191,0.3329,-0.313,-0.4394,-0.6284,-0.9573,-0.9774,-0.9822,-0.9822,-1.102,-1.1856,-1.2217,-1.4893,-1.6434,-1.6492,-1.9523,-2.0702,-1.9924,-2.4119,-2.5656,-2.5048,-2.7659,-2.8965,0.0,0.0,0.0,-2.9785,-3.0566,-3.0898,-3.0995,-3.253,-3.3957,-3.5598,-3.7919,-3.977,-4.1279,-4.2258,-4.3598,-4.5236,-4.8033,-5.089,-5.3466,-5.46,-5.5797,-5.7143,-5.9538,-6.18,-6.3824,-6.5627,-6.7183,-6.8233,-6.8504,-6.8977,-6.9451,-6.9857,-7.006,-7.0398,-7.1176,-7.1312,-7.1312,-7.1312,-7.1312,-7.1312,-7.1312,-7.1312,-7.1634,-7.2364,-7.3821,-7.5023,-7.5405,-7.6911,-7.7814,-7.7316,-7.7304,-7.7304,-7.7304,-7.7304,-7.7598,-7.8259,-7.8295,-7.8589,-7.9176,-7.9213,-7.9617,-8.0461,-8.1232,-8.215,-8.3141,-8.3765,-8.4922,3.2139,3.2265,3.2074,3.1735,3.0237,2.8627,2.7543,2.6372,2.5358,2.4604,2.4297,2.4062,2.3867,2.1588,1.9843,2.0041,1.7509,1.4624,1.2385,1.1603,1.041,0.7979,0.2122,-0.3206,0.0,-0.7105,-0.7878,-0.9526,-1.047,-1.0868,-1.0786,-1.2406,-1.3646,-1.4351,-1.6692,-1.764,-1.6962,-2.0085,-2.1586,-2.1487,-2.4821,-2.637,-2.626,-2.7943,-2.873,0.0,0.0,0.0,-2.9922,-3.0605,-3.0898,-3.1112,-3.3304,-3.4758,-3.6024,-3.8694,-4.0582,-4.189,-4.3099,-4.5209,-4.7799,-5.0324,-5.2497,-5.4401,-5.5359,-5.7218,-5.9286,-6.1342,-6.3042,-6.4829,-6.6828,-6.7861,-6.847,-6.8538,-6.935,-7.0128,-7.0195,-7.0466,-7.0838,-7.1244,-7.1312,-7.1312,-7.1312,-7.1312,-7.1413,-7.1751,-7.2165,-7.2846,-7.3718,-7.5571,-7.6732,-7.6872,-7.8224,-7.8809,-7.7965,-7.7892,-7.7745,-7.7341,-7.7708,-7.8112,-7.8589,-7.8956,-7.936,-7.9764,-8.0167,-8.0755,-8.1562,-8.237,-8.3361,-8.4499,-8.4939,-8.5795,3.126,3.153,3.1769,3.197,3.0985,2.9514,2.7489,2.6334,2.5378,2.4047,2.373,2.3504,2.3017,2.1032,1.9504,1.9369,1.6464,1.3591,1.1463,1.221,1.2185,1.0011,-0.0941,0.0,-0.8842,-0.9483,-0.9802,-0.9912,-1.1311,-1.226,-1.2334,-1.4025,-1.5666,-1.7301,-1.8777,-1.9123,-1.8002,-2.0873,-2.2814,-2.3822,-2.5608,-2.6933,-2.796,-2.8252,-2.8574,-2.8945,0.0,0.0,-3.0234,-3.0703,-3.0995,-3.1556,-3.4202,-3.5824,-3.6809,-3.9594,-4.1279,-4.2486,-4.4071,-4.7094,-5.0469,-5.1892,-5.3324,-5.473,-5.5957,-5.8758,-6.169,-6.3004,-6.4365,-6.5802,-6.7738,-6.8741,-6.9113,-6.8538,-6.9891,-7.1142,-7.05,-7.0872,-7.1312,-7.1312,-7.1312,-7.1345,-7.1447,-7.1481,-7.1718,-7.2462,-7.3498,-7.449,-7.5199,-7.7103,-7.8384,-7.8415,-7.9304,-7.947,-7.8662,-7.8479,-7.8148,-7.7561,-7.8185,-7.8699,-7.8956,-7.9727,-8.0167,-8.0167,-8.0975,-8.1746,-8.2553,-8.3361,-8.4535,-8.5967,-8.5967,-8.6334,3.0608,3.0089,2.977,3.1174,2.9891,2.8203,2.7854,2.5853,2.4137,2.3898,2.3496,2.2967,2.2335,2.0888,1.9571,1.8931,1.5651,1.2782,0.0,0.0,0.9987,0.9312,0.0,-0.2414,-0.4604,-0.7867,-1.0315,-1.1703,0.0,-1.28,-1.4074,-1.5762,-1.7289,-1.8764,-2.0401,-2.1669,-2.2798,-2.4471,-2.482,-2.3822,-2.6608,-2.7403,-2.6499,-2.809,-2.8848,-2.8965,0.0,-3.0137,-3.0234,-3.0703,-3.1652,-3.2964,-3.4626,-3.6351,-3.82,-4.036,-4.1605,-4.2645,-4.5654,-4.8173,-5.0527,-5.2426,-5.4311,-5.6017,-5.6735,-6.0121,-6.3805,-6.4606,-6.6067,-6.7858,-6.9451,-6.9925,-7.0161,-7.0669,-7.1075,-7.1278,-7.1176,-7.1244,-7.1312,-7.1312,-7.1312,-7.1515,-7.2124,-7.2225,-7.2462,-7.3206,-7.4253,-7.5332,-7.6261,-7.8091,-7.9351,-7.9544,-7.97,-7.947,-7.8662,-7.7928,-7.7781,-7.8369,-7.8516,-7.9213,-8.0571,-8.1415,-8.1819,-8.1819,-8.2627,-8.3434,-8.4242,-8.5049,-8.5894,-8.6811,-8.6811,-8.6885,2.9322,2.8867,2.8512,2.8668,2.818,2.745,2.6846,2.5438,2.419,2.3526,2.2713,2.2073,2.1952,2.0229,1.8148,1.5971,0.0,1.1672,1.0266,0.947,0.7874,0.0,0.0,-0.3831,-0.6841,-0.9486,-1.135,-1.2073,0.0,0.0,-1.5704,-1.8147,-1.9842,-2.0516,-2.2783,-2.4378,-2.5041,-2.6499,-2.6499,-2.5041,-2.7503,-2.8172,-2.7295,-2.8385,-2.9043,-2.9297,0.0,-3.0137,-3.0701,-3.1667,-3.253,-3.3304,-3.5595,-3.7411,-3.9005,-4.1335,-4.329,-4.5129,-4.6955,-4.9449,-5.2004,-5.3307,-5.485,-5.6286,-5.6915,-6.0152,-6.3773,-6.4863,-6.6845,-6.8808,-6.9891,-7.0195,-7.0263,-7.0635,-7.1007,-7.1312,-7.1312,-7.1312,-7.1312,-7.1312,-7.1616,-7.1988,-7.2326,-7.2732,-7.324,-7.3984,-7.55,-7.683,-7.7735,-7.972,-8.1021,-8.1122,-8.1085,-8.0755,-7.9984,-7.9543,-7.9286,-7.925,-7.9653,-8.0608,-8.2223,-8.2663,-8.3067,-8.3471,-8.3875,-8.4462,-8.5233,-8.56,-8.6224,-8.6995,-8.6995,-8.6995,2.8767,2.8108,2.7522,2.673,2.6585,2.6513,2.5571,2.4778,2.3834,2.2997,2.1896,2.0989,2.0551,1.8464,1.5882,1.3009,1.2024,1.107,0.9394,0.9129,0.6691,0.0118,-0.39,-0.7075,-0.9585,-1.1269,-1.2269,0.0,0.0,0.0,-1.7383,-1.9745,-2.1358,-2.2153,-2.4462,-2.6026,-2.6608,-2.7822,-2.7822,-2.6608,-2.8052,-2.8613,-2.832,-2.8828,-2.9258,-2.959,-2.9785,-3.0482,-3.1556,-3.2644,-3.3508,-3.4403,-3.6712,-3.8503,-4.0134,-4.2401,-4.4935,-4.7398,-4.811,-5.0513,-5.3533,-5.4221,-5.5329,-5.6496,-5.7154,-6.0003,-6.3383,-6.4764,-6.7119,-6.9334,-7.0208,-7.0466,-7.0466,-7.0466,-7.0906,-7.1312,-7.1312,-7.1312,-7.1312,-7.1312,-7.1887,-7.2462,-7.2631,-7.3274,-7.4018,-7.4762,-7.6694,-7.8275,-7.8912,-8.0911,-8.2186,-8.2186,-8.2039,-8.1599,-8.0791,-8.0901,-8.0755,-8.0094,-8.0645,-8.1746,-8.3361,-8.3398,-8.3801,-8.4572,-8.4792,-8.5159,-8.5783,-8.5967,-8.6407,-8.6995,-8.6995,-8.6995,2.9702,2.8211,2.6565,2.6483,2.5735,2.4914,2.4829,2.3398,2.1971,2.1897,2.1122,1.9702,1.7077,1.4612,1.2675,1.1585,1.1776,1.1537,0.9947,0.0,0.7342,0.0719,-0.5593,-0.9496,-0.9734,-1.1269,0.0,0.0,0.0,0.0,-1.91,-1.9461,-2.0816,-2.3599,-2.4265,-2.5758,-2.8067,-2.8563,-2.8563,-2.8174,-2.832,-2.832,-2.832,-2.9141,-2.9551,-2.9609,-3.043,-3.1592,-3.2964,-3.3077,-3.4714,-3.7287,-3.8,-3.9734,-4.2098,-4.3338,-4.5538,-4.8138,-4.8613,-5.1173,-5.4251,-5.491,-5.5987,-5.7154,-5.7842,-6.035,-6.3433,-6.4853,-6.7135,-6.95,-7.0906,-7.1244,-7.1244,-7.1244,-7.1278,-7.1312,-7.1312,-7.1312,-7.1312,-7.1312,-7.1887,-7.2631,-7.3274,-7.4018,-7.4796,-7.5506,-7.7494,-7.8912,-7.8983,-8.0911,-8.2186,-8.2186,-8.1525,-8.0755,-7.9947,-8.0571,-8.0975,-8.0938,-8.0975,-8.1746,-8.3361,-8.3398,-8.3801,-8.4572,-8.5306,-8.5747,-8.5783,-8.6554,-8.6958,-8.6995,-8.6995,-8.6995,2.8949,2.7626,2.6318,2.563,2.4553,2.3714,2.3714,2.2725,2.1769,2.15,2.0251,1.8385,1.5793,1.3267,1.1612,1.1652,1.1086,1.0514,0.9898,0.3096,-0.2026,-0.2719,-0.6669,-0.9856,-1.1105,0.0,0.0,0.0,0.0,0.0,-1.9372,-2.0256,-2.1259,-2.2363,-2.4418,-2.5988,-2.6933,-2.7987,-2.8457,-2.8301,-2.8555,-2.8535,-2.832,-2.8906,-2.9316,-2.9702,-3.0893,-3.2126,-3.3304,-3.5046,-3.665,-3.8156,-4.0025,-4.132,-4.2258,-4.3011,-4.4779,-4.6948,-4.8511,-5.0739,-5.3173,-5.5113,-5.6376,-5.7304,-5.8411,-6.0806,-6.3443,-6.5294,-6.7427,-6.9504,-7.0882,-7.1312,-7.1312,-7.1312,-7.1312,-7.1312,-7.1312,-7.1312,-7.1447,-7.1887,-7.2563,-7.3443,-7.4661,-7.51,-7.554,-7.6318,-7.7911,-7.8983,-7.8983,-8.0911,-8.2186,-8.2186,-8.237,-8.237,-8.2076,-8.2774,-8.303,-8.2517,-8.2039,-8.248,-8.4095,-8.4168,-8.4756,-8.6077,-8.6407,-8.6554,-8.6554,-8.6848,-8.6995,-8.6995,-8.6995,-8.6995,2.8548,2.7163,2.5859,2.5185,2.3745,2.2492,2.2492,2.1917,2.1188,2.0525,1.8474,1.6034,1.3914,1.1695,1.0325,0.0,1.0077,0.9634,0.9771,-0.0936,-0.8137,-0.6183,-0.7846,-0.969,-1.1106,0.0,0.0,0.0,0.0,0.0,0.0,-2.0371,-2.1145,-2.1586,-2.3713,-2.529,-2.6045,-2.7191,-2.7968,-2.8301,-2.8574,-2.8574,-2.8301,-2.873,-2.9361,-3.0329,-3.1532,-3.2895,-3.4604,-3.6703,-3.8203,-3.9491,-4.1429,-4.2258,-4.2484,-4.3037,-4.4549,-4.6398,-4.8056,-5.0281,-5.274,-5.5024,-5.6422,-5.7393,-5.8949,-6.088,-6.2901,-6.4997,-6.7024,-6.8894,-7.0263,-7.1007,-7.1312,-7.1312,-7.1312,-7.1312,-7.1312,-7.1481,-7.1819,-7.2293,-7.3172,-7.4153,-7.5168,-7.5743,-7.6284,-7.6826,-7.8537,-7.9727,-7.9727,-8.1635,-8.2957,-8.2957,-8.3471,-8.3801,-8.3801,-8.4278,-8.4389,-8.3838,-8.3251,-8.3434,-8.4535,-8.4829,-8.5637,-8.6995,-8.6995,-8.6995,-8.6995,-8.6995,-8.6995,-8.6995,-8.6995,-8.6995,2.8748,2.6863,2.4914,2.5429,2.3378,2.1284,2.1284,2.0788,1.999,1.8754,1.5431,1.2402,1.0949,0.9429,0.8348,0.8608,0.8798,0.9017,0.9609,-0.1045,-0.8819,-0.8889,-0.9096,-0.9339,0.0,0.0,0.0,0.0,0.0,0.0,0.0,-1.9372,-2.004,-2.1586,-2.2,-2.3488,-2.6045,-2.646,-2.7252,-2.8301,-2.8301,-2.8301,-2.8301,-2.873,-2.9997,-3.1843,-3.2285,-3.436,-3.7477,-3.7477,-3.9004,-4.1404,-4.1957,-4.2509,-4.3037,-4.3589,-4.514,-4.7007,-4.7476,-5.0023,-5.3164,-5.4432,-5.5869,-5.7453,-5.9488,-6.0565,-6.1558,-6.358,-6.5586,-6.747,-6.8894,-7.0263,-7.1312,-7.1312,-7.1312,-7.1312,-7.1312,-7.1887,-7.2394,-7.2428,-7.3612,-7.4627,-7.4661,-7.5912,-7.6927,-7.6927,-7.9441,-8.1284,-8.1284,-8.3265,-8.4609,-8.4609,-8.4609,-8.4609,-8.4609,-8.4609,-8.4609,-8.4609,-8.4609,-8.4609,-8.4609,-8.538,-8.6187,-8.6995,-8.6995,-8.6995,-8.6995,-8.6995,-8.6995,-8.6995,-8.6995,-8.6995,2.8013,2.6456,2.4653,2.3557,2.2035,2.0519,1.9082,1.8754,1.8237,1.6469,1.3421,1.1173,1.1209,0.9766,0.0,0.8181,0.8587,0.6028,-0.2249,-0.4757,-0.6586,-0.8706,-0.895,-0.9469,0.0,0.0,0.0,0.0,0.0,0.0,0.0,-1.9372,-1.9591,-2.004,-2.2131,-2.3697,-2.4488,-2.6737,-2.7968,-2.8301,-2.8301,-2.8301,-2.8301,-2.9444,-3.0532,-3.193,-3.405,-3.5888,-3.7631,-3.9389,-4.06,-4.143,-4.2359,-4.2836,-4.3037,-4.3589,-4.4485,-4.5451,-4.7136,-4.8599,-5.0402,-5.3746,-5.5192,-5.6201,-5.9696,-6.0954,-6.1649,-6.4087,-6.5996,-6.747,-6.8894,-7.0263,-7.1312,-7.1312,-7.1312,-7.1447,-7.1954,-7.2259,-7.2699,-7.3747,-7.4728,-7.5709,-7.6792,-7.7367,-7.7841,-7.8382,-7.9349,-8.0646,-8.2206,-8.37,-8.4609,-8.4609,-8.5123,-8.5416,-8.5416,-8.5967,-8.6297,-8.6297,-8.6297,-8.604,-8.5453,-8.5673,-8.6187,-8.6995,-8.6995,-8.6995,-8.6995,-8.6995,-8.6995,-8.6995,-8.6995,-8.6995,2.7478,2.5758,2.384,2.3162,2.1577,1.9485,1.6771,1.6389,1.6143,1.4379,1.2103,1.0347,1.0286,0.83,0.0,0.7842,0.6551,0.2067,-0.7564,-0.7343,-0.6895,-0.8739,-0.8954,-0.9321,0.0,0.0,0.0,0.0,0.0,0.0,0.0,-1.9305,-1.9319,-1.9199,-2.1639,-2.3199,-2.3607,-2.6191,-2.7726,-2.8301,-2.8301,-2.8379,-2.8535,-2.9353,-3.0787,-3.277,-3.5375,-3.73,-3.855,-4.0533,-4.1329,-4.1455,-4.2534,-4.2986,-4.3037,-4.3589,-4.4141,-4.481,-4.627,-4.7623,-4.9063,-5.2827,-5.4394,-5.5626,-5.9496,-6.0715,-6.1177,-6.3335,-6.5352,-6.7015,-6.8109,-6.9855,-7.1312,-7.1312,-7.1312,-7.1515,-7.2225,-7.2631,-7.3274,-7.4762,-7.5642,-7.6555,-7.7773,-7.8247,-7.8585,-7.9058,-8.0327,-8.1782,-8.3606,-8.4861,-8.5563,-8.5563,-8.6261,-8.6628,-8.6297,-8.7325,-8.7839,-8.7509,-8.7802,-8.7766,-8.7252,-8.6921,-8.6995,-8.7472,-8.7472,-8.7325,-8.6995,-8.7325,-8.7472,-8.7472,-8.7472,-8.7655,2.6831,2.4811,2.2695,2.3368,2.124,1.8087,1.4721,1.3854,1.359,1.2618,1.1207,0.9799,0.8596,0.5994,0.4759,0.6872,0.3158,-0.1926,-0.7328,-0.8553,-0.892,-0.894,-0.8933,-0.8974,-0.9117,0.0,0.0,0.0,0.0,0.0,-1.8865,-1.9158,-1.9199,-1.8931,-2.0757,-2.2336,-2.3452,-2.5322,-2.6933,-2.8301,-2.8301,-2.8623,-2.9124,-2.9124,-3.095,-3.4133,-3.6496,-3.8348,-3.9772,-4.0827,-4.1304,-4.1455,-4.2484,-4.2936,-4.3062,-4.3664,-4.4192,-4.4719,-4.5347,-4.677,-4.8716,-5.1604,-5.3473,-5.532,-5.8881,-5.9976,-6.0356,-6.1928,-6.4226,-6.6401,-6.7208,-6.9346,-7.1312,-7.1312,-7.1379,-7.1616,-7.2326,-7.3071,-7.4018,-7.5506,-7.6454,-7.7232,-7.7942,-7.8754,-7.9329,-7.9397,-8.1944,-8.4136,-8.5261,-8.6393,-8.7142,-8.7215,-8.7729,-8.7839,-8.7288,-8.85,-8.905,-8.8463,-8.905,-8.9491,-8.9638,-8.8793,-8.8316,-8.8316,-8.8316,-8.7949,-8.7215,-8.7949,-8.8316,-8.8316,-8.8316,-8.872,2.5238,2.4006,2.2571,2.0425,1.7447,1.4912,1.4064,1.236,1.0888,1.0786,0.98,0.882,0.8543,0.621,0.3824,0.1972,0.0729,-0.042,-0.1707,-0.578,-0.8648,-0.8893,-0.8777,-0.8818,-0.8967,0.0,0.0,0.0,0.0,0.0,-1.8571,-1.8865,-1.8985,-1.8931,-2.1759,-2.3454,-2.3706,-2.6463,-2.796,0.0,-2.8301,-2.914,-3.0594,-3.0594,-3.2616,-3.6132,-3.7086,-3.8348,-3.9747,-4.0425,-4.0953,-4.1404,-4.2057,-4.261,-4.3112,-4.4091,-4.4518,-4.4769,-4.5773,-4.644,-4.7291,-4.9877,-5.1871,-5.381,-5.7195,-5.9109,-6.0546,-6.2993,-6.4905,-6.6602,-6.8307,-7.0043,-7.1312,-7.1312,-7.1751,-7.236,-7.3105,-7.3849,-7.483,-7.6352,-7.7232,-7.801,-7.8754,-7.9972,-8.1021,-8.1596,-8.3856,-8.5513,-8.5771,-8.7036,-8.8169,-8.883,-8.7912,-8.7692,-8.8793,-8.861,-8.894,-9.0005,-8.9674,-8.9968,-9.1216,-8.9895,-8.916,-8.916,-8.916,-8.9087,-8.8904,-8.9087,-8.916,-8.916,-8.916,-8.9234,2.4866,2.3701,2.2291,1.9724,1.7412,1.5399,1.416,1.2328,1.0806,1.022,0.9127,0.8269,0.8221,0.7077,0.481,0.0717,-0.0,-0.0,-0.0,-0.3668,-0.6873,-0.8401,-0.8615,-0.8662,-0.8811,0.0,0.0,0.0,0.0,-1.8116,-1.8263,-1.8557,-1.8651,-1.8504,-2.1773,-2.3492,-2.3419,-2.6639,-2.8301,-2.8301,-2.8496,-2.9342,-3.0709,-3.1975,-3.387,-3.6117,-3.7015,-3.8348,-3.9747,-4.03,-4.0852,-4.1404,-4.1932,-4.266,-4.3463,-4.4317,-4.4794,-4.5146,-4.6024,-4.6301,-4.6667,-4.9113,-5.1161,-5.3243,-5.6022,-5.8385,-6.0596,-6.2994,-6.483,-6.6703,-6.873,-7.0263,-7.1413,-7.1751,-7.2124,-7.2597,-7.3341,-7.4356,-7.5574,-7.713,-7.801,-7.8855,-7.9972,-8.1088,-8.214,-8.3155,-8.4786,-8.6096,-8.6692,-8.7914,-8.8793,-8.883,-8.8757,-8.8757,-8.883,-8.9491,-9.0115,-9.0592,-9.0592,-9.0922,-9.1767,-9.0996,-9.0372,-9.0005,-8.9968,-8.9784,-8.9417,-8.9821,-8.9968,-8.9968,-8.9968,-9.0188,2.4767,2.3262,2.1534,1.9957,1.8303,1.6452,1.4351,1.2716,1.1268,1.019,0.8939,0.7865,0.7372,0.7284,0.5665,0.0808,-0.0,-0.0,-0.0,-0.226,-0.5072,-0.7928,-0.8354,-0.8506,-0.8655,0.0,0.0,0.0,0.0,-1.7943,-1.7889,-1.8223,-1.8277,-1.7969,-2.1496,-2.3253,-2.2955,-2.6579,-2.8301,-2.8301,-2.8789,-2.9434,-3.0309,-3.3001,-3.4558,-3.5398,-3.6595,-3.8137,-3.9722,-4.0199,-4.0752,-4.1379,-4.1831,-4.2685,-4.374,-4.4392,-4.492,-4.5422,-4.6075,-4.6301,-4.6617,-4.8536,-5.0685,-5.3017,-5.4884,-5.7605,-6.0615,-6.2879,-6.4753,-6.6703,-6.902,-7.0482,-7.1515,-7.2225,-7.2496,-7.28,-7.351,-7.4864,-7.6318,-7.7705,-7.8788,-7.9904,-8.1257,-8.2103,-8.3092,-8.435,-8.5505,-8.6745,-8.7977,-8.8982,-8.9417,-8.8867,-8.9784,-8.9968,-8.8904,-9.0519,-9.1363,-9.0849,-9.1436,-9.1803,-9.1803,-9.1803,-9.1473,-9.0812,-9.0812,-9.0482,-8.9821,-9.0482,-9.0812,-9.0812,-9.0812,-9.1179,2.3867,2.1621,1.9793,1.9571,1.6973,1.4351,1.3968,1.2037,1.0199,0.0,0.8924,0.7335,0.4922,0.4522,0.3519,0.0504,-0.0,-0.0,-0.0,-0.2322,-0.4976,-0.7698,-0.8213,-0.8357,-0.8499,-1.1247,0.0,0.0,-1.5858,-1.7528,-1.7288,-1.7796,-1.7956,-1.7649,-2.1356,-2.3386,-2.3319,-2.6602,-2.8301,-2.8301,-2.9101,-2.9726,-3.0329,-3.2354,-3.4004,-3.5288,-3.5508,-3.7156,-3.9697,-3.9772,-4.04,-4.1354,-4.143,-4.2108,-4.3212,-4.4242,-4.4669,-4.4895,-4.5949,-4.6301,-4.6401,-4.7172,-4.9798,-5.2903,-5.3601,-5.6791,-6.0832,-6.3987,-6.5596,-6.6902,-7.0189,-7.1188,-7.1515,-7.2225,-7.2868,-7.3544,-7.4289,-7.5676,-7.6995,-7.7841,-7.96,-8.1257,-8.2103,-8.2881,-8.4011,-8.5837,-8.7118,-8.8346,-8.9518,-9.0149,-9.0665,-9.1253,-9.0262,-9.0041,-9.1216,-9.0996,-9.1033,-9.1583,-9.173,-9.1803,-9.1803,-9.1803,-9.173,-9.1657,-9.1657,-9.1583,-9.1473,-9.1583,-9.1657,-9.1657,-9.1657,-9.1693,2.3654,2.1854,2.0296,1.9679,1.7732,1.5684,1.4256,1.2425,1.0877,1.019,0.8924,0.764,0.6448,0.382,0.1408,0.0202,-0.0,-0.0,-0.0,-0.2314,-0.5044,-0.7668,-0.8059,-0.8498,-0.9358,-1.1383,-1.3017,0.0,-1.5869,-1.7034,-1.6914,-1.7315,-1.7475,-1.7341,-2.086,-2.2888,-2.3087,-2.6305,-2.8184,-2.8652,-2.9277,-2.9785,-3.0215,-3.1337,-3.3098,-3.5288,-3.6162,-3.7713,-3.9697,-3.9697,-4.035,-4.1329,-4.1329,-4.2208,-4.3489,-4.3991,-4.4568,-4.5171,-4.5673,-4.605,-4.6401,-4.6954,-4.968,-5.2844,-5.3785,-5.7196,-6.1407,-6.476,-6.6273,-6.7519,-7.0507,-7.1312,-7.1616,-7.2732,-7.324,-7.3916,-7.554,-7.6758,-7.7976,-7.9532,-8.0953,-8.2137,-8.2881,-8.4148,-8.5673,-8.7211,-8.8491,-8.9641,-9.083,-9.1142,-9.1253,-9.1143,-9.0922,-9.0849,-9.1106,-9.1216,-9.1436,-9.1767,-9.1803,-9.2024,-9.2501,-9.2537,-9.2721,-9.3198,-9.2281,-9.1803,-9.1803,-9.1803,-9.206,-9.2537,-9.2537,-9.2758,2.3547,2.2208,2.1016,1.977,1.8596,1.7016,1.4447,1.2813,1.156,0.0,0.8924,0.8052,0.7985,0.4124,0.0804,0.0101,-0.0,-0.0,-0.0,-0.2314,-0.5027,-0.7679,-0.7959,-0.8478,-0.9485,-1.1344,-1.2846,-1.3926,-1.5632,-1.6673,-1.6607,-1.6941,-1.7114,-1.7034,-2.0457,-2.249,-2.2945,-2.6244,-2.8203,-2.8926,-2.9258,-2.9687,-3.0215,-3.0547,-3.2427,-3.5398,-3.6487,-3.8031,-3.9697,-3.9697,-4.0249,-4.1153,-4.1279,-4.2183,-4.3438,-4.3865,-4.4543,-4.5296,-4.5598,-4.5974,-4.6401,-4.6954,-4.968,-5.2899,-5.409,-5.7628,-6.1861,-6.5235,-6.662,-6.7838,-7.0809,-7.1582,-7.1954,-7.3409,-7.3916,-7.4627,-7.6724,-7.7739,-7.8955,-8.1322,-8.2343,-8.316,-8.4248,-8.5831,-8.734,-8.8526,-8.9474,-9.0443,-9.162,-9.1803,-9.1583,-9.0959,-9.1436,-9.1546,-9.0959,-9.1473,-9.1803,-9.1803,-9.1803,-9.217,-9.3051,-9.3088,-9.3492,-9.4263,-9.3051,-9.2317,-9.2134,-9.2134,-9.2464,-9.3088,-9.3308,-9.3712,2.3387,2.2208,2.1016,1.977,1.8596,1.7016,1.4447,0.0,1.156,1.0288,0.8924,0.8052,0.7985,0.5737,0.2914,0.0404,-0.0,-0.0,-0.0,-0.2314,-0.5027,-0.7679,-0.7959,-0.8045,-0.8144,-1.0671,-1.2384,-1.2494,-1.5132,-1.658,-1.6313,-1.6834,-1.7021,-1.674,-2.0333,-2.249,-2.2945,-2.6523,-2.8476,-2.8926,-2.8945,-2.9394,-3.0195,-3.0215,-3.2097,-3.5288,-3.5398,-3.7049,-3.9697,-3.9697,-4.0049,-4.0601,-4.1128,-4.1706,-4.2434,-4.3991,-4.4618,-4.4819,-4.5899,-4.6276,-4.6401,-4.6954,-4.968,-5.2899,-5.409,-5.7628,-6.1861,-6.5235,-6.662,-6.7935,-7.1446,-7.2326,-7.2699,-7.4187,-7.5067,-7.6014,-7.7604,-7.8517,-7.9828,-8.2492,-8.3642,-8.475,-8.6556,-8.7638,-8.8614,-8.976,-8.9924,-9.0443,-9.162,-9.1803,-9.1767,-9.173,-9.1767,-9.1767,-9.173,-9.1767,-9.1803,-9.1803,-9.1803,-9.217,-9.3051,-9.3088,-9.3492,-9.4263,-9.4189,-9.3786,-9.3015,-9.3015,-9.3051,-9.3125,-9.3859,-9.4263,2.282,2.2178,2.1182,1.9242,1.8629,1.7599,1.4365,1.2704,1.156,1.0288,0.8924,0.8052,0.7985,0.5837,0.3115,0.0404,-0.0,-0.0,-0.0,-0.2314,-0.5027,-0.7679,-0.7959,-0.8336,-0.9213,-1.0941,-1.2071,-1.2071,-1.4607,-1.5699,-1.4812,-1.613,-1.682,-1.6714,-1.9199,-2.1723,-2.4228,-2.6721,-2.8105,-2.8516,-2.8789,-2.9082,-2.9394,-2.9941,-3.1369,-3.3415,-3.3716,-3.6054,-3.9697,-3.9697,-4.0023,-4.0576,-4.1128,-4.1681,-4.2258,-4.3212,-4.4016,-4.4694,-4.5095,-4.5698,-4.6451,-4.733,-5.0206,-5.3652,-5.5142,-5.855,-6.2496,-6.59,-6.6972,-6.7967,-7.1479,-7.2394,-7.2766,-7.4255,-7.5912,-7.7333,-7.7874,-7.9166,-8.0725,-8.2647,-8.4262,-8.5455,-8.5764,-8.7817,-8.9306,-8.8928,-9.0168,-9.1324,-9.1694,-9.1803,-9.1803,-9.1803,-9.1803,-9.1803,-9.1803,-9.1803,-9.1803,-9.1803,-9.2317,-9.2758,-9.3088,-9.4116,-9.4777,-9.507,-9.507,-9.4666,-9.3859,-9.3859,-9.4153,-9.4666,-9.496,-9.5364,2.2389,2.182,2.0838,1.8939,1.824,1.7249,1.3989,1.252,1.1443,1.0095,0.8886,0.7959,0.7985,0.6559,0.4128,0.0605,-0.0,-0.0,-0.0,-0.2314,-0.5027,-0.7679,-0.7959,-0.8528,-0.9903,-1.117,-1.2037,-1.2522,0.0,0.0,-1.4555,-1.5888,-1.7182,-1.8369,-1.9713,-2.2072,-2.5414,-2.6949,-2.7812,-2.8086,-2.8516,-2.8789,-2.8945,-2.9668,-3.0942,-3.2406,-3.2868,-3.5266,-3.8921,-3.8921,-3.9457,-4.03,-4.1053,-4.1555,-4.2007,-4.3112,-4.3991,-4.4669,-4.507,-4.5799,-4.6849,-4.8197,-5.111,-5.4408,-5.65,-5.945,-6.2747,-6.5647,-6.6855,-6.8,-7.1275,-7.2827,-7.3883,-7.5405,-7.6893,-7.8179,-7.8923,-8.0088,-8.1474,-8.3062,-8.4647,-8.5842,-8.6183,-8.8346,-8.976,-8.8928,-9.0522,-9.1803,-9.1803,-9.1803,-9.1803,-9.1803,-9.1803,-9.1803,-9.1803,-9.1803,-9.1803,-9.1803,-9.2354,-9.2794,-9.3088,-9.4153,-9.4813,-9.5107,-9.5364,-9.5254,-9.4703,-9.4703,-9.4997,-9.5511,-9.5804,-9.6208,0.0,0.0,0.0,1.8631,1.7526,1.6125,1.3627,1.227,1.1114,0.981,0.8721,0.7972,0.7885,0.8006,0.6279,0.0909,-0.0,-0.0101,-0.0202,-0.2414,-0.5027,-0.7679,-0.7959,-0.8528,-0.9903,-1.117,-1.2425,-1.3776,-1.5045,-1.5832,-1.5737,-1.638,-1.8153,-2.1525,-2.2006,-2.3563,-2.6287,-2.7226,-2.7656,-2.7676,-2.8086,-2.8496,-2.8906,-2.9355,-3.0529,-3.2385,-3.2847,-3.4714,-3.7346,-3.7477,-3.8348,-3.9694,-4.0796,-4.1222,-4.1605,-4.379,-4.4618,-4.4794,-4.5899,-4.6652,-4.745,-4.961,-5.2215,-5.5082,-5.7854,-6.0323,-6.2551,-6.4518,-6.6048,-6.7824,-7.0732,-7.3536,-7.6082,-7.7604,-7.7976,-7.8585,-8.0784,-8.1291,-8.1868,-8.3832,-8.4847,-8.5994,-8.7811,-8.9257,-9.0078,-8.9924,-9.0984,-9.1803,-9.1803,-9.1803,-9.1803,-9.1803,-9.1803,-9.1803,-9.1803,-9.1803,-9.1803,-9.1803,-9.1803,-9.2207,-9.3015,-9.3125,-9.3492,-9.4263,-9.5107,-9.5511,-9.5547,-9.5547,-9.5547,-9.5547,-9.6355,-9.6685,2.0555,0.0,0.0,0.0,0.0,0.0,1.4441,1.2666,1.1321,1.1,0.9292,0.7438,0.6321,0.7178,0.6274,0.0907,-0.0,-0.1313,-0.5262,-0.4734,-0.5022,-0.7672,-0.7952,-0.8528,-0.9903,-1.117,-1.2037,0.0,-1.4567,-1.5439,-1.4459,-1.5875,-1.7374,-1.8679,-2.0735,-2.235,-2.346,-2.5956,-2.7344,-2.7676,-2.8086,-2.8359,-2.8476,-2.8906,-2.9538,-3.0418,-3.0857,-3.2313,-3.4403,-3.5508,-3.6811,-3.8234,-3.9298,-4.0414,-4.1555,-4.3363,-4.4292,-4.4719,-4.5472,-4.6326,-4.745,-4.961,-5.2485,-5.5639,-5.7997,-6.0617,-6.3153,-6.4672,-6.5436,-6.6575,-7.0531,-7.3536,-7.5946,-7.6961,-7.7604,-7.845,-8.0141,-8.1325,-8.2514,-8.3839,-8.5473,-8.6403,-8.6123,-8.8223,-8.976,-8.8841,-9.0443,-9.1803,-9.1803,-9.1803,-9.1803,-9.1803,-9.1803,-9.1803,-9.1803,-9.1803,-9.1803,-9.1803,-9.2391,-9.2574,-9.217,-9.3308,-9.4079,-9.4299,-9.5107,-9.5804,-9.6392,-9.6392,-9.6392,-9.6392,-9.6612,-9.6685,1.9542,1.8475,1.7334,1.6026,0.0,0.0,1.3879,1.2394,1.1129,1.0688,0.9076,0.7359,0.5712,0.6865,0.6274,0.0905,-0.0,-0.1918,-0.7202,-0.6665,-0.6242,-0.7772,-0.7952,-0.8726,-1.0583,-1.1463,-1.2339,-1.3403,-1.4949,-1.5543,-1.5083,-1.6117,-1.7461,-1.9287,-2.0829,-2.2367,-2.3741,-2.5869,-2.7148,-2.7402,-2.8008,-2.8301,-2.8301,-2.873,-2.916,-2.959,-3.0019,-3.1003,-3.2207,-3.3098,-3.4736,-3.6688,-3.8398,-3.9599,-4.0635,-4.3212,-4.4342,-4.4769,-4.5824,-4.6728,-4.7901,-5.0764,-5.338,-5.5981,-5.8784,-6.1079,-6.2919,-6.3923,-6.5328,-6.7272,-7.0597,-7.3335,-7.554,-7.6657,-7.7468,-7.8483,-8.0276,-8.1596,-8.2682,-8.3666,-8.5042,-8.5756,-8.5032,-8.6931,-8.8295,-8.7798,-8.9338,-9.0628,-9.0777,-9.0812,-9.0922,-9.1253,-9.1289,-9.1436,-9.1767,-9.1803,-9.1803,-9.1803,-9.2568,-9.2816,-9.2299,-9.356,-9.4243,-9.4243,-9.4994,-9.5811,-9.6629,-9.6984,-9.7137,-9.7137,-9.6877,-9.6685,1.8718,1.7188,1.5741,1.5545,1.4838,0.0,1.2772,1.1706,1.0745,0.9679,0.8653,0.7502,0.5902,0.6948,0.6358,0.1307,0.0201,-0.1816,-0.6888,-0.7798,-0.7992,-0.7972,-0.7952,-0.8924,-1.1463,-1.1853,-1.292,-1.5439,-1.5763,-1.6126,-1.6673,-1.674,-1.8196,-2.1322,-2.1643,-2.2868,-2.543,-2.6443,-2.6973,-2.7031,-2.7832,-2.8242,-2.8301,-2.8672,-2.9082,-2.9531,-2.9941,-3.0391,-3.082,-3.0859,-3.255,-3.5268,-3.7822,-3.8911,-3.9507,-4.3119,-4.4568,-4.4844,-4.6476,-4.7431,-4.8455,-5.2316,-5.4303,-5.6065,-5.9934,-6.1613,-6.2331,-6.2899,-6.5527,-6.8484,-7.0597,-7.2741,-7.4776,-7.642,-7.7401,-7.8551,-8.0716,-8.1832,-8.2644,-8.3355,-8.4099,-8.464,-8.464,-8.5617,-8.6525,-8.6999,-8.8076,-8.8951,-8.9458,-8.9491,-8.9711,-9.0519,-9.0592,-9.0922,-9.173,-9.1803,-9.1876,-9.1912,-9.2566,-9.3051,-9.3114,-9.3764,-9.414,-9.4215,-9.5045,-9.5838,-9.6611,-9.7354,-9.7681,-9.7614,-9.699,-9.6685,1.691,1.6224,1.5771,1.4713,1.4426,0.0,1.3867,1.2158,1.07,1.0522,0.8934,0.7503,0.7324,0.77,0.6952,0.3707,0.1406,-0.1106,-0.4325,-0.667,-0.7999,-0.7952,-0.7959,-0.8649,-1.0199,-1.1268,-1.2522,-1.4172,-1.5454,-1.6339,-1.6687,-1.6927,-1.803,-1.9922,-2.1151,-2.2466,-2.4097,-2.5733,-2.668,-2.7031,-2.7539,-2.7969,-2.8301,-2.8379,-2.8652,-2.9062,-2.9512,-2.9941,-3.0351,-3.0742,-3.1998,-3.3818,-3.6341,-3.8083,-3.9459,-4.2698,-4.4242,-4.4794,-4.605,-4.7104,-4.8455,-5.2316,-5.4726,-5.6744,-6.0082,-6.1942,-6.2899,-6.3049,-6.4779,-6.6977,-6.8516,-7.0989,-7.3442,-7.5484,-7.6995,-7.8416,-8.0073,-8.146,-8.2644,-8.3355,-8.4099,-8.464,-8.464,-8.5617,-8.6734,-8.7831,-8.8433,-8.9133,-9.0227,-8.9821,-8.9711,-9.0519,-9.0592,-9.0922,-9.173,-9.1803,-9.2089,-9.2699,-9.2923,-9.3264,-9.3878,-9.4047,-9.4404,-9.5045,-9.5857,-9.668,-9.7399,-9.7004,-9.6795,-9.6832,-9.6732,-9.6685,1.6475,1.5893,1.5343,1.4548,1.3957,0.0,0.0,1.1044,0.9748,0.9229,0.8253,0.7563,0.7773,0.7938,0.7511,0.6226,0.2613,-0.0905,-0.3623,-0.6263,-0.7992,-0.8045,-0.8052,-0.8542,-0.9903,-1.0583,-1.1795,-1.3951,-1.5486,-1.646,-1.6901,-1.7761,-1.8993,-2.0625,-2.1963,-2.3384,-2.4707,-2.6068,-2.6372,-2.5947,-2.7342,-2.7748,-2.7276,-2.796,-2.8633,-2.9258,-2.9473,-2.9941,-3.0566,-3.0801,-3.1325,-3.2268,-3.5303,-3.7087,-3.847,-4.2051,-4.3915,-4.4819,-4.6225,-4.723,-4.8506,-5.2669,-5.4837,-5.6493,-6.0023,-6.2032,-6.3079,-6.3079,-6.434,-6.5919,-6.6991,-6.9646,-7.2449,-7.3805,-7.5897,-7.7841,-7.9329,-8.0818,-8.2171,-8.3287,-8.4099,-8.4505,-8.4133,-8.4591,-8.5324,-8.6329,-8.6603,-8.7241,-8.8617,-8.8463,-8.8536,-8.9307,-8.9784,-9.0335,-9.1143,-9.1938,-9.2566,-9.2987,-9.3706,-9.4265,-9.463,-9.4963,-9.5429,-9.5844,-9.621,-9.6831,-9.7629,-9.6875,-9.6543,-9.6543,-9.5805,-9.5511,1.6345,1.5693,1.4977,1.4683,1.3736,1.2615,0.0,0.0,0.0,0.7956,0.0,0.7645,0.7787,0.0,0.0,0.0,0.0,0.0,0.0,-0.5957,0.0,-0.7952,-0.7952,-0.8443,-0.9517,-0.9838,-1.1114,-1.3712,-1.5295,-1.6234,-1.6703,-1.8091,-1.9649,-2.1237,-2.2567,-2.3836,-2.5036,-2.592,-2.575,-2.4455,-2.6699,-2.7163,-2.6046,-2.758,-2.8711,-2.9453,-2.9531,-3.0019,-3.0762,-3.0859,-3.0898,-3.1268,-3.481,-3.6499,-3.7429,-4.1604,-4.3765,-4.4844,-4.6426,-4.7626,-4.9025,-5.2913,-5.5249,-5.7038,-6.0487,-6.2241,-6.3079,-6.3079,-6.3902,-6.4936,-6.5792,-6.8435,-7.116,-7.1919,-7.4469,-7.7029,-7.8416,-7.9938,-8.146,-8.2813,-8.3693,-8.4031,-8.3592,-8.349,-8.3839,-8.4829,-8.4825,-8.5299,-8.6971,-8.7105,-8.7325,-8.8096,-8.894,-8.9782,-9.0766,-9.215,-9.3114,-9.3387,-9.4528,-9.5234,-9.5407,-9.5862,-9.6204,-9.6409,-9.6267,-9.6599,-9.7399,-9.6642,-9.6347,-9.646,-9.5112,-9.4485,1.5556,1.5241,1.5284,0.0,1.4163,1.324,0.0,0.0,0.9216,0.9132,0.0,0.7645,0.7787,0.0,0.0,0.0,0.0,0.0,-0.0101,-0.4843,-0.8012,-0.7985,-0.8006,-0.8106,-0.8172,-0.9461,-1.0813,-1.2444,-1.4196,-1.5184,-1.5243,-1.6847,-1.8366,-1.9834,-2.1253,-2.2113,-2.2465,-2.3785,-2.3894,-2.2961,-2.4881,-2.5736,-2.5736,-2.7447,-2.8555,-2.9004,-2.9394,-2.9844,-3.0312,-3.0723,-3.0898,-3.1307,-3.5272,-3.6906,-3.7451,-4.2021,-4.4091,-4.4794,-4.5999,-4.7974,-5.0472,-5.2869,-5.6738,-6.0743,-6.2366,-6.2959,-6.3079,-6.3079,-6.3164,-6.3592,-6.4906,-6.689,-6.9001,-7.0305,-7.3298,-7.6082,-7.6961,-7.8822,-8.0547,-8.1393,-8.2137,-8.2847,-8.3389,-8.349,-8.401,-8.5569,-8.5179,-8.5478,-8.774,-8.7435,-8.7325,-8.8096,-8.894,-9.0025,-9.1455,-9.2439,-9.353,-9.4866,-9.5096,-9.549,-9.6136,-9.5657,-9.5654,-9.6362,-9.5779,-9.5836,-9.6611,-9.58,-9.58,-9.646,-9.563,-9.4911,1.6776,1.6109,0.0,0.0,0.0,0.0,1.2059,0.0,0.8333,0.0,0.0,0.0,0.0,0.0,0.0,0.0,0.7077,0.4843,0.0,0.0,-0.5665,0.0,0.0,0.0,-0.7985,-0.8816,-0.9863,-1.1413,-1.288,-1.4151,-1.5141,-1.6714,-1.8144,-1.9524,-2.0947,-2.1725,-2.189,-2.2621,-2.2391,-2.1183,-2.3228,-2.427,-2.4378,-2.6208,-2.7853,-2.9316,-2.9492,-2.9961,-3.0605,-3.082,-3.1035,-3.1545,-3.4403,-3.6033,-3.7315,-4.0679,-4.3037,-4.4794,-4.5924,-4.8043,-5.099,-5.5205,-5.8579,-6.1373,-6.266,-6.3079,-6.3079,-6.3079,-6.3079,-6.3164,-6.3789,-6.6152,-6.846,-6.9043,-7.185,-7.4728,-7.5946,-7.7299,-7.8619,-7.9803,-8.0615,-8.1088,-8.0987,-8.1663,-8.2744,-8.4335,-8.4294,-8.4952,-8.7191,-8.7215,-8.7142,-8.7472,-8.8243,-8.9288,-9.0838,-9.2151,-9.3574,-9.5104,-9.5189,-9.5363,-9.5657,-9.4963,-9.4924,-9.5798,-9.554,-9.5769,-9.6556,-9.6212,-9.5951,-9.5762,-9.456,-9.3604,1.7684,0.0,0.0,0.0,0.0,0.0,0.0,0.0,0.0,0.0,0.7719,0.0,0.0,0.0,0.7635,0.7048,0.0,0.5253,0.0,-0.1718,0.0,0.0,0.0,0.0,0.0,-0.7527,-0.9072,-1.0208,-1.1212,-1.2452,-1.4125,-1.587,-1.7397,-1.8471,-2.0215,-2.0995,-2.0679,-2.1442,-2.1059,-1.9512,-2.1853,-2.2999,-2.3378,-2.5269,-2.7381,-2.957,-2.957,-3.0078,-3.0898,-3.0898,-3.1133,-3.1682,-3.3231,-3.4976,-3.6805,-3.9709,-4.2103,-4.416,-4.5629,-4.8247,-5.1873,-5.734,-5.9964,-6.1313,-6.245,-6.2929,-6.3079,-6.3079,-6.3079,-6.3079,-6.3079,-6.5513,-6.7964,-6.7964,-7.0666,-7.3544,-7.4796,-7.5709,-7.6657,-7.7942,-7.8619,-7.8887,-7.8604,-7.9994,-8.1627,-8.3117,-8.3555,-8.4557,-8.6712,-8.6995,-8.6995,-8.6995,-8.7729,-8.8797,-9.0348,-9.1715,-9.3061,-9.4418,-9.4731,-9.4753,-9.4572,-9.406,-9.4205,-9.5073,-9.4883,-9.5155,-9.5966,-9.6103,-9.58,-9.4988,-9.3784,-9.2858,0.0,0.0,0.0,1.5818,0.0,0.0,0.0,0.0,0.8024,0.0,0.0,0.0,0.8031,0.8031,0.7129,0.4518,0.4117,0.0,0.0,-0.0101,-0.0101,-0.0101,-0.0101,0.0,0.0,-0.5279,-0.8584,-0.8618,-0.892,-0.9625,-1.0937,-1.3891,-1.5518,-1.5518,-1.8262,-1.9165,-1.8131,-1.9693,-1.9693,-1.805,-2.0565,-2.2118,-2.2995,-2.5145,-2.7381,-2.957,-2.957,-3.0078,-3.0898,-3.0898,-3.1133,-3.1562,-3.2113,-3.3458,-3.5699,-3.987,-4.1828,-4.264,-4.4799,-4.8589,-5.3413,-5.8379,-6.0565,-6.1253,-6.1912,-6.257,-6.3079,-6.3079,-6.3079,-6.3079,-6.3079,-6.5142,-6.7196,-6.7196,-6.9907,-7.2631,-7.3409,-7.4153,-7.4897,-7.5676,-7.5811,-7.619,-7.7189,-7.9199,-8.1165,-8.2319,-8.3387,-8.4786,-8.6746,-8.6995,-8.6995,-8.6995,-8.7729,-8.8803,-9.0298,-9.1159,-9.1963,-9.2748,-9.3511,-9.3611,-9.2873,-9.2998,-9.3397,-9.4254,-9.3521,-9.3603,-9.4411,-9.5034,-9.4946,-9.4244,-9.4082,-9.3648,0.0,0.0,1.5832,1.5832,0.0,0.0,0.0,0.0,0.0,0.0,0.0,0.0,0.8038,0.7952,0.7659,0.6748,0.3717,0.1005,0.0,-0.0,-0.0,-0.0,-0.0,-0.0,0.0,0.0,-0.3956,-0.6458,-0.7974,-0.9348,-1.0822,-1.1962,-1.348,-1.5304,-1.6368,-1.7158,-1.8036,-1.8564,-1.8659,-1.8343,-2.0352,-2.2025,-2.3345,-2.5533,-2.766,-2.959,-2.9863,-3.0332,-3.0898,-3.0898,-3.1309,-3.1953,-3.2109,-3.3639,-3.6046,-3.9174,-4.1275,-4.2951,-4.7948,-5.0911,-5.3471,-5.7989,-6.0206,-6.1253,-6.1912,-6.254,-6.3079,-6.3079,-6.3079,-6.3279,-6.4209,-6.5835,-6.7368,-6.8306,-7.0149,-7.1887,-7.2597,-7.2969,-7.3375,-7.4086,-7.4221,-7.4558,-7.5621,-7.7034,-7.8846,-8.1562,-8.321,-8.4643,-8.6013,-8.6664,-8.6995,-8.6995,-8.6775,-8.746,-8.951,-9.0867,-9.1733,-9.1938,-9.2275,-9.2313,-9.2077,-9.215,-9.2635,-9.3484,-9.3198,-9.3454,-9.4234,-9.494,-9.5156,-9.4841,-9.4325,-9.3706,1.8596,1.7124,0.0,1.5832,1.4854,0.0,1.3872,0.0,1.0002,0.0,0.0,0.0,0.8038,0.7952,0.7965,0.7972,0.5131,0.221,0.0,-0.0,-0.0,-0.0,-0.0,-0.0,-0.0,-0.0,-0.1039,-0.3459,-0.6572,-0.8852,-0.9992,0.0,-1.2389,-1.4556,-1.5636,-1.6744,-1.8036,-1.8156,-1.8303,-1.849,-2.041,-2.2149,-2.3711,-2.5798,-2.7865,-2.9805,-3.0078,-3.0469,-3.0898,-3.0898,-3.1309,-3.1953,-3.2109,-3.3639,-3.5903,-3.8365,-4.0871,-4.3974,-4.9993,-5.2346,-5.3443,-5.7723,-5.9847,-6.0864,-6.1553,-6.2211,-6.278,-6.3019,-6.3079,-6.3394,-6.4703,-6.6154,-6.7572,-6.8894,-7.0263,-7.1447,-7.1921,-7.2022,-7.2157,-7.2631,-7.3028,-7.3548,-7.4552,-7.5854,-7.7766,-8.0836,-8.2541,-8.399,-8.5605,-8.6261,-8.6701,-8.6995,-8.6261,-8.6406,-8.7823,-8.9385,-9.0163,-8.9929,-9.0498,-9.0887,-9.086,-9.1241,-9.1913,-9.3088,-9.2794,-9.3118,-9.4217,-9.4645,-9.5007,-9.5189,-9.4718,-9.4102]},{"header":{"parameterUnit":"m.s-1","parameterCategory":1,"la1":30.6,"la2":29.2853,"lo1":-89.7004,"lo2":-87.6739,"dy":0.0162,"dx":0.0183,"nx":112,"ny":82,"refTime":"2023-11-21T06:00:00:Z","depth":0,"parameterNumber":3,"parameterNumberName":"V-component_of_WINDS"},"data":[0.0,0.0,0.0,0.0,0.0,0.0,0.0,0.0,0.0,0.0,0.0,0.0,0.0,0.0,0.0,0.0,0.0,0.0,0.0,0.0,0.0,0.0,0.0,0.0,0.0,0.0,0.0,0.0,0.0,0.0,0.0,0.0,0.0,0.0,0.0,0.0,0.0,0.0,0.0,0.0,0.0,0.0,0.0,0.0,0.0,0.0,0.0,0.0,0.0,0.0,0.0,0.0,0.0,0.0,0.0,0.0,0.0,0.0,0.0,0.0,0.0,0.0,0.0,0.0,0.0,0.0,0.0,0.0,0.0,0.0,0.0,0.0,0.0,0.0,0.0,0.0,0.0,0.0,0.0,0.0,0.0,0.0,0.0,0.0,0.0,0.0,0.0,0.0,0.0,0.0,-2.9085,-2.8861,-2.6996,-2.6035,-2.6543,-2.6797,-2.7519,-2.8926,0.0,0.0,0.0,0.0,0.0,0.0,0.0,0.0,0.0,0.0,0.0,0.0,0.0,0.0,0.0,0.0,0.0,0.0,0.0,0.0,0.0,0.0,0.0,0.0,0.0,0.0,0.0,0.0,0.0,0.0,0.0,0.0,0.0,0.0,0.0,0.0,0.0,0.0,0.0,0.0,0.0,0.0,0.0,0.0,0.0,0.0,0.0,0.0,0.0,0.0,0.0,0.0,0.0,0.0,0.0,0.0,0.0,0.0,0.0,0.0,0.0,0.0,0.0,0.0,0.0,0.0,0.0,0.0,0.0,0.0,0.0,0.0,0.0,0.0,0.0,0.0,0.0,0.0,0.0,0.0,0.0,0.0,0.0,0.0,0.0,0.0,0.0,0.0,0.0,0.0,0.0,0.0,0.0,0.0,0.0,0.0,0.0,0.0,0.0,0.0,0.0,0.0,0.0,0.0,-2.9175,-2.6516,-2.6251,-2.6602,-2.7402,-2.6855,-2.7344,-2.9336,0.0,0.0,0.0,0.0,0.0,0.0,0.0,0.0,0.0,0.0,0.0,0.0,0.0,0.0,0.0,0.0,0.0,0.0,0.0,0.0,0.0,0.0,0.0,0.0,0.0,0.0,0.0,0.0,0.0,0.0,0.0,0.0,0.0,0.0,0.0,0.0,0.0,0.0,0.0,0.0,0.0,0.0,0.0,0.0,0.0,0.0,0.0,0.0,0.0,0.0,0.0,0.0,0.0,0.0,0.0,0.0,0.0,0.0,0.0,0.0,0.0,0.0,0.0,0.0,0.0,0.0,0.0,0.0,0.0,0.0,0.0,0.0,0.0,0.0,0.0,0.0,0.0,0.0,0.0,0.0,0.0,0.0,0.0,0.0,0.0,0.0,0.0,0.0,0.0,0.0,0.0,0.0,0.0,0.0,0.0,0.0,0.0,0.0,0.0,0.0,0.0,0.0,0.0,-3.1366,-2.9023,-2.6685,-2.6191,-2.6484,-2.7578,-2.666,-2.7051,-2.9414,-2.9141,0.0,0.0,0.0,0.0,0.0,0.0,0.0,0.0,0.0,0.0,0.0,0.0,0.0,0.0,0.0,0.0,0.0,0.0,0.0,0.0,0.0,0.0,0.0,0.0,0.0,0.0,0.0,0.0,0.0,0.0,0.0,0.0,0.0,0.0,0.0,0.0,0.0,0.0,0.0,0.0,0.0,0.0,0.0,0.0,0.0,0.0,0.0,0.0,0.0,0.0,0.0,0.0,0.0,0.0,0.0,0.0,0.0,0.0,0.0,0.0,0.0,0.0,0.0,0.0,0.0,0.0,0.0,0.0,0.0,0.0,0.0,0.0,0.0,0.0,0.0,0.0,0.0,0.0,0.0,0.0,0.0,0.0,0.0,0.0,0.0,0.0,0.0,0.0,0.0,0.0,0.0,0.0,0.0,0.0,0.0,0.0,0.0,0.0,0.0,0.0,0.0,0.0,-3.0247,-2.8726,-2.708,-2.6289,-2.6328,-2.7422,-2.6523,-2.6894,-2.9258,-2.8711,0.0,0.0,0.0,0.0,0.0,0.0,0.0,0.0,0.0,0.0,0.0,0.0,0.0,0.0,0.0,0.0,0.0,0.0,0.0,0.0,0.0,0.0,0.0,0.0,0.0,0.0,0.0,0.0,0.0,0.0,0.0,0.0,0.0,0.0,0.0,0.0,0.0,0.0,0.0,0.0,0.0,0.0,0.0,0.0,0.0,0.0,0.0,0.0,0.0,0.0,0.0,0.0,0.0,0.0,0.0,0.0,0.0,0.0,0.0,0.0,0.0,0.0,0.0,0.0,0.0,0.0,0.0,0.0,0.0,0.0,0.0,0.0,0.0,0.0,0.0,0.0,0.0,0.0,0.0,0.0,0.0,0.0,0.0,0.0,0.0,0.0,0.0,0.0,0.0,0.0,0.0,0.0,0.0,0.0,0.0,0.0,0.0,0.0,0.0,0.0,0.0,0.0,-3.0023,-2.8596,-2.6665,-2.6387,-2.6543,-2.7031,-2.6621,-2.709,-2.8848,-2.8535,0.0,0.0,0.0,0.0,0.0,0.0,0.0,0.0,0.0,0.0,0.0,0.0,0.0,0.0,0.0,0.0,0.0,0.0,0.0,0.0,0.0,0.0,0.0,0.0,0.0,0.0,0.0,0.0,0.0,0.0,0.0,0.0,0.0,0.0,0.0,0.0,0.0,0.0,0.0,0.0,0.0,0.0,0.0,0.0,0.0,0.0,0.0,0.0,0.0,0.0,0.0,0.0,0.0,0.0,0.0,0.0,0.0,0.0,0.0,0.0,0.0,0.0,0.0,0.0,0.0,0.0,0.0,0.0,0.0,0.0,0.0,0.0,0.0,0.0,0.0,0.0,0.0,0.0,0.0,0.0,0.0,0.0,0.0,0.0,0.0,0.0,0.0,0.0,0.0,0.0,0.0,0.0,0.0,0.0,0.0,0.0,0.0,0.0,0.0,0.0,0.0,0.0,-3.0566,-2.9232,-2.7396,-2.6465,-2.6367,-2.7344,-2.6543,-2.6816,-2.8789,0.0,0.0,0.0,0.0,0.0,0.0,0.0,0.0,0.0,0.0,0.0,0.0,0.0,0.0,0.0,0.0,0.0,0.0,0.0,0.0,0.0,0.0,0.0,0.0,0.0,0.0,0.0,0.0,0.0,0.0,0.0,0.0,0.0,0.0,0.0,0.0,0.0,0.0,0.0,0.0,0.0,0.0,0.0,0.0,0.0,0.0,0.0,0.0,0.0,0.0,0.0,0.0,0.0,0.0,0.0,0.0,0.0,0.0,0.0,0.0,0.0,0.0,0.0,0.0,0.0,0.0,0.0,0.0,0.0,0.0,0.0,0.0,0.0,0.0,0.0,0.0,0.0,0.0,0.0,0.0,0.0,0.0,0.0,0.0,0.0,0.0,0.0,0.0,0.0,0.0,0.0,0.0,0.0,0.0,0.0,0.0,0.0,0.0,0.0,0.0,0.0,0.0,-3.1984,-3.0723,-2.9276,-2.7475,-2.6348,-2.6094,-2.6973,-2.6113,-2.6445,-2.8594,0.0,0.0,0.0,0.0,0.0,0.0,0.0,0.0,0.0,0.0,0.0,0.0,0.0,0.0,0.0,0.0,0.0,0.0,0.0,0.0,0.0,0.0,0.0,0.0,0.0,0.0,0.0,0.0,0.0,0.0,0.0,0.0,0.0,0.0,0.0,0.0,0.0,0.0,0.0,0.0,0.0,0.0,0.0,0.0,0.0,0.0,0.0,0.0,0.0,0.0,0.0,0.0,0.0,0.0,0.0,0.0,0.0,0.0,0.0,0.0,0.0,0.0,0.0,0.0,0.0,0.0,0.0,0.0,0.0,0.0,0.0,0.0,0.0,0.0,0.0,0.0,0.0,0.0,0.0,0.0,0.0,0.0,0.0,0.0,0.0,0.0,0.0,0.0,0.0,0.0,0.0,0.0,0.0,0.0,0.0,0.0,0.0,0.0,0.0,0.0,0.0,0.0,-3.1961,-3.0431,-2.869,-2.6646,-2.6016,-2.5742,-2.5742,-2.5332,-2.6094,0.0,0.0,0.0,0.0,0.0,0.0,0.0,0.0,0.0,0.0,0.0,0.0,0.0,0.0,0.0,0.0,0.0,0.0,0.0,0.0,0.0,0.0,0.0,0.0,0.0,0.0,0.0,0.0,0.0,0.0,0.0,0.0,0.0,0.0,0.0,0.0,0.0,0.0,0.0,0.0,0.0,0.0,0.0,0.0,0.0,0.0,0.0,0.0,0.0,0.0,0.0,0.0,0.0,0.0,0.0,0.0,0.0,0.0,0.0,0.0,0.0,0.0,0.0,0.0,0.0,0.0,0.0,0.0,0.0,0.0,0.0,0.0,0.0,0.0,0.0,0.0,0.0,0.0,0.0,0.0,0.0,0.0,0.0,0.0,0.0,0.0,0.0,0.0,0.0,0.0,0.0,0.0,0.0,0.0,0.0,0.0,0.0,0.0,0.0,0.0,0.0,0.0,0.0,-3.3788,-3.2277,-3.0623,-2.8873,-2.8815,-2.8284,-2.6702,-2.7544,-2.8593,-2.9808,0.0,0.0,0.0,0.0,0.0,0.0,0.0,0.0,0.0,0.0,0.0,0.0,0.0,0.0,0.0,0.0,0.0,0.0,0.0,0.0,0.0,0.0,0.0,0.0,0.0,0.0,0.0,0.0,0.0,0.0,0.0,0.0,0.0,0.0,0.0,0.0,0.0,0.0,0.0,0.0,0.0,0.0,0.0,0.0,0.0,0.0,0.0,0.0,0.0,0.0,0.0,0.0,0.0,0.0,0.0,0.0,0.0,0.0,0.0,0.0,0.0,0.0,0.0,0.0,0.0,0.0,0.0,0.0,0.0,0.0,0.0,0.0,0.0,0.0,0.0,0.0,0.0,0.0,0.0,0.0,0.0,0.0,0.0,0.0,0.0,0.0,0.0,0.0,0.0,0.0,0.0,0.0,0.0,0.0,0.0,0.0,0.0,0.0,0.0,0.0,0.0,0.0,-3.4798,-3.3386,-3.1809,-3.0296,-3.0223,-2.9613,-2.8105,-2.874,-2.9586,-3.0565,0.0,0.0,0.0,0.0,0.0,0.0,0.0,0.0,0.0,0.0,0.0,0.0,0.0,0.0,0.0,0.0,0.0,0.0,0.0,0.0,0.0,0.0,0.0,0.0,0.0,0.0,0.0,0.0,0.0,0.0,0.0,0.0,0.0,0.0,0.0,0.0,0.0,0.0,0.0,0.0,0.0,0.0,0.0,0.0,0.0,0.0,0.0,0.0,0.0,0.0,0.0,0.0,0.0,0.0,0.0,0.0,0.0,0.0,0.0,0.0,0.0,0.0,0.0,0.0,0.0,0.0,0.0,0.0,0.0,0.0,0.0,0.0,0.0,0.0,0.0,0.0,0.0,0.0,0.0,0.0,0.0,0.0,0.0,0.0,0.0,0.0,0.0,0.0,0.0,0.0,0.0,0.0,0.0,0.0,0.0,0.0,0.0,0.0,0.0,0.0,0.0,0.0,-3.54,-3.4102,-3.2606,-3.1394,-3.0963,-3.0371,-2.9642,-2.9398,-2.9806,-3.0948,0.0,0.0,0.0,0.0,0.0,0.0,0.0,0.0,0.0,0.0,0.0,0.0,0.0,0.0,0.0,0.0,0.0,0.0,0.0,0.0,0.0,0.0,0.0,0.0,0.0,0.0,0.0,0.0,0.0,0.0,0.0,0.0,0.0,0.0,0.0,0.0,0.0,0.0,0.0,0.0,0.0,0.0,0.0,0.0,0.0,0.0,0.0,0.0,0.0,0.0,0.0,0.0,0.0,0.0,0.0,0.0,0.0,0.0,0.0,0.0,-3.9448,0.0,0.0,0.0,0.0,0.0,0.0,0.0,0.0,0.0,0.0,0.0,0.0,0.0,0.0,0.0,0.0,0.0,0.0,0.0,0.0,0.0,0.0,0.0,0.0,0.0,0.0,0.0,0.0,0.0,0.0,0.0,0.0,0.0,0.0,0.0,0.0,0.0,0.0,0.0,0.0,0.0,-3.6624,-3.573,-3.4572,-3.3714,-3.4052,-3.3503,-3.136,-3.2221,-3.2835,-3.3054,-3.3027,0.0,0.0,0.0,0.0,0.0,0.0,0.0,0.0,0.0,0.0,0.0,0.0,0.0,0.0,0.0,0.0,0.0,0.0,0.0,0.0,0.0,0.0,0.0,0.0,0.0,0.0,0.0,0.0,0.0,0.0,0.0,0.0,0.0,0.0,0.0,0.0,0.0,0.0,0.0,0.0,0.0,0.0,0.0,0.0,0.0,0.0,0.0,0.0,0.0,0.0,0.0,0.0,0.0,0.0,0.0,0.0,0.0,0.0,0.0,0.0,-4.0598,0.0,0.0,0.0,0.0,0.0,0.0,0.0,0.0,0.0,0.0,0.0,0.0,0.0,0.0,0.0,0.0,0.0,0.0,0.0,0.0,0.0,0.0,0.0,0.0,0.0,0.0,0.0,0.0,0.0,0.0,0.0,0.0,0.0,0.0,0.0,0.0,0.0,0.0,0.0,0.0,-3.7437,-3.6383,-3.5276,-3.4597,-3.4842,-3.4453,-3.2864,-3.3703,-3.4255,-3.4157,-3.4552,0.0,0.0,0.0,0.0,0.0,0.0,0.0,0.0,0.0,0.0,0.0,0.0,0.0,0.0,0.0,0.0,0.0,0.0,0.0,0.0,0.0,0.0,0.0,0.0,0.0,0.0,0.0,0.0,0.0,0.0,0.0,0.0,0.0,0.0,0.0,0.0,0.0,0.0,0.0,0.0,0.0,0.0,0.0,0.0,0.0,0.0,0.0,0.0,0.0,0.0,0.0,0.0,0.0,-4.1957,-4.2446,-4.3184,-4.3124,-4.2761,-4.2151,-4.215,-4.1725,-4.1085,-4.1894,0.0,0.0,0.0,0.0,0.0,0.0,0.0,0.0,0.0,0.0,0.0,0.0,0.0,0.0,0.0,0.0,0.0,0.0,0.0,0.0,0.0,0.0,0.0,0.0,-4.0949,-4.0015,-4.0367,0.0,0.0,0.0,0.0,0.0,0.0,0.0,0.0,0.0,0.0,0.0,-3.7487,-3.6383,-3.5378,-3.4926,-3.4876,-3.4726,-3.4349,-3.465,-3.4876,-3.4876,-3.573,-3.5642,0.0,0.0,0.0,0.0,0.0,0.0,0.0,0.0,0.0,0.0,0.0,0.0,0.0,0.0,0.0,0.0,0.0,0.0,0.0,0.0,0.0,0.0,0.0,0.0,0.0,0.0,0.0,0.0,0.0,0.0,0.0,0.0,-3.422,-3.4235,0.0,0.0,0.0,0.0,0.0,0.0,0.0,0.0,0.0,0.0,0.0,0.0,0.0,-4.0139,-4.1084,-4.1533,-4.2188,-4.2995,-4.295,-4.298,-4.3124,-4.3085,-4.3271,-4.3555,-4.354,0.0,-4.2179,-4.1366,0.0,0.0,0.0,0.0,0.0,0.0,0.0,0.0,0.0,0.0,0.0,0.0,0.0,0.0,0.0,0.0,0.0,0.0,0.0,0.0,0.0,0.0,-3.9619,-4.0457,-4.0871,-4.0941,0.0,-4.0006,-3.9732,-3.8329,-3.7779,0.0,0.0,0.0,0.0,0.0,0.0,0.0,-3.5981,-3.568,-3.5437,-3.5454,-3.5336,-3.5604,-3.6006,-3.568,-3.5336,-3.5336,-3.5579,-3.5396,-3.4904,-3.4245,0.0,0.0,0.0,0.0,0.0,0.0,0.0,0.0,0.0,0.0,0.0,0.0,0.0,0.0,0.0,0.0,0.0,0.0,0.0,0.0,0.0,0.0,0.0,0.0,0.0,0.0,0.0,0.0,0.0,-3.3779,-3.4832,-3.5404,-3.556,-3.5557,0.0,0.0,0.0,0.0,0.0,0.0,0.0,0.0,0.0,-3.952,-4.0931,-4.1748,-4.1766,-4.2187,-4.2775,-4.3561,-4.3522,-4.3752,-4.425,-4.4709,-4.501,-4.5224,-4.5217,-4.503,-4.4578,-4.3202,-4.2997,-4.3568,0.0,0.0,0.0,0.0,-4.2474,-4.1878,-4.1438,-4.0617,0.0,-3.9373,0.0,0.0,0.0,0.0,0.0,0.0,0.0,0.0,0.0,0.0,-4.0696,-4.1354,-4.0995,-4.0374,-4.0272,-3.9256,-3.8268,0.0,-3.7814,-3.7713,-3.7965,0.0,0.0,0.0,0.0,-3.5855,-3.5981,-3.5454,-3.5077,-3.5077,-3.5353,-3.5655,-3.5881,-3.5956,-3.6006,-3.6006,-3.5322,-3.4872,-3.4999,-3.3331,-3.2852,0.0,0.0,0.0,0.0,0.0,0.0,0.0,0.0,0.0,0.0,0.0,0.0,0.0,0.0,0.0,0.0,0.0,0.0,0.0,0.0,0.0,0.0,0.0,0.0,0.0,0.0,0.0,0.0,-3.458,-3.5778,-3.6785,-3.708,-3.7192,0.0,0.0,0.0,0.0,0.0,0.0,-4.0005,-4.1501,-4.2008,-4.1238,-4.2617,-4.3091,-4.259,-4.2848,-4.3412,-4.4266,-4.4374,-4.4772,-4.5421,-4.6237,-4.6487,-4.6329,-4.6375,-4.6359,-4.6186,-4.474,-4.3961,-4.3601,-4.3573,-4.3469,-4.3268,-4.2951,-4.2282,-4.1462,-4.1043,-4.0254,-3.9358,-3.8934,0.0,-3.7763,-3.7763,0.0,0.0,0.0,0.0,-4.0516,-4.0995,-4.1265,-4.1564,-4.2192,-4.1353,-4.0566,-4.1012,-3.9455,-3.7851,0.0,-3.7563,-3.7462,-3.7739,0.0,0.0,-3.7638,-3.6282,-3.5378,-3.6056,-3.5303,-3.4776,-3.4926,-3.5303,-3.5604,-3.5755,-3.6132,-3.6408,-3.6558,-3.5284,-3.4662,-3.4894,-3.2833,-3.1968,-3.2559,0.0,0.0,0.0,0.0,0.0,0.0,0.0,0.0,0.0,0.0,0.0,0.0,0.0,0.0,0.0,0.0,0.0,0.0,0.0,0.0,0.0,0.0,0.0,0.0,0.0,0.0,0.0,0.0,0.0,-3.8112,-3.9979,0.0,0.0,0.0,0.0,-4.0634,-4.1427,-4.1695,-4.1402,-4.2611,-4.293,-4.2067,-4.2798,-4.3564,-4.4359,-4.396,-4.4325,-4.5491,-4.5969,-4.6183,-4.6275,-4.7076,-4.7072,-4.6382,-4.6387,-4.6231,-4.5846,-4.5001,-4.5111,-4.559,-4.4297,-4.4245,-4.4731,-4.3629,-4.3138,-4.2856,-4.151,-4.0983,-4.0606,-3.9125,-3.8519,-3.8342,-3.8342,-3.9301,0.0,0.0,-4.0397,-4.0397,-4.0427,-4.0905,-4.1564,-4.2192,-4.2304,-4.231,-4.2338,-4.0968,-3.9216,0.0,-3.6383,-3.6006,-3.7036,0.0,-3.6558,-3.7136,-3.6684,-3.6107,-3.5655,-3.5077,-3.4926,-3.5454,-3.5437,-3.5755,-3.6282,-3.6332,-3.6584,-3.7111,-3.5818,-3.4816,-3.4415,-3.2962,-3.2014,-3.1584,-3.1504,0.0,0.0,0.0,0.0,0.0,0.0,0.0,0.0,0.0,0.0,0.0,0.0,0.0,0.0,0.0,0.0,0.0,0.0,0.0,0.0,0.0,0.0,0.0,0.0,0.0,0.0,0.0,0.0,-3.9518,-4.0405,0.0,-4.081,-4.069,-4.0951,-4.1733,-4.2737,-4.3349,-4.3537,-4.4479,-4.4848,-4.4482,-4.4716,-4.497,-4.5201,-4.5339,-4.5638,-4.6087,-4.6784,-4.7006,-4.6784,-4.7591,-4.7692,-4.7248,-4.7531,-4.7314,-4.6844,-4.6553,-4.6009,-4.5243,-4.4755,-4.4293,-4.3781,-4.3388,-4.2943,-4.2464,-4.1365,-4.0678,-3.9991,-3.835,-3.7828,-3.7853,-3.8272,-3.8721,-3.92,-3.9649,-4.0068,-4.0487,-4.0935,-4.1504,-4.2162,-4.2821,-4.2708,-4.2167,-4.1474,-4.0214,-3.8773,-3.7501,-3.686,-3.6734,-3.7111,-3.6433,-3.6132,-3.7036,-3.6107,-3.5353,-3.5529,-3.5378,-3.5328,-3.5529,-3.5855,-3.6157,-3.6332,-3.6684,-3.6574,-3.5842,-3.4824,-3.3832,-3.2983,-3.1605,-3.1043,-3.1094,-3.1113,-3.1465,0.0,0.0,0.0,0.0,0.0,0.0,0.0,0.0,0.0,0.0,0.0,0.0,0.0,0.0,0.0,0.0,0.0,0.0,0.0,0.0,0.0,0.0,0.0,0.0,0.0,-3.8082,-3.9693,-4.063,-4.1256,-4.1759,-4.2046,-4.2119,-4.2454,-4.3239,-4.4149,-4.4769,-4.5078,-4.5629,-4.5852,-4.5813,-4.6065,-4.6124,-4.6047,-4.6487,-4.6784,-4.6908,-4.7662,-4.7832,-4.7428,-4.823,-4.8347,-4.79,-4.7974,-4.7756,-4.7385,-4.7132,-4.6302,-4.5196,-4.5196,-4.4695,-4.3954,-4.3735,-4.3382,-4.2846,-4.1894,-4.0896,-3.9835,-3.8538,-3.8242,-3.8452,-3.8661,-3.905,-3.9499,-3.9948,-4.0397,-4.0876,-4.1534,-4.2043,-4.2521,-4.318,-4.2953,-4.2473,-4.1768,-4.0377,-3.9055,-3.8251,-3.7809,-3.7337,-3.7006,-3.6658,-3.6574,-3.7132,-3.5931,-3.5278,-3.6006,-3.578,-3.5629,-3.5805,-3.6132,-3.6433,-3.6634,-3.6574,-3.621,-3.5646,-3.4088,-3.2987,-3.2462,-3.1331,-3.0781,-3.1094,-3.1094,-3.1387,-3.1953,0.0,0.0,0.0,0.0,0.0,0.0,0.0,0.0,0.0,0.0,0.0,0.0,0.0,0.0,0.0,0.0,0.0,0.0,0.0,0.0,0.0,0.0,0.0,-3.7982,-3.941,-4.0913,-4.1576,-4.2775,-4.3701,-4.4042,-4.4411,-4.4802,-4.5285,-4.5694,-4.5884,-4.5898,-4.5886,-4.5873,-4.5834,-4.6547,-4.6932,-4.6932,-4.7427,-4.7809,-4.8163,-4.869,-4.8707,-4.8268,-4.9126,-4.9043,-4.8267,-4.7674,-4.7385,-4.7299,-4.6635,-4.6014,-4.5442,-4.5494,-4.5494,-4.5425,-4.4831,-4.4415,-4.4101,-4.305,-4.1717,-4.0337,-3.9679,-3.9918,-4.0307,-3.9679,-4.0367,-4.1384,-4.1384,-4.1384,-4.1564,-4.2222,-4.2402,-4.2581,-4.313,-4.328,-4.328,-4.32,-4.1478,-3.9853,-3.9853,-3.8944,-3.7795,-3.664,-3.7335,-3.786,-3.7253,-3.6257,0.0,-3.701,-3.6232,-3.578,-3.6332,-3.6383,-3.6609,-3.7161,-3.5767,-3.5395,-3.6517,-3.3878,-3.2462,-3.3056,-3.2053,-3.1504,-3.1504,-3.1523,-3.1543,-3.1424,0.0,0.0,0.0,0.0,0.0,0.0,0.0,0.0,0.0,0.0,0.0,0.0,0.0,0.0,0.0,0.0,0.0,0.0,0.0,0.0,0.0,-3.8937,-4.0469,-4.0087,-4.2228,-4.4029,-4.4633,-4.4702,-4.4766,-4.4861,-4.4998,-4.5166,-4.5357,-4.5784,-4.5996,-4.5908,-4.5918,-4.6142,-4.6698,-4.6835,-4.724,-4.7914,-4.8548,-4.8952,-4.9048,-4.9836,-4.9839,-4.9164,-4.939,-4.8803,-4.7632,-4.747,-4.6864,-4.6014,-4.5815,-4.5425,-4.4906,-4.532,-4.5214,-4.4742,-4.3972,-4.31,-4.2428,-4.2661,-4.2023,-4.1085,-4.0905,-4.0965,-4.1085,-4.0905,-4.1085,-4.1384,-4.1384,-4.1713,-4.2252,-4.288,-4.3419,-4.3647,-4.2948,-4.2811,-4.2278,-4.0493,-3.9627,-3.9057,-3.8566,-3.859,-3.8147,-3.6691,-3.6615,-3.6854,-3.6653,-3.6332,0.0,-3.6558,-3.6332,-3.6358,-3.691,-3.6039,-3.5644,-3.6174,-3.4979,-3.3982,-3.3508,-3.2806,-3.2035,-3.1536,-3.123,-3.1055,-3.1055,-3.168,-3.1347,0.0,0.0,0.0,0.0,0.0,0.0,0.0,0.0,0.0,0.0,0.0,0.0,0.0,0.0,0.0,0.0,0.0,0.0,0.0,0.0,0.0,0.0,-4.1244,-4.3306,-4.3625,-4.4705,-4.5624,-4.6096,-4.5918,-4.5866,-4.6186,-4.6278,-4.6282,-4.6148,-4.6471,-4.6591,-4.645,-4.6428,-4.6796,-4.7584,-4.7835,-4.824,-4.8856,-4.9586,-4.9836,-4.9695,-5.0232,-5.0024,-4.9265,-4.9265,-4.8563,0.0,-4.7088,-4.6448,-4.5442,-4.5249,-4.4906,0.0,0.0,0.0,0.0,0.0,-4.3126,-4.2561,-4.2904,-4.244,-4.1803,-4.1803,-4.1803,-4.1803,-4.1803,-4.1983,-4.2192,-4.2192,-4.2491,-4.291,-4.3569,-4.4018,-4.402,-4.3139,-4.2941,-4.2393,-4.0404,-4.0064,-3.9801,-3.8962,-3.9016,0.0,-3.7278,-3.7108,-3.7143,-3.7056,-3.6659,-3.6533,-3.6985,-3.6835,-3.6835,-3.7161,-3.606,-3.5568,-3.609,-3.4313,0.0,0.0,0.0,-3.1566,-3.1133,-3.1152,0.0,0.0,0.0,-3.1275,-2.9475,0.0,0.0,0.0,-2.7445,-2.6683,0.0,0.0,0.0,0.0,0.0,0.0,0.0,0.0,0.0,0.0,0.0,0.0,0.0,0.0,0.0,0.0,-4.3828,-4.6752,-4.7674,-4.709,-4.6613,-4.6871,-4.6919,-4.7136,-4.77,-4.7823,-4.7722,-4.7377,-4.7494,-4.7509,-4.7367,0.0,0.0,0.0,0.0,-4.951,-4.9721,-5.0413,-5.0577,-5.0226,-5.0253,-4.9882,-4.9176,-4.9071,-4.8457,-4.7399,-4.6695,-4.6035,-4.5372,-4.4899,-4.4756,-4.4823,-4.4666,-4.4518,-4.4365,-4.4106,-4.3804,-4.3512,-4.3404,0.0,0.0,-4.2462,-4.2462,-4.2462,-4.2462,-4.288,-4.3329,-4.3329,-4.3389,-4.3599,-4.4257,-4.4385,-4.4152,-4.3459,-4.3312,-4.2931,-4.1672,-4.1608,-4.1452,-4.0251,-4.0008,-3.9573,-3.8288,-3.8144,-3.8039,-3.8035,-3.7186,-3.691,-3.7889,-3.7588,-3.7287,-3.7142,0.0,0.0,-3.6297,-3.3683,-3.2238,-3.283,-3.1652,-3.1055,-3.1426,-3.1445,-3.1465,-3.1523,-3.1992,-3.1228,-2.91,-2.8504,-2.7494,-2.5935,-2.5373,-2.5077,0.0,0.0,0.0,0.0,0.0,0.0,0.0,0.0,0.0,0.0,0.0,0.0,0.0,0.0,0.0,-4.2898,-4.553,-4.7838,-4.9454,-5.0079,-5.0112,-4.9477,-4.9399,-4.9239,-4.877,-4.8499,-4.8355,-4.8392,-4.853,-4.8515,-4.8244,-4.8253,-4.8587,-4.9336,-4.9375,-4.9779,-5.0645,-5.1009,-5.1152,-5.1078,0.0,0.0,-5.0817,-5.0304,-4.918,-4.7595,-4.6911,-4.5872,-4.481,-4.5286,-4.5838,-4.622,-4.487,-4.3899,-4.3331,-4.3615,-4.3297,-4.2741,-4.3169,-4.324,-4.315,-4.315,-4.315,-4.315,-4.315,-4.324,0.0,-4.3329,-4.3718,-4.4287,-4.4945,-4.4781,-4.4121,-4.3041,-4.2887,-4.2519,-4.1206,-4.1773,-4.2285,-4.1462,-4.0878,-4.02,-3.8994,-3.8313,-3.8032,-3.7965,-3.7814,-3.7764,-3.799,-3.7914,-3.7593,-3.6874,-3.5514,-3.4486,-3.3896,-3.181,-3.0829,-3.1305,-3.1112,-3.0918,-3.1016,-3.1016,-3.1172,-3.1504,-3.2285,-3.1169,-2.8227,-2.8972,-2.7881,-2.4888,-2.4784,-2.5104,0.0,0.0,0.0,0.0,0.0,0.0,0.0,0.0,0.0,0.0,0.0,-3.892,-4.0374,0.0,-4.3935,-4.6076,-4.8093,-4.9934,-5.1227,-5.2113,-5.2326,-5.1458,-5.1402,-5.1204,-5.0619,-5.0507,-5.0163,-4.9393,-4.9412,-4.9372,-4.9168,-4.9103,-4.9606,-5.0837,-5.0317,-5.0741,-5.2125,-5.1591,-5.123,-5.1071,-5.1425,-5.1183,-5.0416,-4.9761,-4.9,-4.8183,-4.7091,-4.6241,-4.5703,-4.6109,-4.6481,-4.6727,-4.5777,-4.4854,-4.4054,-4.4267,-4.4049,-4.3701,-4.4507,-4.475,-4.4675,-4.4205,-4.4082,-4.3927,-4.3488,-4.3569,-4.3838,-4.3838,-4.4287,-4.4945,-4.5633,-4.5598,-4.5113,-4.43,-4.4083,-4.3714,-4.2399,-4.3155,-4.3613,-4.1932,-4.1941,-4.1559,-3.9652,-3.9044,-3.8768,-3.8492,-3.8191,-3.8115,-3.8391,-3.7789,-3.7151,-3.6772,-3.4967,-3.3587,-3.317,-3.1546,-3.0644,-3.0879,-3.0898,-3.0996,-3.1191,-3.1211,-3.1406,-3.1836,-3.177,-3.0552,-2.8178,-2.8408,-2.7271,-2.4863,-2.5157,-2.5611,0.0,0.0,0.0,0.0,0.0,0.0,0.0,-3.8257,-3.9235,-3.9367,-4.0425,-4.1931,-4.406,-4.5757,-4.7379,-4.8961,-5.0562,-5.1927,-5.2735,-5.3564,-5.39,-5.3288,-5.3162,-5.2992,-5.2472,-5.2473,-5.1933,-5.0619,-5.0348,-5.025,-5.0273,-5.0152,-5.0759,-5.2279,-5.1433,-5.1605,-5.3003,-5.1801,-5.1082,-5.0892,-5.1258,-5.1045,-5.0288,-4.9561,-4.9195,-4.8962,-4.7317,-4.6781,-4.7022,-4.7022,-4.709,-4.72,-4.6872,-4.6256,-4.5548,-4.5341,-4.5231,-4.5153,-4.5961,-4.6173,-4.6032,-4.5079,-4.4905,-4.4771,-4.3826,-4.3988,-4.4496,-4.4496,-4.4975,-4.5633,-4.6172,-4.6241,-4.5989,-4.5573,-4.5389,-4.5115,-4.4069,-4.4627,-4.472,-4.2447,-4.2641,-4.2404,-4.021,-3.9772,-3.9546,-3.9094,-3.8642,-3.8492,-3.8969,-3.7819,-3.673,-3.6414,-3.4384,-3.2964,-3.2758,-3.1536,-3.0918,-3.0996,-3.1016,-3.1191,-3.1621,-3.1641,-3.1894,-3.2402,-3.132,-3.0101,-2.875,-2.786,-2.6629,-2.5264,-2.5732,-2.6146,-3.8731,-3.8592,-3.8901,-3.9237,-3.9597,-4.0384,0.0,-4.349,-4.3893,-4.4451,-4.5329,-4.639,-4.7833,-4.8287,-4.904,-5.0824,-5.186,-5.2769,-5.3622,-5.4471,-5.5084,-5.533,-5.4814,-5.4241,-5.3668,-5.2936,-5.2468,-5.2404,-5.1575,-5.1337,-5.1992,-5.1876,-5.2202,-5.3049,-5.2241,-5.1694,-5.1558,-5.1044,-5.0905,-5.126,-5.1708,-5.2201,-5.2742,-5.2028,-5.1024,-4.9725,-4.7692,-4.7149,-4.78,-4.78,-4.8173,-4.8686,-4.7801,-4.7408,-4.7175,-4.6394,-4.6039,-4.6032,-4.6173,-4.6173,-4.6032,-4.5079,-4.5184,-4.5449,-4.4489,-4.4676,-4.5185,-4.5185,-4.5693,-4.6232,-4.6292,-4.5903,-4.5512,-4.5389,-4.5389,-4.5389,-4.5207,-4.5298,-4.5024,-4.3598,-4.2447,-4.1476,-4.0534,-4.0023,-3.9672,-3.9622,-3.9546,-3.9521,-3.9597,-3.8275,-3.6932,-3.5659,-3.4047,-3.253,-3.1228,-3.0995,-3.1055,-3.1426,-3.1445,-3.1641,-3.207,-3.209,-3.2461,-3.3262,-3.1894,-3.0781,-2.9846,-2.8443,-2.7222,-2.5865,-2.5932,-2.6253,-4.0585,-4.0247,-4.0165,-4.0926,-4.2109,-4.3255,-4.3583,-4.4792,-4.6035,-4.67,-4.8135,-4.9725,-5.12,-5.1754,-5.2485,-5.4019,-5.4722,-5.5357,-5.5968,-5.6129,-5.6299,-5.6533,-5.5878,-5.5152,-5.4498,-5.4196,-5.3877,-5.3476,-5.2931,-5.2724,-5.3049,-5.2856,-5.3126,-5.3933,-5.2626,-5.2171,-5.2806,-5.1405,-5.0948,-5.1374,-5.1777,-5.216,-5.2491,-5.1782,-5.0686,-4.9326,-4.8894,-4.8626,-4.8545,-4.8545,-4.8714,-4.8923,-4.8576,-4.8416,-4.8289,-4.7373,-4.7036,-4.7104,-4.7671,-4.7803,-4.7671,-4.6542,-4.6381,-4.6366,-4.5223,-4.5364,-4.5903,-4.5903,-4.6381,-4.689,-4.689,-4.6723,-4.655,-4.655,-4.655,-4.6255,-4.5598,-4.5389,-4.462,-4.1928,-4.1027,-4.0411,-3.9707,-3.9418,-3.9511,-4.0545,-4.0099,-3.9362,-3.8582,-3.7133,-3.5288,-3.2985,-3.2207,-3.1536,-3.0995,-3.0898,-3.1074,-3.1484,-3.1523,-3.1816,-3.25,-3.2773,-3.2661,-3.219,-3.0944,-2.9649,-2.847,-2.714,-2.6295,-2.5959,-2.6132,-2.652,-4.1548,-4.1715,-4.2045,-4.2847,-4.4749,-4.6205,-4.5435,-4.6663,-4.8269,-4.9214,-5.0629,-5.2213,-5.3711,-5.4391,-5.5096,-5.6257,-5.6732,-5.7056,-5.7363,-5.7182,-5.6956,-5.6823,-5.6225,-5.5712,-5.5292,-5.5143,-5.4883,-5.4414,-5.3897,-5.3701,-5.3954,-5.3703,-5.3857,-5.4472,-5.3157,-5.2633,-5.3057,-5.1382,-5.0642,-5.0897,-5.1443,-5.1793,-5.1977,-5.1528,-5.0637,-4.9532,-4.9847,-4.9605,-4.9018,-4.9018,-4.9018,-4.9018,-4.9018,-4.9018,-4.8923,-4.8225,-4.7998,-4.8096,-4.8798,-4.8933,-4.869,-4.7599,-4.7225,-4.7114,-4.597,-4.6052,-4.6591,-4.6591,-4.695,-4.7309,-4.7309,-4.7309,-4.7309,-4.7309,-4.7309,-4.6931,-4.5689,-4.4897,-4.3506,-4.0592,-3.9455,-3.9129,-3.9118,-3.8983,-3.9513,-4.1314,-4.0408,-3.9128,-3.8013,-3.6246,-3.3983,-3.1289,-3.1172,-3.1191,-3.1074,-3.1172,-3.1426,-3.1836,-3.1875,-3.2246,-3.3105,-3.2912,-3.2394,-3.1576,-2.9893,-2.86,-2.7613,-2.6267,-2.5785,-2.6079,-2.6293,-2.6707,-4.1244,-4.2762,-4.4663,-4.5346,-4.7216,-4.9058,-4.9763,-5.0507,-5.1458,-5.2916,-5.3281,-5.3778,-5.5277,-5.5537,-5.5849,-5.6729,-5.6866,-5.6922,-5.6998,-5.7011,-5.6665,-5.5857,-5.5703,-5.584,-5.613,-5.5537,-5.5156,-5.5234,-5.4209,-5.3959,-5.4818,-5.4626,-5.4472,-5.4511,-5.4025,-5.2813,-5.0921,-5.038,-4.9934,-4.9667,-5.0435,-5.1242,-5.2013,-5.2064,-5.1656,-5.0998,-5.0279,-4.9605,-4.9018,-4.9018,-4.9018,-4.9018,-4.9018,-4.9018,-4.9018,-4.8956,-4.8923,-4.8923,-4.8984,-4.8821,-4.8423,-4.7548,-4.741,-4.7515,-4.6599,-4.6741,-4.7279,-4.7279,-4.7279,-4.7309,-4.7309,-4.7309,-4.7309,-4.7309,-4.7309,-4.6931,-4.5689,-4.3561,-4.1589,-4.0253,-3.817,-3.7337,-3.9462,-3.9243,-3.9633,-4.1813,-4.0355,-3.8951,-3.884,-3.6219,-3.3664,-3.1662,-3.1875,-3.1953,-3.1543,-3.1894,-3.2305,-3.2734,-3.2754,-3.3144,-3.4004,-3.2301,-3.1612,-3.2384,-2.9122,-2.7643,-2.8297,-2.6696,-2.6092,-2.6373,-2.6386,-2.6707,-4.2973,-4.4915,-4.702,-4.8308,-4.9506,-5.0634,-5.1459,-5.22,-5.3142,-5.4687,-5.4502,-5.4431,-5.544,-5.5574,-5.5886,-5.6836,-5.7842,-5.859,-5.8649,-5.8665,-5.8127,-5.6742,-5.6549,-5.6472,-5.6225,-5.5835,-5.5753,-5.6005,-5.5468,-5.5259,-5.5551,-5.5379,-5.528,-5.528,-5.3819,-5.2574,-5.1601,-5.0043,-4.9675,-5.0398,-5.1756,-5.2527,-5.2821,-5.2827,-5.2196,-5.1086,-5.0823,-5.009,-4.9018,-4.9018,-4.9018,-4.9018,-4.9018,-4.9289,-4.9661,-4.9187,-4.9627,-5.0405,-4.9898,-4.9256,-4.862,-4.861,-4.8198,-4.7588,-4.7141,-4.713,-4.7309,-4.7309,-4.7309,-4.7309,-4.7309,-4.7309,-4.7309,-4.7309,-4.6963,-4.6206,-4.4969,-4.2811,-4.0696,-3.8624,-3.7656,-3.7511,-3.8592,-3.8524,-3.8362,-3.8028,-3.7723,-3.7065,-3.6033,-3.4226,-3.2674,-3.2074,-3.209,-3.2226,-3.2363,-3.25,-3.2891,-3.3594,-3.3633,-3.3887,-3.4473,-3.2988,-3.1608,-3.0615,-2.8676,-2.7303,-2.6406,-2.6107,-2.6106,-2.6386,-2.6587,-2.6881,-4.4641,-4.6782,-4.8955,-5.048,-5.1454,-5.216,-5.2666,-5.3349,-5.4196,-5.5151,-5.4871,-5.4605,-5.5119,-5.495,-5.5036,-5.5969,-5.697,-5.787,-5.8496,-5.8357,-5.7857,-5.7088,-5.6703,-5.6434,-5.6225,-5.575,-5.5748,-5.6438,-5.6107,-5.5909,-5.6018,-5.5805,-5.5434,-5.4818,-5.3666,-5.2547,-5.1533,-5.0081,-4.9823,-5.0839,-5.216,-5.2931,-5.3225,-5.3225,-5.2417,-5.1086,-5.1086,-5.0314,-4.9018,-4.9018,-4.9018,-4.9018,-4.9018,-4.9289,-4.9661,-4.9458,-4.9999,-5.068,-4.9819,-4.9225,-4.8881,-4.872,-4.8213,-4.7494,-4.7332,-4.7309,-4.7309,-4.7309,-4.7309,-4.7309,-4.7309,-4.7309,-4.7252,-4.6934,-4.6538,-4.5591,-4.3498,-4.1642,-3.9546,-3.7044,-3.6221,-3.6295,-3.7199,-3.7998,-3.7934,-3.6537,-3.6639,-3.6144,-3.4286,-3.3331,-3.2793,-3.2637,-3.2891,-3.3125,-3.3242,-3.3398,-3.3711,-3.4258,-3.4297,-3.4492,-3.4922,-3.2702,-3.1028,-3.0161,-2.8026,-2.6556,-2.5678,-2.5972,-2.6266,-2.6547,-2.6734,-2.7041,-4.6228,-4.8331,-5.0608,-5.1995,-5.2942,-5.3518,-5.3551,-5.4106,-5.4635,-5.455,-5.447,-5.4399,-5.4232,-5.3628,-5.3447,-5.4355,-5.4597,-5.5283,-5.6906,-5.6434,-5.6203,-5.6896,-5.6319,-5.5934,-5.6186,-5.5318,-5.5283,-5.6503,0.0,-5.5947,-5.6154,-5.5878,-5.4972,-5.3395,-5.3642,-5.2862,-5.0832,-5.0389,-5.0417,-5.0802,-5.1646,-5.2454,-5.3225,-5.3225,-5.2417,-5.1086,-5.1086,-5.0314,-4.9018,-4.9018,-4.9018,-4.9018,-4.9018,-4.9018,-4.9154,-4.983,-5.0135,-4.9978,-4.8994,-4.8946,-4.9114,-4.8057,-4.7555,-4.7369,-4.7369,-4.7369,-4.7369,-4.7369,-4.7339,-4.7309,-4.7339,-4.7252,-4.7051,-4.6437,-4.6211,-4.516,-4.1588,-4.0037,-3.8413,-3.5699,-3.4306,-3.4087,-3.5602,-3.7458,-3.8429,-3.7149,-3.6957,-3.6157,-3.3701,-3.3848,-3.3945,-3.3535,-3.4219,-3.4551,-3.418,-3.4512,-3.4746,-3.4766,-3.4766,-3.4961,-3.5257,-3.1771,-3.0003,-3.0694,-2.7265,-2.5665,-2.5972,-2.6266,-2.656,-2.6841,-2.6854,-2.7161,-4.7862,-5.0212,-5.2706,-5.3112,-5.3348,-5.3685,-5.42,-5.4878,-5.5221,-5.4613,-5.4012,-5.3156,-5.1935,-5.205,-5.2782,-5.4345,-5.6064,-5.7635,-5.8688,-5.9242,-5.8858,-5.7203,-5.7396,-5.7242,-5.6302,-5.5818,-5.5838,0.0,-5.5538,-5.5274,-5.593,-5.5784,-5.5511,-5.5088,-5.4317,-5.3422,-5.259,-5.1862,-5.1253,-5.0839,-5.2234,-5.3004,-5.3225,-5.3225,-5.2417,-5.1086,-5.1086,-5.0314,-4.9018,-4.9018,-4.9018,-4.9018,-4.9018,-4.9323,-4.983,-5.0033,-5.0356,-5.0482,-4.9458,-4.917,-4.9178,-4.8698,-4.834,-4.8027,-4.8027,-4.8027,-4.8027,-4.8027,-4.7698,-4.7429,-4.7908,-4.7258,-4.6558,-4.6886,-4.5706,-4.4146,-4.2326,-4.0425,-3.8529,-3.6854,-3.6287,-3.614,-3.629,-3.6981,-3.7086,-3.5561,-3.5321,-3.5131,-3.4394,-3.4473,-3.4492,-3.4394,-3.457,-3.4805,-3.5039,-3.5156,-3.5351,-3.5664,-3.5684,-3.5026,-3.3872,-3.146,-2.9679,-2.8688,-2.6542,-2.5758,-2.6279,-2.6573,-2.6867,-2.7161,-2.7375,-2.7562,-4.9863,-5.1682,-5.3518,-5.3518,-5.3518,-5.3448,-5.3186,-5.3688,-5.3831,-5.2343,-5.1646,-5.1004,-4.9986,-5.0216,-5.1143,-5.3144,-5.4887,-5.6687,-5.8688,-5.905,-5.8742,-5.7703,-5.7665,-5.7319,-5.6302,-5.5692,-5.5645,-5.6329,-5.5654,-5.5439,-5.5903,-5.5768,-5.5549,-5.5164,-5.4511,-5.3658,-5.2666,-5.2233,-5.1756,-5.1353,-5.2601,-5.3225,-5.3225,-5.3225,-5.2417,-5.1086,0.0,-5.0314,-4.9018,-4.9018,-4.9018,-4.9052,-4.9357,-4.9729,-5.0168,-5.0811,-5.0928,-5.0725,-4.9995,-4.9483,-4.9032,-4.8337,-4.8006,-4.7848,-4.7848,-4.7848,-4.7848,-4.7848,-4.7788,-4.773,-4.7405,-4.7032,-4.6595,-4.6278,-4.4754,-4.2924,-4.1413,-3.9492,-3.7652,-3.6295,-3.6078,-3.6078,-3.6038,-3.6404,-3.6314,-3.5407,-3.5605,-3.5781,-3.5586,-3.5234,-3.5078,-3.5254,-3.5449,-3.5664,-3.5937,-3.6113,-3.6328,-3.6562,-3.5711,-3.4696,-3.3675,-3.0932,-2.909,-2.8267,-2.6669,-2.5999,-2.6587,-2.6747,-2.7041,-2.7455,-2.7629,-2.7762,-5.1905,-5.2764,-5.3518,-5.3518,-5.3518,-5.3112,-5.1555,-5.1843,-5.1685,-4.9236,-4.8837,-4.8793,-4.8487,-4.8504,-4.9382,-5.185,-5.2837,-5.4541,-5.8064,-5.7674,-5.7389,-5.8204,-5.7511,-5.6802,-5.6263,-5.5376,-5.5299,-5.63,-5.6059,-5.5886,-5.5882,-5.578,-5.5318,-5.4511,-5.4545,-5.3771,-5.2024,-5.2159,-5.2169,-5.2013,-5.2821,-5.3225,-5.3225,-5.3225,-5.2417,-5.1086,-5.1086,0.0,-4.9018,-4.9018,-4.9052,-4.9221,-4.983,-5.0135,-5.0405,-5.1628,-5.1493,-5.0543,-5.0294,-4.9519,-4.8583,-4.7654,-4.7369,-4.7429,-4.7429,-4.7429,-4.7459,-4.7549,-4.782,-4.7762,-4.6842,-4.6709,-4.6546,-4.5156,-4.3517,-4.171,-3.9814,-3.8145,-3.6603,-3.5225,-3.5,-3.5156,-3.5508,-3.5918,-3.6191,-3.6191,-3.6816,-3.7187,-3.6875,-3.6133,-3.5781,-3.6152,-3.6523,-3.6758,-3.6758,-3.709,-3.7305,-3.7305,-3.5364,-3.4036,-3.3892,-3.0383,-2.8354,-2.8417,-2.6918,-2.6319,-2.6934,-2.6934,-2.7215,-2.7762,-2.7762,-2.7896,-5.2653,-5.3165,-5.3518,-5.3518,-5.3518,-5.3112,-5.1555,-5.1843,-5.1546,-4.8522,-4.8434,-4.8651,-4.7767,-4.8143,-4.97,-5.3013,-5.3678,-5.5191,-5.9226,-5.8459,-5.7685,-5.8258,-5.7511,-5.6802,-5.6263,-5.5896,-5.5852,-5.6197,-5.6045,-5.5891,-5.5899,-5.578,-5.5318,-5.4511,-5.48,-5.4009,-5.1994,-5.297,-5.3008,-5.2013,-5.2821,-5.3225,-5.3225,-5.3225,-5.2417,-5.1086,-5.1086,0.0,-4.9018,-4.9018,-4.9357,-4.9898,-5.0033,-5.0473,-5.0986,-5.1023,-5.0445,-4.9512,-4.9205,-4.8745,-4.826,-4.7575,-4.7668,-4.8117,-4.8117,-4.8117,-4.8237,-4.8775,-4.7818,-4.69,-4.8172,-4.6911,-4.5076,-4.4469,-4.3167,-4.1395,-3.8679,-3.7371,-3.6739,-3.6465,-3.6601,-3.6758,-3.6504,-3.6797,-3.707,-3.707,-3.7207,-3.7402,-3.7676,-3.7266,-3.6992,-3.707,-3.7148,-3.7187,-3.7187,-3.7266,-3.7305,-3.7305,-3.5364,-3.3441,-3.1969,-2.9641,-2.7864,-2.6922,-2.6464,-2.672,-2.7549,-2.7549,-2.7722,-2.807,-2.807,-2.8096,-5.3131,-5.3379,-5.3518,-5.3518,-5.3179,-5.2367,-5.0507,-5.0039,-4.9282,-4.6679,-4.6424,-4.6723,-4.687,-4.7196,-4.8627,-5.2085,-5.2265,-5.3583,-5.8178,-5.7412,-5.6856,-5.812,-5.7511,-5.6802,-5.6263,-5.602,-5.5968,-5.6171,-5.6016,-5.5847,-5.5784,-5.5318,-5.4895,-5.4511,-5.3604,-5.2965,-5.2635,-5.2554,-5.2566,-5.2637,-5.3041,-5.3225,-5.3182,-5.2813,-5.227,-5.1635,-5.0838,0.0,-5.0135,-4.9729,-4.9999,-5.071,-5.1082,-5.1454,-5.1729,-5.1483,-5.0709,-4.9828,-4.9447,-4.8858,-4.8297,-4.8327,-4.8536,-4.8805,-4.8805,-4.8805,-4.8746,-4.8286,-4.7788,-4.7195,-4.6892,-4.6114,-4.5103,-4.3752,-4.2017,-4.0015,-3.7688,-3.7074,-3.6992,-3.6992,-3.7168,-3.7226,-3.7031,-3.7344,-3.7617,-3.7617,-3.8008,-3.8359,-3.8555,-3.8633,-3.8379,-3.7695,-3.7617,-3.7617,-3.7617,-3.7832,-3.7499,-3.645,-3.4515,-3.2408,-3.0458,-2.8534,-2.725,-2.6613,-2.6774,-2.7121,-2.7696,-2.7696,-2.7856,-2.8136,-2.8136,-2.8136,-5.3754,-5.3754,-5.3687,-5.3551,-5.2909,-5.1725,-4.9492,-4.8443,-4.7293,-4.506,-4.4587,-4.4961,-4.6209,-4.6224,-4.7295,-5.0787,-5.0447,-5.1532,-5.6568,-5.576,-5.5477,-5.7735,-5.7197,-5.6483,-5.6225,-5.5981,-5.5954,-5.621,-5.6042,-5.5824,-5.5707,-5.4741,-5.4318,-5.4472,-5.287,-5.2372,-5.3208,-5.2394,-5.2382,-5.3225,-5.3225,-5.3225,-5.3146,-5.2427,-5.2122,-5.2112,-5.0628,0.0,0.0,-5.0405,-5.0642,-5.1488,-5.2063,-5.2235,-5.2169,-5.1723,-5.1027,-5.0248,-4.9677,-4.9174,-4.8775,-4.9314,-4.9374,-4.9254,-4.9254,-4.9073,-4.8617,-4.7796,-4.7527,-4.7203,-4.5795,-4.5396,-4.4751,-4.2626,-4.0367,-3.8432,-3.7291,-3.7266,-3.748,-3.7676,-3.7715,-3.7715,-3.7715,-3.8066,-3.834,-3.834,-3.8926,-3.9355,-3.9355,-3.9668,-3.9492,-3.8457,-3.8262,-3.8203,-3.8203,-3.7962,-3.7198,-3.5646,-3.3247,-3.113,-2.9449,-2.7755,-2.6854,-2.6921,-2.7215,-2.7495,-2.7789,-2.7789,-2.7909,-2.8136,-2.8136,-2.8136,-5.4499,-5.4499,-5.4329,-5.3687,-5.2909,-5.1725,-4.9492,-4.8443,-4.7293,-4.506,-4.4587,-4.4961,-4.6209,-4.58,-4.6543,-5.0281,-4.9522,-5.0194,-5.5201,-5.4142,-5.3887,-5.6767,-5.605,-5.5517,-5.6165,-5.5916,-5.5893,-5.6347,-5.6063,-5.5864,-5.5703,-5.4203,-5.3664,-5.4472,-5.4297,-5.3886,-5.3208,-5.3855,-5.3865,-5.3225,-5.3225,-5.3225,-5.3146,-5.2427,-5.2122,-5.2112,-5.0628,0.0,0.0,-5.0405,-5.0913,-5.2198,-5.2266,-5.2133,-5.1822,-5.0898,-5.0264,-4.9687,-4.8732,-4.9134,-5.0062,-5.0122,-4.9763,-4.9254,-4.9254,-4.8374,-4.7615,-4.8546,-4.7086,-4.5554,-4.6863,-4.5213,-4.2527,-4.0082,-3.8473,-3.7583,-3.8223,-3.8125,-3.8105,-3.8867,-3.9023,-3.9023,-3.9023,-3.9414,-3.9726,-3.9726,-3.9785,-3.9824,-3.9824,-3.9863,-3.9844,-3.9726,-3.9336,-3.9082,-3.9082,-3.7072,-3.5664,-3.5497,-3.1863,-2.9589,-2.9449,-2.7755,-2.6947,-2.7228,-2.7509,-2.7802,-2.8096,-2.8096,-2.8123,-2.8136,-2.8136,-2.8136,-5.4192,-5.46,-5.4532,-5.4228,-5.2536,-5.0608,-4.9289,-4.7733,-4.621,-4.4857,-4.4587,-4.4852,-4.5699,-4.5093,-4.5401,-4.8285,-4.7307,-4.7793,-5.251,-5.1585,-5.1769,-5.5415,-5.5071,-5.4944,-5.6066,-5.6064,-5.5818,-5.5394,-5.519,-5.4818,-5.4241,-5.4049,-5.3895,-5.3703,-5.3491,-5.3301,-5.3208,-5.3249,-5.3275,-5.3225,-5.3225,-5.298,-5.2509,-5.2243,-5.2219,-5.2183,-5.1176,0.0,0.0,-5.1758,-5.2063,-5.301,-5.301,-5.2602,-5.1776,-5.0779,-5.0136,-4.9696,-4.8675,-4.9134,-5.0242,-5.0242,-5.0331,-5.0329,-4.9522,-4.8827,-4.8195,-4.7322,-4.633,-4.5669,-4.6527,-4.4717,-4.2243,-4.0146,-3.8788,-3.8164,-3.8496,-3.8867,-3.9219,-3.9551,-3.9609,-3.9609,-3.9609,-3.9766,-3.998,-4.0234,-4.0273,-4.0371,-4.0625,-4.0664,-4.0664,-4.0664,-4.0039,-3.914,-3.7725,-3.6801,-3.5152,-3.2511,-3.0805,-2.9412,-2.8165,-2.7676,-2.7402,-2.7522,-2.7816,-2.803,-2.8136,-2.8136,-2.8136,-2.815,-2.8337,-2.8417,-5.3107,-5.4022,-5.4532,-5.4329,-5.2164,-4.9898,-4.9187,-4.7293,-4.55,-4.4722,-4.4587,-4.4776,-4.5372,-4.4879,-4.5026,-4.7083,-4.6275,-4.6726,-5.0554,-5.0101,-5.0579,-5.3975,-5.3987,-5.4282,-5.5672,-5.6074,-5.5813,-5.4765,-5.4818,-5.4434,-5.3318,-5.428,-5.4472,-5.3626,-5.293,-5.291,-5.3585,-5.3115,-5.2973,-5.3225,-5.298,-5.2744,-5.2426,-5.2059,-5.2158,-5.2546,-5.1571,0.0,0.0,-5.2638,-5.2773,-5.3518,-5.3518,-5.2627,-5.1377,-5.0627,-4.9976,-4.9249,-4.8741,-4.9314,-5.0272,-5.0481,-5.053,-5.0383,-4.8964,-4.8681,-4.8432,-4.6651,-4.5771,-4.5385,-4.5061,-4.354,-4.1689,-3.9799,-3.9109,-3.8809,-3.8945,-3.9355,-3.9766,-4.0039,-4.0078,-4.0078,-4.0078,-4.0195,-4.0371,-4.0664,-4.0723,-4.082,-4.1133,-4.1172,-4.0997,-4.0353,-3.9662,-3.8629,-3.6904,-3.5521,-3.3421,-3.042,-2.9793,-2.8853,-2.7431,-2.7549,-2.7696,-2.7696,-2.7989,-2.8136,-2.8136,-2.8136,-2.8136,-2.815,-2.8457,-2.834,-5.0975,-5.2733,-5.4397,-5.3687,-5.1792,-4.9898,-4.9187,-4.7293,-4.55,-4.4722,-4.4587,-4.4776,-4.5372,-4.5334,-4.5676,-4.7155,-4.7223,-4.7832,-4.9924,-5.0145,-5.074,-5.2425,-5.2753,-5.3368,-5.4774,-5.5801,-5.5917,-5.4797,-5.5434,0.0,-5.349,-5.4857,-5.5318,-5.4511,-5.3235,-5.3204,-5.4484,-5.4048,-5.3604,-5.3225,-5.2427,-5.2509,-5.3135,-5.1821,-5.1983,-5.3307,0.0,0.0,0.0,-5.2638,-5.2773,-5.3518,-5.3518,-5.2274,-5.0397,-5.0397,-4.9521,-4.8386,-4.9015,-4.9673,-5.0361,-5.099,-5.0287,-4.8964,-4.7503,-4.7509,-4.7695,-4.691,-4.5648,-4.3961,-4.2266,-4.151,-4.0655,-3.8438,-3.8574,-3.9316,-3.9785,-3.9531,-3.9473,-4.0351,-4.0508,-4.0508,-4.0508,-4.0879,-4.1172,-4.1172,-4.1172,-4.1172,-4.1172,-4.1172,-4.0353,-3.8231,-3.7896,-3.7733,-3.7355,-3.2984,-3.042,-3.026,-2.8367,-2.7268,-2.7268,-2.7549,-2.7696,-2.7696,-2.7989,-2.8136,-2.8136,-2.8136,-2.8136,-2.815,-2.8457,-2.7669,-4.8828,-5.0265,-5.1123,-5.0492,-4.908,-4.7767,-4.753,-4.6177,-4.4857,-4.4621,-4.4587,-4.4529,-4.4116,-4.4222,-4.4713,-4.5766,-4.611,-4.6984,-4.903,-4.9809,-5.0772,-5.2425,-5.3571,-5.4453,-5.4966,0.0,-5.4951,-5.3891,-5.5028,-5.5011,-5.3356,-5.428,-5.4741,-5.4511,-5.4101,-5.408,-5.4484,-5.3758,-5.3318,-5.3225,-5.2971,-5.2723,-5.2517,-5.2101,-5.189,0.0,0.0,0.0,0.0,-5.301,-5.3281,-5.3518,-5.3518,-5.2274,-5.0461,-5.0941,-5.0206,-4.8985,-4.9194,-5.0002,-5.0683,-4.9509,-4.9204,-4.8823,-4.6886,-4.641,-4.6213,-4.4536,-4.4546,-4.4243,-4.135,-4.0944,-4.0737,-3.8813,-3.8789,-3.9336,-3.9805,-4.0,-4.0273,-4.0859,-4.0976,-4.0976,-4.0976,-4.1074,-4.1172,-4.1172,-4.1172,-4.1172,-4.1172,-3.9864,-3.8706,-3.7896,-3.5298,-3.3465,-3.3353,-3.1956,-3.0451,-2.8994,-2.819,-2.7869,-2.7869,-2.7949,-2.8003,-2.8003,-2.8096,-2.8136,-2.8136,-2.8136,-2.835,-2.8764,-2.9072,-2.733,-4.6455,-4.7845,-4.8584,-4.8726,-4.7531,-4.6394,-4.6727,-4.5635,-4.4485,-4.4215,-4.4147,-4.391,-4.3132,-4.3568,-4.4208,-4.4749,-4.5703,-4.6801,-4.8048,-4.9504,-5.1058,-5.2752,-5.4146,-5.4996,0.0,-5.5296,-5.5093,-5.4413,-5.5182,-5.5241,-5.4203,-5.4664,-5.4891,-5.4741,-5.4249,-5.4182,-5.4484,-5.3641,-5.306,-5.2769,-5.2522,-5.2197,-5.1801,-5.1578,-5.1384,0.0,0.0,0.0,0.0,-5.3179,-5.3518,-5.345,-5.3041,-5.1849,-5.0384,-5.0406,-4.9758,-4.8925,-4.9164,-4.9667,-4.9904,-4.8934,-4.8297,-4.7723,-4.6257,-4.5892,-4.5655,-4.3892,-4.4008,-4.386,-4.09,-4.0489,-4.0387,-3.8924,-3.916,-3.9746,-3.9863,-4.0234,-4.0644,-4.1094,-4.1172,-4.1172,-4.1172,-4.1172,-4.1172,-4.1172,-4.1172,-4.1172,-4.1172,-3.9216,-3.7578,-3.6762,-3.3512,-3.1076,-3.026,-3.026,-2.9607,-2.8305,-2.8136,-2.8136,-2.8136,-2.8136,-2.8136,-2.8136,-2.8136,-2.8203,-2.8323,-2.843,-2.8791,-2.9379,-2.9566,-2.7739,0.0,-4.5309,-4.6389,-4.7795,-4.6717,-4.5549,-4.638,-4.55,0.0,-4.3572,-4.3369,-4.3132,-4.2422,-4.3235,-4.4041,-4.4112,-4.5662,-4.6985,-4.7169,-4.937,-5.1635,-5.3374,-5.4477,-5.5034,-5.4921,-5.5613,-5.6019,-5.5822,-5.5742,-5.5703,-5.5703,-5.5682,-5.5508,-5.5134,-5.3883,-5.3628,-5.4452,-5.3565,-5.2813,-5.2159,-5.1465,-5.1154,-5.1269,-5.0503,-5.0473,0.0,0.0,0.0,0.0,-5.3145,-5.3518,-5.3416,-5.2312,-5.1303,-5.0274,-4.934,-4.8675,-4.8446,-4.9164,-4.8904,-4.8384,-4.8821,-4.7515,-4.5872,-4.5664,-4.5779,-4.5795,-4.4673,-4.3693,-4.2698,-4.0814,-4.0161,-3.9648,-3.8867,-3.959,-4.0371,-4.0019,-4.0254,-4.0644,-4.1094,-4.1172,-4.1172,-4.1172,-4.1172,-4.1172,-4.1172,-4.1172,-4.1172,-4.1016,-3.9059,-3.6797,-3.4668,-3.2561,-3.0455,-2.8305,-2.8136,-2.8136,-2.8136,-2.8136,-2.815,-2.8177,-2.8177,-2.819,-2.8203,-2.8203,-2.8364,-2.8671,-2.8965,-2.9392,-2.9953,-2.9967,-2.8975,-4.0209,0.0,-4.2754,-4.2653,-4.317,-4.3878,0.0,-4.3863,-4.3639,-4.347,-4.2963,-4.2489,-4.232,-4.277,-4.3359,-4.4005,-4.4758,-4.5912,-4.7784,-5.0672,-5.2836,-5.3406,-5.4336,-5.4429,-5.3072,-5.4315,-5.5151,-5.4993,-5.5434,-5.5703,-5.5703,-5.5399,-5.5186,-5.5107,-5.4161,-5.3755,-5.3941,-5.292,-5.2554,-5.2937,-5.1723,-5.1459,-5.1931,-5.0678,-5.0168,0.0,0.0,0.0,-5.1589,-5.2942,-5.3518,-5.3416,-5.2312,-5.1303,-5.037,-5.032,-4.9774,-4.9194,-5.0361,-4.9934,-4.8722,-4.7202,-4.6225,-4.5664,-4.6018,-4.5183,-4.4046,-4.3257,-4.2078,-4.0856,-3.9433,-3.918,-3.9394,-3.9551,-3.9824,-4.0098,-4.0332,-4.0449,-4.0644,-4.1094,-4.1172,-4.1172,-4.1172,-4.1172,-4.1172,-4.1172,-4.1172,-4.0529,-3.8882,-3.7007,-3.4785,-3.2397,-3.049,-2.89,-2.8332,-2.8136,-2.8136,-2.8136,-2.8136,-2.8243,-2.8484,-2.8497,-2.8604,-2.8818,-2.8831,-2.8978,-2.9285,-2.9566,-2.99,-3.0261,-3.0488,-2.9448,-3.8302,-3.9315,-4.0323,-4.0986,-4.1428,-4.1848,-4.2616,-4.2617,-4.2411,-4.2402,-4.2083,-4.1677,-4.1339,-4.1916,-4.2554,-4.2979,-4.4449,-4.6382,-4.8764,-5.0761,-5.2334,-5.3391,-5.4021,-5.4359,0.0,-5.4894,-5.5183,-5.4724,-5.5148,-5.527,-5.4848,-5.4825,-5.4731,-5.451,-5.3757,-5.3495,-5.3795,-5.2667,-5.2112,-5.2196,-5.1173,-5.0657,-5.0714,-4.9896,-4.9763,0.0,0.0,0.0,-5.1826,-5.301,-5.3518,-5.3348,-5.1776,-5.1048,-5.0738,-4.9974,-4.967,-4.9702,-4.9799,-4.8907,-4.7383,-4.5511,-4.5234,-4.5648,-4.6451,-4.4905,-4.3074,-4.3152,-4.2123,-4.051,-3.9169,-3.918,-3.9531,-3.957,-4.0039,-4.0488,-4.0527,-4.0684,-4.0898,-4.1133,-4.1172,-4.1172,-4.1172,-4.1172,-4.123,-4.1426,-4.0621,-3.9552,-3.858,-3.5642,-3.3364,-3.2038,-3.0027,-2.8684,-2.8377,-2.835,-2.8297,-2.815,-2.8283,-2.843,-2.8604,-2.8738,-2.8885,-2.9032,-2.9179,-2.9392,-2.9686,-2.998,-3.0341,-3.0755,-3.0915,-3.0382,-3.7255,-3.7743,-3.8711,-4.0554,-4.038,-4.0069,-4.1531,-4.1535,-4.1211,-4.1235,-4.1102,-4.0917,-4.0476,-4.1279,-4.2065,-4.2257,-4.493,-4.7792,-5.0152,-5.0859,-5.1749,-5.3366,-5.3937,0.0,-5.5827,-5.592,-5.5588,-5.4814,-5.4981,-5.4737,-5.396,-5.4231,-5.4187,-5.3646,-5.3023,-5.2899,-5.3415,-5.2318,-5.1544,-5.1086,-5.0258,-4.9605,-4.9168,-4.9182,-4.9492,-5.0135,0.0,0.0,-5.2367,-5.3179,-5.3416,-5.3041,-5.1187,-5.0689,-5.0897,-4.9113,-4.9194,-4.9965,-4.8519,-4.7094,-4.5642,-4.432,-4.4744,-4.5924,-4.6954,-4.5086,-4.2996,-4.3911,-4.2603,-4.072,-3.9702,-3.9687,-3.9902,-3.957,-4.0351,-4.1074,-4.0703,-4.0918,-4.1172,-4.1172,-4.1172,-4.1191,-4.125,-4.1269,-4.1406,-4.1836,-3.9906,-3.8365,-3.8523,-3.4935,-3.2267,-3.1881,-3.0045,-2.8925,-2.8631,-2.8564,-2.8444,-2.823,-2.8457,-2.8644,-2.8738,-2.9018,-2.9179,-2.9179,-2.9472,-2.9753,-3.0047,-3.0341,-3.0768,-3.1289,-3.1289,-3.1423,-3.6477,-3.7157,-3.7763,-3.7986,-3.8955,-3.9907,-4.0151,-4.0776,-4.1182,-4.1186,-4.0696,-4.0594,-4.1567,-4.2356,-4.3195,-4.433,-4.7117,-4.9872,0.0,0.0,-5.3887,-5.3492,0.0,-5.5299,-5.3984,-5.5105,-5.5654,-5.5059,0.0,-5.4895,-5.442,-5.4078,-5.3609,-5.2987,-5.2462,-5.1993,-5.1508,-5.0735,-5.0608,-5.1086,-4.978,-4.9436,-4.9838,-4.9903,-4.9965,-5.0168,0.0,-5.2198,-5.2367,-5.3179,-5.2939,-5.1993,-5.0855,-5.0264,-5.0009,-4.9398,-4.9583,-4.9931,-4.79,-4.6723,-4.5695,-4.4776,-4.5573,-4.7004,-4.7606,-4.6133,-4.447,-4.5028,-4.2496,-3.9574,-4.0098,-4.0371,-4.0508,-4.0801,-4.1035,-4.1152,-4.1094,-4.1133,-4.1172,-4.1172,-4.1172,-4.1289,-4.1641,-4.1699,-4.1836,-4.2266,-4.0316,-3.8177,-3.6375,-3.4157,-3.1859,-2.974,-2.9206,-2.8925,-2.8631,-2.8364,-2.831,-2.8524,-2.8577,-2.8831,-2.9325,-2.9633,-2.978,-2.978,-3.0074,-3.0368,-3.0662,-3.0955,-3.1263,-3.1597,-3.1597,-3.1623,-3.6371,-3.6783,-3.7157,-3.753,-3.8432,-3.9386,-3.98,-3.9929,-4.006,-4.0544,-4.0557,-4.0865,-4.1947,-4.2891,-4.4361,-4.705,0.0,-5.1066,-5.2203,-5.3028,-5.3486,0.0,0.0,-5.4788,-5.473,-5.5206,-5.5173,-5.4459,0.0,0.0,-5.3444,-5.3077,-5.2718,-5.2417,-5.1472,-5.0823,-5.05,-4.9838,-4.9838,-5.05,-4.9872,-4.9542,-4.9496,-4.9916,-5.0304,-5.0744,0.0,-5.2198,-5.2909,-5.2702,-5.2312,-5.1776,-5.0133,-4.9872,-5.0375,-5.0366,-4.9581,-4.8395,-4.7782,-4.6517,-4.5206,-4.5128,-4.6024,-4.723,-4.7757,-4.6156,-4.4447,-4.5207,-4.2585,-3.9726,-4.0351,-4.0527,-4.0566,-4.0781,-4.0996,-4.1172,-4.1172,-4.1172,-4.1172,-4.1172,-4.1348,-4.1562,-4.1758,-4.1992,-4.2285,-4.2715,-3.9723,-3.7265,-3.6455,-3.3225,-3.0696,-2.9526,-2.9513,-2.9392,-2.9112,-2.8951,-2.8858,-2.8845,-2.8991,-2.9339,-2.9927,-3.0087,-3.0234,-3.0381,-3.0528,-3.0742,-3.1022,-3.1156,-3.1383,-3.1664,-3.1664,-3.1664,-3.6165,-3.6631,-3.7024,-3.7648,-3.8322,-3.894,-3.9565,-3.9653,-3.9863,-4.0442,-4.1181,-4.1869,-4.2607,-4.3764,-4.5801,-4.941,-5.1064,-5.2079,-5.2605,-5.3128,-5.3529,-5.3867,-5.4078,-5.4661,-5.5784,-5.5389,-5.4775,0.0,0.0,0.0,-5.2716,-5.2462,-5.2206,-5.1874,-5.0999,-5.0263,-4.978,-4.9426,-4.9426,-4.978,-4.9835,-4.956,-4.9052,-4.9932,-5.0676,-5.1251,-5.1589,-5.2269,-5.3041,-5.2241,-5.1598,-5.1005,-4.9613,-4.9727,-5.0682,-5.1208,-4.9687,-4.7398,-4.7901,-4.6694,-4.492,-4.5497,-4.6426,-4.7405,-4.7958,-4.6669,-4.5002,-4.5348,-4.3172,-4.0841,-4.0739,-4.0684,-4.0684,-4.0684,-4.0937,-4.1172,-4.1172,-4.1172,-4.1172,-4.1172,-4.1504,-4.1836,-4.1933,-4.2305,-4.2734,-4.3164,-3.9289,-3.65,-3.6797,-3.269,-2.9913,-2.9913,-2.986,-2.97,-2.9406,-2.9446,-2.9392,-2.9152,-2.9352,-2.9753,-3.0341,-3.0354,-3.0501,-3.0782,-3.0862,-3.0996,-3.1223,-3.1289,-3.145,-3.1664,-3.1664,-3.1664,-3.5554,-3.66,-3.7764,-3.7822,-3.8334,-3.892,-3.8974,-4.0527,-4.1981,-4.2064,-4.3068,-4.3993,-4.4198,-4.5648,-4.772,-5.0685,-5.2044,-5.3137,-5.4331,0.0,-5.5769,-5.4917,-5.5539,-5.5997,-5.5917,-5.5389,0.0,0.0,0.0,0.0,-5.3198,-5.3109,-5.2509,-5.1189,-5.1741,-5.1102,-4.9107,-4.9723,-4.9723,-4.9046,-4.9052,-4.9052,-4.9052,-5.0473,-5.1183,-5.1285,-5.2706,-5.2838,-5.1993,-5.1921,-5.0747,-4.9035,-4.9522,-4.9952,-5.0393,-5.1648,-5.0353,-4.7929,-4.8613,-4.7304,-4.5522,-4.6075,-4.6979,-4.7958,-4.8535,-4.8436,-4.7584,-4.5833,-4.4646,-4.3428,-4.1559,-4.1133,-4.1133,-4.1133,-4.1152,-4.1172,-4.1172,-4.1172,-4.1172,-4.1172,-4.1504,-4.1933,-4.2305,-4.2734,-4.3183,-4.3594,-3.9698,-3.6797,-3.683,-3.269,-2.9913,-2.9913,-2.9673,-2.9392,-2.9098,-2.9325,-2.9472,-2.9459,-2.9472,-2.9753,-3.0341,-3.0354,-3.0501,-3.0782,-3.1049,-3.1209,-3.1223,-3.1503,-3.165,-3.1664,-3.1664,-3.1664,-3.607,-3.6995,-3.7937,-3.8358,-3.9102,-3.9662,-3.9662,-4.0998,-4.2042,-4.1522,-4.3182,-4.4939,-4.5542,-4.7437,-4.9315,-5.0469,-5.2155,-5.3468,-5.4062,-5.4521,-5.4611,-5.415,-5.4319,-5.4507,-5.4585,0.0,0.0,0.0,0.0,0.0,-5.3225,-5.2769,-5.2289,-5.1741,-5.1193,-5.0459,-4.9605,-4.9467,-4.9289,-4.9018,-4.9458,-4.9424,-4.9052,-5.0067,-5.0777,-5.1186,-5.1162,-5.1413,-5.1776,-5.0518,-4.9756,-4.9501,-4.987,-5.0125,-5.0361,-5.1259,-5.0613,-4.9257,-4.8936,-4.794,-4.6837,-4.6863,-4.7305,-4.8083,-4.9012,-4.8802,-4.8025,-4.6359,-4.5053,-4.3642,-4.1753,-4.1172,-4.1172,-4.1172,-4.1172,-4.1172,-4.1172,-4.1172,-4.125,-4.1504,-4.1894,-4.2402,-4.3105,-4.3359,-4.3613,-4.4062,-3.9912,-3.683,-3.683,-3.269,-2.9913,-2.9913,-2.998,-2.998,-2.9873,-3.0127,-3.0221,-3.0034,-2.986,-3.002,-3.0608,-3.0635,-3.0849,-3.133,-3.145,-3.1503,-3.1503,-3.161,-3.1664,-3.1664,-3.1664,-3.1664,-3.589,-3.7046,-3.8157,-3.8231,-3.9324,-4.0368,-4.0368,-4.1657,-4.273,-4.2316,-4.4057,-4.5914,-4.66,-4.8251,-4.9641,0.0,-5.1842,-5.3276,-5.3371,-5.3625,-5.3644,-5.3236,-5.3293,-5.3584,-5.3986,0.0,0.0,0.0,0.0,0.0,0.0,-5.2725,-5.2335,-5.2112,-5.1438,-5.0724,-5.0033,-4.982,-4.9433,-4.9018,-4.9492,-4.9492,-4.9018,-4.9763,-5.0345,-5.0726,-5.0218,-5.0412,-5.0822,-4.9376,-4.9119,-4.9647,-5.0035,-5.0361,-5.0631,-5.1289,-5.1023,-5.0414,-4.9981,-4.8982,-4.7906,-4.8043,-4.7977,-4.8159,-4.9464,-4.952,-4.8923,-4.744,-4.6065,-4.4527,-4.2637,-4.1618,-4.1172,-4.1172,-4.1172,-4.1172,-4.1172,-4.1269,-4.1465,-4.1738,-4.2246,-4.2812,-4.3398,-4.373,-4.4043,-4.4355,-4.0232,-3.7177,-3.7177,-3.2983,-3.0194,-3.0194,-3.0381,-3.0501,-3.0501,-3.0675,-3.0715,-3.0515,-3.0301,-3.0368,-3.0768,-3.0875,-3.1169,-3.1664,-3.1664,-3.1664,-3.1664,-3.1664,-3.1664,-3.1664,-3.1664,-3.1664,-3.4874,-3.6636,-3.8548,-3.7173,-3.8907,-4.0886,-4.0886,-4.2622,-4.4377,-4.4998,-4.612,-4.7106,-4.7424,-4.7949,-4.8585,-4.9452,-5.1203,-5.2473,-5.2487,-5.3232,-5.3417,-5.2416,-5.2935,-5.3646,0.0,0.0,0.0,0.0,0.0,0.0,0.0,-5.3225,-5.2893,-5.2112,-5.2786,-5.2141,-5.0033,-5.083,-5.0454,-4.9018,-4.9018,-4.9018,-4.9018,-4.9763,-4.9923,-4.9743,-5.0434,-4.9995,-4.8841,-4.8841,-4.9035,-4.9344,-5.0002,-5.0661,-5.1289,-5.1947,-5.1699,-5.1075,-5.1811,-5.0462,-4.8716,-4.9877,-4.9212,-4.8209,-4.9916,-5.082,-5.0971,-4.9451,-4.809,-4.6588,-4.4527,-4.2637,-4.1172,-4.1172,-4.1172,-4.1172,-4.1172,-4.1504,-4.1797,-4.1816,-4.25,-4.3086,-4.3105,-4.3828,-4.4414,-4.4414,-4.0696,-3.7903,-3.7903,-3.3641,-3.0795,-3.0795,-3.0795,-3.0795,-3.0795,-3.0795,-3.0795,-3.0795,-3.0795,-3.0795,-3.0795,-3.1076,-3.137,-3.1664,-3.1664,-3.1664,-3.1664,-3.1664,-3.1664,-3.1664,-3.1664,-3.1664,-3.5217,-3.5917,-3.6896,-3.7882,-3.9146,-4.0488,-4.1872,-4.313,-4.4578,-4.6506,-4.7191,-4.7452,-4.7604,-4.8001,0.0,-4.889,-4.9971,-5.0933,-5.1513,-5.1774,-5.177,-5.1337,-5.1414,-5.1718,0.0,0.0,0.0,0.0,0.0,0.0,0.0,-5.3225,-5.3103,-5.2893,-5.2138,-5.1402,-5.077,-5.0021,-4.9433,-4.9018,-4.9018,-4.9018,-4.9018,-4.8523,-4.8862,-4.9641,-4.8403,-4.8279,-4.8821,-4.9078,-4.9251,-4.9374,-5.0481,-5.105,-5.1289,-5.1947,-5.2316,-5.2516,-5.2121,-5.1889,-5.1514,-5.0559,-4.9913,-4.9722,-5.076,-5.1147,-5.1046,-5.007,-4.839,-4.6588,-4.4527,-4.2637,-4.1172,-4.1172,-4.1172,-4.125,-4.1543,-4.1719,-4.1973,-4.2578,-4.3144,-4.3711,-4.4336,-4.4668,-4.4941,-4.5254,-4.2636,-3.9333,-3.5958,-3.276,-3.0795,-3.0795,-3.0982,-3.1089,-3.1089,-3.1289,-3.141,-3.141,-3.141,-3.1316,-3.1102,-3.1183,-3.137,-3.1664,-3.1664,-3.1664,-3.1664,-3.1664,-3.1664,-3.1664,-3.1664,-3.1664,-3.5488,-3.6278,-3.7242,-3.817,-3.9534,-4.1082,-4.285,-4.3833,-4.4963,-4.7031,-4.7224,-4.7159,-4.7373,-4.7681,0.0,-4.8155,-4.8938,-4.984,-5.061,-5.0642,-5.0666,-5.0856,-5.0779,-5.0911,0.0,0.0,0.0,0.0,0.0,0.0,0.0,-5.3041,-5.3078,-5.2747,-5.1921,-5.12,-5.0626,-4.978,-4.9256,-4.9018,-4.9018,-4.9154,-4.9424,-4.8852,-4.8794,-4.9044,-4.8026,-4.7742,-4.8248,-4.8952,-4.9254,-4.9404,-5.069,-5.1229,-5.1289,-5.1947,-5.2606,-5.3166,-5.2994,-5.2891,-5.2844,-5.1462,-5.0724,-5.0306,-5.0814,-5.0946,-5.088,-5.0832,-4.8801,-4.649,-4.5509,-4.3228,-4.1172,-4.1172,-4.1172,-4.1289,-4.1699,-4.1933,-4.2305,-4.3164,-4.3672,-4.4199,-4.4902,-4.5176,-4.5371,-4.5644,-4.2711,-3.9227,-3.5273,-3.2575,-3.1142,-3.1142,-3.1396,-3.153,-3.141,-3.1784,-3.1971,-3.1851,-3.1957,-3.1944,-3.1757,-3.1637,-3.1664,-3.1837,-3.1837,-3.1784,-3.1664,-3.1784,-3.1837,-3.1837,-3.1837,-3.1904,-3.5931,-3.7308,-3.8722,-3.832,-4.0158,-4.2354,-4.368,-4.4617,-4.5514,-4.6684,-4.6681,-4.6598,-4.6954,-4.712,-4.7261,-4.7395,-4.8178,-4.9025,-4.9776,-4.9778,-4.9952,-5.0702,-5.0664,-5.0894,-5.1702,0.0,0.0,0.0,0.0,0.0,-5.183,-5.2637,-5.2747,-5.2013,-5.2028,-5.137,-5.0008,-4.9966,-4.9605,-4.9018,-4.9018,-4.9328,-4.994,-4.994,-4.9292,-4.8297,-4.8653,-4.821,-4.7399,-4.8656,-4.9224,-4.9404,-5.0631,-5.1169,-5.1319,-5.2037,-5.2665,-5.3294,-5.4042,-5.3802,-5.3164,-5.2743,-5.1638,-5.0469,-5.0511,-5.055,-5.0645,-5.1505,-4.906,-4.6279,-4.6624,-4.3966,-4.1172,-4.1172,-4.1211,-4.1348,-4.1758,-4.2187,-4.2734,-4.3594,-4.4141,-4.459,-4.5,-4.5469,-4.5801,-4.584,-4.1978,-3.8343,-3.5972,-3.338,-3.1717,-3.1744,-3.1931,-3.1971,-3.177,-3.2211,-3.2412,-3.2198,-3.2412,-3.2572,-3.2625,-3.2318,-3.2144,-3.2144,-3.2144,-3.2011,-3.1744,-3.2011,-3.2144,-3.2144,-3.2144,-3.2291,-3.7067,-3.7321,-3.7751,-3.9658,-4.1861,-4.3615,-4.3937,-4.4568,-4.5352,-4.6259,-4.7116,-4.7588,-4.7242,-4.7171,-4.7267,-4.7537,-4.7729,-4.8123,-4.8876,-4.8839,-4.9048,-4.9798,-4.9779,-5.001,-5.0856,0.0,0.0,0.0,0.0,0.0,-5.1022,-5.183,-5.216,-5.2013,-5.1574,-5.117,-5.0838,-4.9769,-4.9168,0.0,-4.9018,-4.8979,-4.8961,-4.8961,-4.8583,-4.7949,-4.855,-4.821,-4.7369,-4.8177,-4.8805,-4.9344,-5.0122,-5.078,-5.1379,-5.2546,-5.3054,-5.3354,-5.4551,-5.4857,-5.4643,-5.4432,-5.3247,-5.1964,-5.2181,-5.1383,-5.0356,-4.9883,-4.8027,-4.5989,-4.4998,-4.2922,-4.1172,-4.1172,-4.1426,-4.1777,-4.2207,-4.2637,-4.3203,-4.4082,-4.459,-4.5039,-4.5469,-4.6172,-4.6777,-4.7109,-4.2957,-3.9649,-3.9088,-3.4944,-3.2091,-3.2332,-3.1998,-3.1917,-3.2318,-3.2251,-3.2372,-3.2759,-3.2639,-3.2746,-3.32,-3.2719,-3.2452,-3.2452,-3.2452,-3.2425,-3.2358,-3.2425,-3.2452,-3.2452,-3.2452,-3.2478,-3.7927,-3.8114,-3.8415,-4.0664,-4.2298,-4.3487,-4.3906,-4.4455,-4.501,-4.5627,-4.6416,-4.6894,-4.6624,-4.6654,-4.6745,-4.6948,-4.6992,-4.7226,-4.7969,-4.7946,-4.8145,-4.8893,-4.8856,-4.9125,-4.9971,0.0,0.0,0.0,0.0,-4.9774,-5.0178,-5.0986,-5.1242,-5.0839,-5.0677,-5.0378,-4.9937,-4.932,-4.9018,-4.9018,-4.9357,-4.9813,-5.0359,-4.9473,-4.9052,-4.9032,-4.8898,-4.821,-4.7369,-4.8027,-4.8686,-4.9344,-4.9972,-5.084,-5.1798,-5.2815,-5.3384,-5.3803,-5.485,-5.5179,-5.5126,-5.4546,-5.3444,-5.2322,-5.2013,-5.1202,-5.0174,-4.8995,-4.7536,-4.5843,-4.4421,-4.2637,-4.123,-4.1426,-4.1641,-4.1914,-4.2344,-4.293,-4.3633,-4.4531,-4.5039,-4.5527,-4.6172,-4.6816,-4.6947,-4.5857,-4.2504,-3.9691,-3.8371,-3.4852,-3.2318,-3.2332,-3.2305,-3.2305,-3.2332,-3.2572,-3.2799,-3.2973,-3.2973,-3.3093,-3.34,-3.312,-3.2893,-3.2759,-3.2746,-3.2679,-3.2545,-3.2692,-3.2746,-3.2746,-3.2746,-3.2826,-3.8689,-3.9295,-3.9868,-4.1376,-4.2346,-4.3141,-4.3844,-4.4346,-4.4776,-4.5033,-4.5457,-4.5774,-4.5896,-4.5989,-4.6138,-4.6282,-4.6289,-4.6523,-4.7109,-4.7055,-4.7268,-4.8022,-4.7989,-4.824,-4.9086,0.0,0.0,0.0,0.0,-4.9297,-4.915,-5.0068,-5.0215,-4.937,-4.9733,-4.9584,-4.8947,-4.8953,-4.9018,-4.9018,-4.9864,-5.098,-5.2234,-5.0576,-5.0048,-5.032,-4.9456,-4.8377,-4.7339,-4.7908,-4.8566,-4.9314,-4.9853,-5.087,-5.2127,-5.2905,-5.3533,-5.4132,-5.491,-5.5179,-5.5066,-5.438,-5.3411,-5.2328,-5.1629,-5.0965,-4.9967,-4.8249,-4.7046,-4.5843,-4.397,-4.235,-4.1289,-4.1699,-4.1855,-4.2031,-4.2441,-4.3223,-4.4062,-4.4863,-4.5488,-4.6133,-4.6914,-4.7402,-4.6772,-4.4379,-4.1935,-3.9304,-3.6666,-3.4157,-3.2545,-3.2345,-3.2679,-3.2746,-3.2358,-3.2946,-3.3253,-3.3066,-3.328,-3.3414,-3.3414,-3.3414,-3.3293,-3.3053,-3.3053,-3.2933,-3.2692,-3.2933,-3.3053,-3.3053,-3.3053,-3.3187,-3.9525,-4.0664,-4.1498,-4.1732,-4.2813,-4.3844,-4.3967,-4.4535,-4.5071,0.0,-4.5381,-4.5665,-4.5869,-4.5911,-4.5998,-4.6247,-4.6289,-4.6328,-4.6445,-4.6231,-4.6374,-4.7268,-4.7181,-4.7394,-4.8202,-4.8237,0.0,0.0,-4.8447,-4.8159,-4.7498,-4.8893,-4.9334,-4.8489,-4.941,-4.9867,-4.9725,-4.9251,-4.9018,-4.9018,-5.0405,-5.1488,-5.2267,-5.1777,-5.1132,-5.0397,-5.0242,-4.9085,-4.7309,-4.7399,-4.8147,-4.9284,-4.9374,-5.0182,-5.1498,-5.2725,-5.3234,-5.3503,-5.476,-5.5179,-5.5299,-5.5722,-5.4345,-5.2443,-5.2904,-5.1812,-4.9702,-4.6703,-4.5931,-4.5552,-4.2382,-4.1308,-4.1289,-4.1699,-4.207,-4.2461,-4.2891,-4.3691,-4.4453,-4.4941,-4.5957,-4.6914,-4.7402,-4.7851,-4.7289,-4.5161,-4.2726,-4.0029,-3.7538,-3.4605,-3.3,-3.3213,-3.2853,-3.2772,-3.32,-3.312,-3.3133,-3.3334,-3.3387,-3.3414,-3.3414,-3.3414,-3.3387,-3.336,-3.336,-3.3334,-3.3293,-3.3334,-3.336,-3.336,-3.336,-3.3374,-3.9562,-4.0672,-4.1385,-4.1725,-4.2546,-4.3385,-4.3875,-4.4428,-4.4872,-4.5033,-4.5381,-4.5654,-4.5877,-4.5974,-4.6072,-4.6289,-4.6289,-4.6289,-4.6289,-4.6075,-4.6053,-4.6442,-4.6296,-4.6416,-4.7047,-4.696,-4.6939,0.0,-4.7085,-4.6801,-4.6471,-4.7572,-4.8012,-4.7645,-4.8263,-4.8806,-4.923,-4.8701,-4.8815,-4.9627,-5.071,-5.1589,-5.2334,-5.2672,-5.1954,-5.0397,-4.9773,-4.8708,-4.7309,-4.7309,-4.8087,-4.9254,-4.9254,-5.0301,-5.1828,-5.2426,-5.3114,-5.3832,-5.4431,-5.488,-5.5299,-5.5957,-5.4454,-5.2614,-5.3551,-5.2411,-5.0171,-4.6836,-4.619,-4.5756,-4.2156,-4.1172,-4.1348,-4.1992,-4.2285,-4.2676,-4.3613,-4.4316,-4.5019,-4.5918,-4.6738,-4.7422,-4.7851,-4.7125,-4.5553,-4.3244,-4.0561,-3.805,-3.555,-3.4077,-3.3213,-3.3173,-3.3093,-3.3066,-3.316,-3.32,-3.328,-3.34,-3.3414,-3.3494,-3.3668,-3.3681,-3.3748,-3.3921,-3.3587,-3.3414,-3.3414,-3.3414,-3.3507,-3.3681,-3.3681,-3.3761,-3.958,-4.048,-4.1024,-4.1682,-4.2262,-4.2922,-4.3812,-4.4318,-4.4701,0.0,-4.5381,-4.5663,-4.5873,-4.5987,-4.6087,-4.6289,-4.6289,-4.6289,-4.6289,-4.6075,-4.5897,-4.5885,-4.5719,-4.5744,-4.6105,-4.5924,-4.5933,-4.627,-4.6052,-4.581,-4.5626,-4.6544,-4.7021,-4.6801,-4.7331,-4.7957,-4.865,-4.8335,-4.8849,-5.0101,-5.0676,-5.142,-5.2334,-5.2909,-5.2146,-5.032,-4.9536,-4.846,-4.7309,-4.7309,-4.7967,-4.9045,-4.9194,-5.0272,-5.1768,-5.2276,-5.3084,-5.3982,-5.4341,-5.479,-5.5299,-5.5957,-5.4454,-5.2669,-5.3854,-5.2807,-5.0542,-4.7179,-4.6648,-4.6189,-4.2336,-4.1328,-4.1543,-4.2383,-4.2676,-4.3086,-4.4297,-4.4883,-4.5355,-4.5776,-4.6351,-4.6572,-4.622,-4.4919,-4.3071,-4.0577,-3.8441,-3.6312,-3.38,-3.3414,-3.3334,-3.3106,-3.328,-3.332,-3.3106,-3.3293,-3.3414,-3.3414,-3.3414,-3.3547,-3.3868,-3.3881,-3.4028,-3.4309,-3.3868,-3.3601,-3.3534,-3.3534,-3.3654,-3.3881,-3.3961,-3.4108,-3.9901,-4.048,-4.1024,-4.1682,-4.2262,-4.2922,-4.3812,0.0,-4.4701,-4.5011,-4.5381,-4.5663,-4.5873,-4.5893,-4.6001,-4.6248,-4.6289,-4.6289,-4.6289,-4.6075,-4.5897,-4.5885,-4.5719,-4.5624,-4.5607,-4.5765,-4.5817,-4.5827,-4.589,-4.5553,-4.4819,-4.625,-4.6764,-4.5993,-4.7044,-4.7957,-4.865,-4.885,-4.9323,-5.0101,-5.0135,-5.0913,-5.23,-5.2334,-5.1615,-5.0397,-5.032,-4.9166,-4.7309,-4.7309,-4.7728,-4.8386,-4.9015,-4.9703,-5.0571,-5.2426,-5.3174,-5.3414,-5.47,-5.5149,-5.5299,-5.5957,-5.4454,-5.2669,-5.3854,-5.2807,-5.0542,-4.7179,-4.6648,-4.6255,-4.2717,-4.1758,-4.1973,-4.2832,-4.334,-4.3887,-4.4805,-4.5332,-4.5164,-4.3631,-4.3541,-4.3182,-4.1285,-4.1099,-4.0384,-3.787,-3.7478,-3.6312,-3.38,-3.3414,-3.34,-3.3387,-3.34,-3.34,-3.3387,-3.34,-3.3414,-3.3414,-3.3414,-3.3547,-3.3868,-3.3881,-3.4028,-3.4309,-3.4282,-3.4135,-3.3855,-3.3855,-3.3868,-3.3895,-3.4162,-3.4309,-3.9327,-3.92,-3.9215,-4.0116,-4.0877,-4.1713,-4.2934,-4.3942,-4.4701,-4.5011,-4.5381,-4.5663,-4.5873,-4.588,-4.5988,-4.6248,-4.6289,-4.6289,-4.6289,-4.6075,-4.5897,-4.5885,-4.5719,-4.5532,-4.5283,-4.5138,-4.5051,-4.5051,-4.4623,-4.4334,-4.4267,-4.5549,-4.6214,-4.592,-4.6928,-4.7666,-4.8067,-4.8206,-4.868,-4.939,-4.9864,-5.0371,-5.0913,-5.186,-5.1695,-5.0725,-5.1182,-4.9852,-4.7309,-4.7309,-4.7698,-4.8356,-4.9015,-4.9673,-5.0361,-5.1498,-5.2456,-5.3264,-5.3743,-5.4461,-5.5359,-5.6406,-5.5031,-5.3186,-5.4901,-5.3651,-5.1061,-4.766,-4.6894,-4.6277,-4.2737,-4.1797,-4.2012,-4.2871,-4.3828,-4.4648,-4.4961,-4.4109,-4.3375,-4.3253,-4.2241,-4.1679,-4.2994,-4.0717,-3.8831,-3.9593,-3.6889,-3.4372,-3.36,-3.3414,-3.3414,-3.3414,-3.3414,-3.3414,-3.3414,-3.3414,-3.3414,-3.3414,-3.3601,-3.3761,-3.3881,-3.4255,-3.4496,-3.4603,-3.4603,-3.4456,-3.4162,-3.4162,-3.4269,-3.4456,-3.4563,-3.471,-3.8584,-3.837,-3.838,-3.9265,-4.0024,-4.0885,-4.2112,-4.3305,-4.4247,-4.4614,-4.5189,-4.5719,-4.5873,-4.594,-4.6026,-4.6246,-4.6289,-4.6289,-4.6289,-4.6075,-4.5897,-4.5885,-4.5719,-4.5457,-4.5137,-4.48,-4.4535,-4.4401,0.0,0.0,-4.3818,-4.5178,-4.5955,-4.6041,-4.7011,-4.7333,-4.7052,-4.7631,-4.8173,-4.8646,-4.939,-4.9864,-5.0135,-5.1386,-5.1497,-5.0867,-5.1592,-5.0365,-4.7849,-4.7849,-4.7865,-4.8027,-4.8925,-4.9523,-5.0062,-5.1379,-5.2426,-5.3234,-5.3713,-5.4581,-5.5586,-5.6183,-5.5049,-5.37,-5.48,-5.3765,-5.1495,-4.8798,-4.7467,-4.6299,-4.3678,-4.2684,-4.2656,-4.3535,-4.4394,-4.5137,-4.5566,-4.4622,-4.3549,-4.347,-4.2434,-4.1868,-4.3204,-4.0029,-3.787,-3.9593,-3.6115,-3.3414,-3.3414,-3.3414,-3.3414,-3.3414,-3.3414,-3.3414,-3.3414,-3.3414,-3.3414,-3.3414,-3.3614,-3.3774,-3.3881,-3.4269,-3.4509,-3.4616,-3.471,-3.467,-3.4469,-3.4469,-3.4576,-3.4763,-3.487,-3.5017,0.0,0.0,0.0,-3.9282,-3.983,-4.0418,-4.1327,-4.2441,-4.3364,-4.3798,-4.4863,-4.5796,-4.589,-4.5988,-4.6137,-4.628,-4.6289,-4.6289,-4.6289,-4.6069,-4.5897,-4.5885,-4.5719,-4.5457,-4.5137,-4.48,-4.4428,-4.4028,-4.3693,-4.3497,-4.3532,-4.5002,-4.6085,-4.6424,-4.7192,-4.7003,-4.576,-4.7158,-4.7902,-4.7936,-4.8646,-4.9357,-5.0067,-5.0845,-5.1061,-5.0834,-5.1559,-5.0747,-4.8891,-4.8841,-4.821,-4.7516,-4.8835,-4.9344,-4.9583,-5.2187,-5.3174,-5.3384,-5.47,-5.5598,-5.605,-5.5097,-5.4544,-5.4129,-5.3714,-5.2902,-5.1793,-5.0407,-4.865,-4.6832,-4.5715,-4.4623,-4.3926,-4.4805,-4.5019,-4.5371,-4.6641,-4.6933,-4.6318,-4.4106,-4.3934,-4.358,-4.1649,-3.9042,-3.7312,-3.7478,-3.5153,-3.3414,-3.3414,-3.3414,-3.3414,-3.3414,-3.3414,-3.3414,-3.3414,-3.3414,-3.3414,-3.3414,-3.3414,-3.3561,-3.3855,-3.3895,-3.4028,-3.4309,-3.4616,-3.4763,-3.4776,-3.4776,-3.4776,-3.4776,-3.507,-3.5191,-3.7466,0.0,0.0,0.0,0.0,0.0,-4.022,-4.1427,-4.2624,-4.3312,-4.419,-4.5054,-4.5698,-4.5966,-4.6098,-4.6163,-4.625,-4.627,-4.6185,-4.6007,-4.5859,-4.5847,-4.568,-4.5457,-4.5137,-4.48,-4.4535,0.0,-4.3855,-4.3597,-4.3849,-4.5142,-4.6468,-4.7725,-4.7124,-4.6857,-4.7054,-4.7067,-4.7361,-4.7936,-4.8646,-4.912,-4.9323,-5.0067,-5.0649,-5.1128,-5.1866,-5.1711,-5.1005,-5.0242,-4.9296,-4.8499,-4.9849,-4.9907,-4.9523,-5.1678,-5.2785,-5.3294,-5.4192,-5.5209,-5.605,-5.5097,-5.4826,-5.4676,-5.3847,-5.316,-5.2291,-5.0527,-4.9534,-4.8592,-4.6023,-4.4623,-4.3848,-4.4433,-4.4805,-4.5293,-4.6269,-4.6953,-4.6684,-4.4344,-4.2615,-4.2142,-4.341,-4.0206,-3.787,-3.9787,-3.6312,-3.3414,-3.3414,-3.3414,-3.3414,-3.3414,-3.3414,-3.3414,-3.3414,-3.3414,-3.3414,-3.3414,-3.3627,-3.3694,-3.3547,-3.3961,-3.4242,-3.4322,-3.4616,-3.487,-3.5084,-3.5084,-3.5084,-3.5084,-3.5164,-3.5191,-3.6947,-3.7056,-3.7173,-3.7755,0.0,0.0,-3.9467,-4.0857,-4.227,-4.2867,-4.4115,-4.5186,-4.5699,-4.5935,-4.6098,-4.6085,-4.6211,-4.6249,-4.6121,-4.5965,-4.5866,-4.583,-4.568,-4.5419,-4.4943,-4.4726,-4.4493,-4.4184,-4.3726,-4.3892,-4.4753,-4.5512,-4.6393,-4.744,-4.6783,-4.6372,-4.6343,-4.6669,-4.7022,-4.7462,-4.8511,-4.9018,-4.9018,-4.9763,-5.0507,-5.1251,-5.1995,-5.2371,-5.2557,-5.1954,-5.0779,-4.9582,-5.0496,-5.0457,-5.018,-5.1957,-5.2845,-5.3354,-5.461,-5.5688,-5.6333,-5.4677,-5.4558,-5.4773,-5.3162,-5.2629,-5.2329,-5.1534,-5.0128,-4.8429,-4.6065,-4.4501,-4.3613,-4.4258,-4.4726,-4.5312,-4.6348,-4.7109,-4.7257,-4.5901,-4.4743,-4.4642,-4.6169,-4.3105,-4.0705,-4.0941,-3.7463,-3.4336,-3.3264,-3.3053,-3.3093,-3.3213,-3.3227,-3.328,-3.34,-3.3414,-3.3414,-3.3414,-3.2553,-3.1959,-3.1781,-3.0851,-3.0394,-3.0394,-3.0865,-3.1131,-3.1397,-3.2686,-3.3447,-3.3447,-3.4544,-3.5191,-3.6539,-3.7283,-3.8002,-3.7998,-3.8405,0.0,-3.9017,-4.049,-4.1926,-4.2345,-4.4001,-4.5439,-4.5596,-4.5804,-4.5969,-4.6075,-4.6171,-4.6214,-4.609,-4.5984,-4.5911,-4.5796,-4.568,-4.5381,-4.4726,-4.4624,-4.4327,-4.3597,-4.3605,-4.4305,-4.581,-4.5993,-4.6194,-4.6518,-4.6413,-4.5865,-4.472,-4.6031,-4.6718,-4.6819,-4.8206,-4.8917,-4.9018,-4.9661,-5.0371,-5.115,-5.186,-5.2638,-5.3382,-5.345,-5.2345,-5.0602,-5.0881,-5.094,-5.1024,-5.254,-5.3114,-5.3443,-5.5388,-5.6526,-5.6733,-5.4175,-5.4303,-5.4855,-5.21,-5.1699,-5.2302,-5.2779,-5.0508,-4.7731,-4.6065,-4.4576,-4.3608,-4.4121,-4.4687,-4.5351,-4.6601,-4.7246,-4.7715,-4.8125,-4.8555,-4.8867,-4.8867,-4.6728,-4.4087,-4.1264,-3.8525,-3.5939,-3.3003,-3.2572,-3.2652,-3.2946,-3.2973,-3.3093,-3.3387,-3.3414,-3.3213,-3.3,-3.0748,-2.9116,-2.8913,-2.6444,-2.5225,-2.5245,-2.5467,-2.568,-2.5661,-2.9069,-3.0799,-3.1012,-3.387,-3.5191,-3.7539,-3.8222,-3.8791,-3.8579,-3.9103,0.0,-3.8891,-3.9458,-4.0283,-4.1056,-4.203,-4.3102,-4.436,-4.4812,-4.5171,-4.5827,-4.6033,-4.608,-4.5969,-4.6003,-4.595,-4.568,-4.5719,-4.5553,-4.5071,-4.4776,-4.4401,-4.3943,-4.4254,-4.4892,-4.5847,-4.6507,-4.6971,-4.7219,-4.6682,-4.6063,-4.532,-4.5716,-4.621,-4.6819,-4.7699,-4.8443,-4.9018,-4.9154,-4.9627,-5.0338,-5.1116,-5.186,-5.257,-5.3247,-5.2731,-5.1582,-5.1901,-5.1466,-5.0962,-5.2027,-5.2725,-5.3384,-5.488,-5.6137,-5.6733,-5.4175,-5.4488,-5.5278,-5.2228,-5.1975,-5.2779,-5.2904,-5.1528,-4.9561,-4.7753,-4.6322,-4.5226,-4.4021,-4.4453,-4.5273,-4.623,-4.7031,-4.7715,-4.8125,-4.8555,-4.8867,-4.8867,-4.6728,-4.4193,-4.1424,-3.8682,-3.6012,-3.3287,-3.2692,-3.2652,-3.2946,-3.2973,-3.3093,-3.3387,-3.3414,-3.2384,-3.0343,-2.9522,-2.8291,-2.6035,-2.542,-2.5295,-2.5467,-2.5909,-2.4778,-2.2486,-2.8045,-3.0752,-3.0763,-3.378,-3.5191,-3.905,-3.9585,-3.9969,-3.9433,-3.9688,0.0,0.0,-3.9825,-4.0604,-4.1205,-4.197,-4.2893,-4.4085,-4.4453,-4.4884,-4.575,-4.602,-4.6085,-4.6029,-4.6021,-4.5911,-4.5624,-4.5663,-4.5534,-4.5137,-4.4943,-4.4801,-4.4587,-4.4657,-4.5223,-4.6434,-4.6572,-4.6716,-4.6874,-4.6305,-4.5648,-4.5035,-4.5841,-4.6612,-4.7295,-4.8082,-4.8795,-4.9462,-4.9168,-4.9593,-5.0676,-5.1048,-5.186,-5.2942,-5.3348,-5.3179,-5.2657,-5.2094,-5.1755,-5.1518,-5.1698,-5.2336,-5.3414,-5.5089,-5.6286,-5.6793,-5.454,-5.4598,-5.5033,-5.2177,-5.2051,-5.2929,-5.2929,-5.1639,-5.0126,-4.9345,-4.7421,-4.5491,-4.5007,-4.4707,-4.4941,-4.5801,-4.666,-4.7441,-4.8086,-4.8555,-4.8789,-4.8574,-4.7373,-4.5129,-4.0946,-3.9239,-3.6807,-3.2912,-3.2198,-3.2225,-3.2505,-3.2679,-3.2879,-3.3173,-3.2106,-3.0748,-2.9319,-2.6649,-2.4598,-2.3156,-2.1924,-2.1812,-2.3453,-2.3765,-2.3024,-2.1644,-2.6184,-2.8368,-2.8368,-3.2755,-3.4763,-4.0456,-4.0881,-4.1148,-4.0341,-4.0466,-4.0626,0.0,0.0,0.0,-4.1908,0.0,-4.3355,-4.4162,0.0,0.0,0.0,0.0,0.0,0.0,-4.6022,0.0,-4.568,-4.568,-4.5552,-4.526,-4.5311,-4.5418,-4.5559,-4.5382,-4.5843,-4.7169,-4.6822,-4.6572,-4.66,-4.6014,-4.5546,-4.5166,-4.6283,-4.718,-4.7996,-4.8665,-4.9257,-4.9768,-4.9248,-4.9729,-5.1014,-5.115,-5.1995,-5.3281,-5.345,-5.3518,-5.3348,-5.2097,-5.1885,-5.2232,-5.1607,-5.2157,-5.3443,-5.5329,-5.6258,-5.6397,-5.4793,-5.4293,-5.4127,-5.2119,-5.2226,-5.2929,-5.2929,-5.1747,-5.0506,-5.0484,-4.8142,-4.5771,-4.5817,-4.4967,-4.4473,-4.5273,-4.6152,-4.7031,-4.7812,-4.832,-4.8516,-4.8262,-4.8203,-4.6234,-4.0461,-3.9554,-3.7755,-3.2517,-3.1704,-3.1784,-3.2064,-3.2372,-3.2456,-3.2142,-3.0387,-2.8913,-2.7884,-2.3568,-2.0895,-2.0279,-1.8634,-1.8918,-2.1373,-2.2004,-2.2302,-2.2486,-2.4768,-2.6042,-2.6072,-3.1133,-3.3691,-4.1058,-4.1592,-4.1992,0.0,-4.1724,-4.2313,0.0,0.0,-4.2448,-4.2507,0.0,-4.3355,-4.4162,0.0,0.0,0.0,0.0,0.0,-4.6094,-4.6074,-4.6026,-4.5873,-4.5988,-4.597,-4.576,-4.599,-4.6373,-4.6852,-4.7168,-4.7434,-4.762,-4.7905,-4.7846,-4.7299,-4.6635,-4.6623,-4.7364,-4.6934,-4.7405,-4.8685,-4.8831,-4.8916,-4.8916,-4.901,-4.9458,-5.0236,-5.0913,-5.1691,-5.2503,-5.3213,-5.3518,-5.3415,-5.2539,-5.222,-5.2263,-5.2124,-5.2546,-5.3384,-5.482,-5.5188,-5.484,-5.38,-5.2678,-5.188,-5.2563,-5.2829,-5.2929,-5.2929,-5.2767,-5.2189,-5.0482,-4.8822,-4.6981,-4.5222,-4.426,-4.3926,-4.4433,-4.5508,-4.6504,-4.6992,-4.7422,-4.7832,-4.8144,-4.8203,-4.6328,-4.0814,-3.9719,-3.7834,-3.2805,-3.1824,-3.1784,-3.2064,-3.2372,-3.1659,-2.9495,-2.9368,-2.7261,-2.2338,-2.1518,-2.0079,-1.7601,-1.9462,-2.0987,-2.1584,-2.388,-2.5231,-2.5661,-2.567,-2.567,-2.6072,-2.9237,-3.1987,-4.205,-4.2519,0.0,0.0,0.0,0.0,-4.2055,0.0,-4.2869,0.0,0.0,0.0,0.0,0.0,0.0,0.0,-4.5982,-4.6074,0.0,0.0,-4.6138,0.0,0.0,0.0,-4.6467,-4.6436,-4.6904,-4.7998,-4.807,-4.8159,-4.8389,-4.82,-4.7889,-4.7428,-4.6774,-4.659,-4.6944,-4.716,-4.7745,-4.8719,-4.925,-4.9486,-4.9433,-4.9551,-4.9991,-5.0777,-5.1082,-5.1894,-5.301,-5.3382,-5.3754,-5.4091,-5.3485,-5.2921,-5.2313,-5.2537,-5.291,-5.3384,-5.473,-5.5024,-5.468,-5.3779,-5.2514,-5.1498,-5.2578,-5.2929,-5.2929,-5.2929,-5.2929,-5.2767,-5.1886,-4.9623,-4.7492,-4.657,-4.4679,-4.3144,-4.3848,-4.4629,-4.5391,-4.6074,-4.6543,-4.6816,-4.6758,-4.7148,-4.563,-4.0226,-3.9307,-3.738,-3.2599,-3.1744,-3.1717,-3.1837,-3.2118,-3.14,-2.8859,-2.7515,-2.5073,-2.1302,-2.1103,-2.0488,-1.9462,-2.1924,-2.4549,-2.6567,-2.7621,-2.8368,-2.8601,-2.6682,-2.571,-2.5659,-2.8459,-3.1092,-4.2693,0.0,0.0,0.0,0.0,0.0,0.0,0.0,0.0,0.0,-4.3778,0.0,0.0,0.0,-4.5021,-4.5789,0.0,-4.6108,0.0,-4.6296,0.0,0.0,0.0,0.0,0.0,-4.686,-4.7222,-4.8548,-4.8566,-4.8586,-4.8858,-4.8484,-4.8124,-4.7806,-4.7052,-4.688,-4.7277,-4.7879,-4.8432,-4.8908,-4.9961,-5.0175,-4.9568,-4.9861,-5.0429,-5.1217,-5.1217,-5.2097,-5.3518,-5.3518,-5.3923,-5.4599,-5.4495,-5.3858,-5.3054,-5.3177,-5.3408,-5.3809,-5.462,-5.4533,-5.3951,-5.3005,-5.2126,-5.1448,-5.2402,-5.2804,-5.2929,-5.2929,-5.2929,-5.2929,-5.2929,-5.027,-4.7589,-4.7589,-4.4803,-4.2461,-4.3183,-4.3711,-4.4258,-4.5,-4.5391,-4.5316,-4.4472,-4.5028,-4.409,-3.9422,-3.8298,-3.6329,-3.2205,-3.1664,-3.1664,-3.1664,-3.1931,-3.0792,-2.7407,-2.565,-2.3635,-2.1148,-2.1001,-2.144,-2.2051,-2.4764,-2.7458,-2.9977,-3.0829,-3.1377,-3.1413,-2.7784,-2.6118,-2.6566,-2.778,-2.9724,0.0,0.0,0.0,-4.3461,0.0,0.0,0.0,0.0,-4.5509,0.0,0.0,0.0,-4.5547,-4.5547,-4.5658,-4.5872,-4.5909,0.0,0.0,-4.6289,-4.6289,-4.6289,-4.6172,0.0,0.0,-4.7245,-4.7472,-4.826,-4.8721,-4.8945,-4.8829,-4.8844,-4.8844,-4.8844,-4.7886,-4.8037,-4.9478,-4.9676,-4.9676,-4.9591,-5.1221,-5.0868,-4.8756,-4.9617,-5.0429,-5.1217,-5.1217,-5.2097,-5.3518,-5.3518,-5.3923,-5.4668,-5.5342,-5.5409,-5.4972,-5.4128,-5.4266,-5.4823,-5.4345,-5.3492,-5.226,-5.0972,-5.082,-5.1398,-5.195,-5.2503,-5.2929,-5.2929,-5.2929,-5.2929,-5.2929,-4.9985,-4.7051,-4.7051,-4.4322,-4.1933,-4.2383,-4.2812,-4.3242,-4.3691,-4.3769,-4.3106,-4.1042,-4.1669,-4.1356,-3.8824,-3.6474,-3.4256,-3.2002,-3.1664,-3.1664,-3.1664,-3.1931,-2.9929,-2.4618,-2.4426,-2.3356,-2.0562,-2.0731,-2.2043,-2.4668,-2.7547,-2.9448,-2.9718,-3.243,-3.3837,-3.413,-2.8376,-2.7001,-2.9489,-2.6756,-2.6853,0.0,0.0,-4.3497,-4.3497,0.0,0.0,0.0,0.0,0.0,0.0,0.0,0.0,-4.5586,-4.568,-4.577,-4.5834,-4.5944,-4.6044,0.0,-4.625,-4.6289,-4.6289,-4.625,-4.6523,0.0,0.0,-4.7609,-4.8241,-4.8964,-4.9238,-4.8815,-4.9352,-4.9445,-4.8911,-4.8566,-4.879,-4.9554,-4.9651,-4.9907,-5.0398,-5.1012,-5.0653,-4.9498,-5.0384,-5.0944,-5.1251,-5.1725,-5.2536,-5.3518,-5.3518,-5.4228,-5.5344,-5.5615,-5.5709,-5.5772,-5.5687,-5.5274,-5.4728,-5.3019,-5.2491,-5.2089,-5.0409,-5.0519,-5.1398,-5.195,-5.2477,-5.2929,-5.2929,-5.2929,-5.2629,-5.1303,-4.8938,-4.6735,-4.5425,-4.3198,-4.1504,-4.1914,-4.2129,-4.2363,-4.2773,-4.2851,-4.2183,-3.9997,-3.8618,-3.7397,-3.5676,-3.5106,-3.3984,-3.1732,-3.1543,-3.1664,-3.1664,-3.1583,-3.0115,-2.694,-2.52,-2.3937,-2.3136,-2.4941,-2.6688,-2.7493,-3.0387,-3.2123,-3.2417,-3.3462,-3.3094,-3.1302,-2.7448,-2.5052,-2.4086,-2.4834,-2.6649,-4.2262,-4.2921,0.0,-4.3497,-4.3758,0.0,-4.3998,0.0,-4.5115,0.0,0.0,0.0,-4.5586,-4.568,-4.5757,-4.5796,-4.5925,-4.6002,0.0,-4.6172,-4.625,-4.6289,-4.6289,-4.6484,-4.6953,-4.7305,-4.7606,-4.7961,-4.9093,-4.9567,-4.9111,0.0,-4.969,-4.9139,-4.8847,-4.8975,-4.9554,-4.9884,-5.0288,-5.0802,-5.1157,-5.094,-5.0275,-5.0906,-5.1321,-5.1623,-5.2097,-5.2773,-5.3518,-5.3518,-5.4228,-5.5344,-5.5615,-5.5709,-5.5817,-5.5822,-5.5234,-5.4061,-5.2452,-5.2118,-5.2062,-5.0178,-5.0218,-5.1071,-5.1649,-5.2201,-5.2678,-5.2879,-5.2929,-5.2491,-5.0551,-4.8506,-4.6441,-4.4527,-4.2637,-4.125,-4.1523,-4.1582,-4.166,-4.1933,-4.1317,-4.0141,-3.7986,-3.5775,-3.4218,-3.3898,-3.3349,-3.2662,-3.1369,-3.1396,-3.1557,-3.1664,-3.1396,-3.0174,-2.7901,-2.542,-2.437,-2.5363,-2.7452,-2.9093,-3.0181,-3.2086,-3.3454,-3.3881,-3.3774,-3.2518,-2.9706,-2.6916,-2.3908,-2.1103,-2.2958,-2.5215]}]]